<?xml version="1.0" encoding="UTF-8" standalone="no" ?>
<gpx xmlns="http://www.topografix.com/GPX/1/1" xmlns:xsi="http://www.w3.org/2001/XMLSchema-instance" xsi:schemaLocation="http://www.topografix.com/GPX/1/1 http://www.topografix.com/GPX/1/1/gpx.xsd" version="1.1" creator="VisuGPX - https://www.visugpx.com">
  <metadata>
    <name>Sortie VTT du vendredi 4 mai 2012 (selle cassée)</name>
    <desc><![CDATA[Au 7° km, Christian casse sa selle, réparation impossible, il rentre avec Ghislaine, ce qui leur permet de préparer l\'apéro. Je continue avec Chris, après 10,4 km, chemin montant très boueux (une source s\'y déverse). Pour le reste ça va, il fait beau et le parcours n\'est pas très long, on ne fait même pas la pause casse-croute.]]></desc>
  </metadata>
  <trk>
    <name><![CDATA[Port22  (selle cassée)]]></name>
    <trkseg>
      <trkpt lat="47.68631" lon="6.0454">
        <ele>222.19999694824</ele>
        <time>2012-05-04T07:41:24.000Z</time>
      </trkpt>
      <trkpt lat="47.6863" lon="6.0454">
        <ele>222.19999694824</ele>
        <time>2012-05-04T07:41:25.000Z</time>
      </trkpt>
      <trkpt lat="47.6863" lon="6.04544">
        <ele>222.19999694824</ele>
        <time>2012-05-04T07:41:35.000Z</time>
      </trkpt>
      <trkpt lat="47.68632" lon="6.04544">
        <ele>222.19999694824</ele>
        <time>2012-05-04T07:41:37.000Z</time>
      </trkpt>
      <trkpt lat="47.68632" lon="6.04544">
        <ele>222.19999694824</ele>
        <time>2012-05-04T07:41:39.000Z</time>
      </trkpt>
      <trkpt lat="47.68627" lon="6.04537">
        <ele>222.19999694824</ele>
        <time>2012-05-04T07:43:03.000Z</time>
      </trkpt>
      <trkpt lat="47.68628" lon="6.04531">
        <ele>222.19999694824</ele>
        <time>2012-05-04T07:43:05.000Z</time>
      </trkpt>
      <trkpt lat="47.68628" lon="6.04529">
        <ele>222.19999694824</ele>
        <time>2012-05-04T07:43:08.000Z</time>
      </trkpt>
      <trkpt lat="47.68628" lon="6.04529">
        <ele>222.19999694824</ele>
        <time>2012-05-04T07:43:12.000Z</time>
      </trkpt>
      <trkpt lat="47.68628" lon="6.04526">
        <ele>221.60000610352</ele>
        <time>2012-05-04T07:43:13.000Z</time>
      </trkpt>
      <trkpt lat="47.68627" lon="6.04523">
        <ele>221.19999694824</ele>
        <time>2012-05-04T07:43:14.000Z</time>
      </trkpt>
      <trkpt lat="47.68625" lon="6.0452">
        <ele>220.80000305176</ele>
        <time>2012-05-04T07:43:15.000Z</time>
      </trkpt>
      <trkpt lat="47.68622" lon="6.04517">
        <ele>220</ele>
        <time>2012-05-04T07:43:16.000Z</time>
      </trkpt>
      <trkpt lat="47.68614" lon="6.04513">
        <ele>220</ele>
        <time>2012-05-04T07:43:18.000Z</time>
      </trkpt>
      <trkpt lat="47.6861" lon="6.0451">
        <ele>220</ele>
        <time>2012-05-04T07:43:19.000Z</time>
      </trkpt>
      <trkpt lat="47.6859" lon="6.04497">
        <ele>219.60000610352</ele>
        <time>2012-05-04T07:43:23.000Z</time>
      </trkpt>
      <trkpt lat="47.68584" lon="6.04493">
        <ele>219.19999694824</ele>
        <time>2012-05-04T07:43:24.000Z</time>
      </trkpt>
      <trkpt lat="47.68578" lon="6.04489">
        <ele>218.80000305176</ele>
        <time>2012-05-04T07:43:25.000Z</time>
      </trkpt>
      <trkpt lat="47.68571" lon="6.04485">
        <ele>218.39999389648</ele>
        <time>2012-05-04T07:43:26.000Z</time>
      </trkpt>
      <trkpt lat="47.68564" lon="6.04479">
        <ele>218</ele>
        <time>2012-05-04T07:43:27.000Z</time>
      </trkpt>
      <trkpt lat="47.6855" lon="6.04469">
        <ele>217.39999389648</ele>
        <time>2012-05-04T07:43:29.000Z</time>
      </trkpt>
      <trkpt lat="47.68543" lon="6.04463">
        <ele>217</ele>
        <time>2012-05-04T07:43:30.000Z</time>
      </trkpt>
      <trkpt lat="47.68536" lon="6.04458">
        <ele>216.39999389648</ele>
        <time>2012-05-04T07:43:31.000Z</time>
      </trkpt>
      <trkpt lat="47.68528" lon="6.04452">
        <ele>216</ele>
        <time>2012-05-04T07:43:32.000Z</time>
      </trkpt>
      <trkpt lat="47.6852" lon="6.04447">
        <ele>215.39999389648</ele>
        <time>2012-05-04T07:43:33.000Z</time>
      </trkpt>
      <trkpt lat="47.68504" lon="6.04436">
        <ele>215</ele>
        <time>2012-05-04T07:43:35.000Z</time>
      </trkpt>
      <trkpt lat="47.68496" lon="6.04432">
        <ele>214.39999389648</ele>
        <time>2012-05-04T07:43:36.000Z</time>
      </trkpt>
      <trkpt lat="47.68487" lon="6.04429">
        <ele>214</ele>
        <time>2012-05-04T07:43:37.000Z</time>
      </trkpt>
      <trkpt lat="47.68479" lon="6.04427">
        <ele>213.60000610352</ele>
        <time>2012-05-04T07:43:38.000Z</time>
      </trkpt>
      <trkpt lat="47.68471" lon="6.04427">
        <ele>213.19999694824</ele>
        <time>2012-05-04T07:43:39.000Z</time>
      </trkpt>
      <trkpt lat="47.68463" lon="6.04428">
        <ele>212.60000610352</ele>
        <time>2012-05-04T07:43:40.000Z</time>
      </trkpt>
      <trkpt lat="47.68455" lon="6.04428">
        <ele>211.80000305176</ele>
        <time>2012-05-04T07:43:41.000Z</time>
      </trkpt>
      <trkpt lat="47.68447" lon="6.04427">
        <ele>211.19999694824</ele>
        <time>2012-05-04T07:43:42.000Z</time>
      </trkpt>
      <trkpt lat="47.68441" lon="6.04427">
        <ele>210.80000305176</ele>
        <time>2012-05-04T07:43:43.000Z</time>
      </trkpt>
      <trkpt lat="47.68434" lon="6.04427">
        <ele>210.19999694824</ele>
        <time>2012-05-04T07:43:44.000Z</time>
      </trkpt>
      <trkpt lat="47.68428" lon="6.04427">
        <ele>209.60000610352</ele>
        <time>2012-05-04T07:43:45.000Z</time>
      </trkpt>
      <trkpt lat="47.68422" lon="6.04428">
        <ele>209.19999694824</ele>
        <time>2012-05-04T07:43:46.000Z</time>
      </trkpt>
      <trkpt lat="47.68416" lon="6.04428">
        <ele>208.60000610352</ele>
        <time>2012-05-04T07:43:47.000Z</time>
      </trkpt>
      <trkpt lat="47.68409" lon="6.04428">
        <ele>208.19999694824</ele>
        <time>2012-05-04T07:43:48.000Z</time>
      </trkpt>
      <trkpt lat="47.68403" lon="6.04428">
        <ele>207.80000305176</ele>
        <time>2012-05-04T07:43:49.000Z</time>
      </trkpt>
      <trkpt lat="47.68399" lon="6.04427">
        <ele>207.19999694824</ele>
        <time>2012-05-04T07:43:50.000Z</time>
      </trkpt>
      <trkpt lat="47.68396" lon="6.04423">
        <ele>206.80000305176</ele>
        <time>2012-05-04T07:43:51.000Z</time>
      </trkpt>
      <trkpt lat="47.68394" lon="6.04416">
        <ele>206.39999389648</ele>
        <time>2012-05-04T07:43:52.000Z</time>
      </trkpt>
      <trkpt lat="47.68394" lon="6.04403">
        <ele>206.39999389648</ele>
        <time>2012-05-04T07:43:54.000Z</time>
      </trkpt>
      <trkpt lat="47.68394" lon="6.04395">
        <ele>206.39999389648</ele>
        <time>2012-05-04T07:43:55.000Z</time>
      </trkpt>
      <trkpt lat="47.68393" lon="6.04351">
        <ele>206.39999389648</ele>
        <time>2012-05-04T07:44:01.000Z</time>
      </trkpt>
      <trkpt lat="47.68393" lon="6.04336">
        <ele>206</ele>
        <time>2012-05-04T07:44:03.000Z</time>
      </trkpt>
      <trkpt lat="47.68393" lon="6.04327">
        <ele>205.60000610352</ele>
        <time>2012-05-04T07:44:04.000Z</time>
      </trkpt>
      <trkpt lat="47.68393" lon="6.04319">
        <ele>204.80000305176</ele>
        <time>2012-05-04T07:44:05.000Z</time>
      </trkpt>
      <trkpt lat="47.68393" lon="6.04311">
        <ele>204.39999389648</ele>
        <time>2012-05-04T07:44:06.000Z</time>
      </trkpt>
      <trkpt lat="47.68393" lon="6.04293">
        <ele>204.39999389648</ele>
        <time>2012-05-04T07:44:08.000Z</time>
      </trkpt>
      <trkpt lat="47.68393" lon="6.04277">
        <ele>204</ele>
        <time>2012-05-04T07:44:10.000Z</time>
      </trkpt>
      <trkpt lat="47.68392" lon="6.04271">
        <ele>203.39999389648</ele>
        <time>2012-05-04T07:44:11.000Z</time>
      </trkpt>
      <trkpt lat="47.68392" lon="6.04267">
        <ele>203</ele>
        <time>2012-05-04T07:44:12.000Z</time>
      </trkpt>
      <trkpt lat="47.68392" lon="6.04263">
        <ele>202.60000610352</ele>
        <time>2012-05-04T07:44:13.000Z</time>
      </trkpt>
      <trkpt lat="47.68392" lon="6.0426">
        <ele>202.19999694824</ele>
        <time>2012-05-04T07:44:14.000Z</time>
      </trkpt>
      <trkpt lat="47.68391" lon="6.04251">
        <ele>202.19999694824</ele>
        <time>2012-05-04T07:44:17.000Z</time>
      </trkpt>
      <trkpt lat="47.68381" lon="6.04246">
        <ele>202.19999694824</ele>
        <time>2012-05-04T07:44:21.000Z</time>
      </trkpt>
      <trkpt lat="47.68376" lon="6.04242">
        <ele>201.80000305176</ele>
        <time>2012-05-04T07:44:23.000Z</time>
      </trkpt>
      <trkpt lat="47.68374" lon="6.0424">
        <ele>201.39999389648</ele>
        <time>2012-05-04T07:44:24.000Z</time>
      </trkpt>
      <trkpt lat="47.68372" lon="6.04239">
        <ele>201</ele>
        <time>2012-05-04T07:44:25.000Z</time>
      </trkpt>
      <trkpt lat="47.6837" lon="6.04237">
        <ele>200.60000610352</ele>
        <time>2012-05-04T07:44:26.000Z</time>
      </trkpt>
      <trkpt lat="47.68367" lon="6.04234">
        <ele>200.19999694824</ele>
        <time>2012-05-04T07:44:27.000Z</time>
      </trkpt>
      <trkpt lat="47.6836" lon="6.04218">
        <ele>200.19999694824</ele>
        <time>2012-05-04T07:44:31.000Z</time>
      </trkpt>
      <trkpt lat="47.68356" lon="6.04194">
        <ele>200.19999694824</ele>
        <time>2012-05-04T07:44:36.000Z</time>
      </trkpt>
      <trkpt lat="47.68356" lon="6.04162">
        <ele>200.19999694824</ele>
        <time>2012-05-04T07:44:42.000Z</time>
      </trkpt>
      <trkpt lat="47.6836" lon="6.04154">
        <ele>200.19999694824</ele>
        <time>2012-05-04T07:44:44.000Z</time>
      </trkpt>
      <trkpt lat="47.68367" lon="6.0415">
        <ele>200.19999694824</ele>
        <time>2012-05-04T07:44:46.000Z</time>
      </trkpt>
      <trkpt lat="47.68378" lon="6.04151">
        <ele>200.19999694824</ele>
        <time>2012-05-04T07:44:49.000Z</time>
      </trkpt>
      <trkpt lat="47.68385" lon="6.04153">
        <ele>200.19999694824</ele>
        <time>2012-05-04T07:44:51.000Z</time>
      </trkpt>
      <trkpt lat="47.68411" lon="6.04153">
        <ele>200.19999694824</ele>
        <time>2012-05-04T07:44:58.000Z</time>
      </trkpt>
      <trkpt lat="47.6844" lon="6.04156">
        <ele>200.19999694824</ele>
        <time>2012-05-04T07:45:06.000Z</time>
      </trkpt>
      <trkpt lat="47.68474" lon="6.0416">
        <ele>200.19999694824</ele>
        <time>2012-05-04T07:45:15.000Z</time>
      </trkpt>
      <trkpt lat="47.68499" lon="6.04163">
        <ele>200.19999694824</ele>
        <time>2012-05-04T07:45:22.000Z</time>
      </trkpt>
      <trkpt lat="47.68534" lon="6.0417">
        <ele>200.19999694824</ele>
        <time>2012-05-04T07:45:31.000Z</time>
      </trkpt>
      <trkpt lat="47.68563" lon="6.04178">
        <ele>200.19999694824</ele>
        <time>2012-05-04T07:45:39.000Z</time>
      </trkpt>
      <trkpt lat="47.68591" lon="6.04185">
        <ele>200.19999694824</ele>
        <time>2012-05-04T07:45:47.000Z</time>
      </trkpt>
      <trkpt lat="47.68621" lon="6.04193">
        <ele>200.19999694824</ele>
        <time>2012-05-04T07:45:55.000Z</time>
      </trkpt>
      <trkpt lat="47.68654" lon="6.04203">
        <ele>200.19999694824</ele>
        <time>2012-05-04T07:46:04.000Z</time>
      </trkpt>
      <trkpt lat="47.6868" lon="6.0421">
        <ele>200.19999694824</ele>
        <time>2012-05-04T07:46:11.000Z</time>
      </trkpt>
      <trkpt lat="47.68706" lon="6.04216">
        <ele>199.60000610352</ele>
        <time>2012-05-04T07:46:18.000Z</time>
      </trkpt>
      <trkpt lat="47.6871" lon="6.04217">
        <ele>199.19999694824</ele>
        <time>2012-05-04T07:46:19.000Z</time>
      </trkpt>
      <trkpt lat="47.68713" lon="6.04217">
        <ele>198.80000305176</ele>
        <time>2012-05-04T07:46:20.000Z</time>
      </trkpt>
      <trkpt lat="47.68717" lon="6.04219">
        <ele>198.39999389648</ele>
        <time>2012-05-04T07:46:21.000Z</time>
      </trkpt>
      <trkpt lat="47.68721" lon="6.04219">
        <ele>198</ele>
        <time>2012-05-04T07:46:22.000Z</time>
      </trkpt>
      <trkpt lat="47.68739" lon="6.04223">
        <ele>198</ele>
        <time>2012-05-04T07:46:27.000Z</time>
      </trkpt>
      <trkpt lat="47.68769" lon="6.04227">
        <ele>198</ele>
        <time>2012-05-04T07:46:35.000Z</time>
      </trkpt>
      <trkpt lat="47.68793" lon="6.04228">
        <ele>198</ele>
        <time>2012-05-04T07:46:42.000Z</time>
      </trkpt>
      <trkpt lat="47.68809" lon="6.04232">
        <ele>198</ele>
        <time>2012-05-04T07:46:48.000Z</time>
      </trkpt>
      <trkpt lat="47.68823" lon="6.04234">
        <ele>198</ele>
        <time>2012-05-04T07:46:53.000Z</time>
      </trkpt>
      <trkpt lat="47.68843" lon="6.04234">
        <ele>198</ele>
        <time>2012-05-04T07:46:59.000Z</time>
      </trkpt>
      <trkpt lat="47.68866" lon="6.04235">
        <ele>198</ele>
        <time>2012-05-04T07:47:05.000Z</time>
      </trkpt>
      <trkpt lat="47.68882" lon="6.04239">
        <ele>198</ele>
        <time>2012-05-04T07:47:10.000Z</time>
      </trkpt>
      <trkpt lat="47.68895" lon="6.04244">
        <ele>198.39999389648</ele>
        <time>2012-05-04T07:47:15.000Z</time>
      </trkpt>
      <trkpt lat="47.68899" lon="6.04245">
        <ele>198.80000305176</ele>
        <time>2012-05-04T07:47:16.000Z</time>
      </trkpt>
      <trkpt lat="47.68901" lon="6.04247">
        <ele>199.19999694824</ele>
        <time>2012-05-04T07:47:17.000Z</time>
      </trkpt>
      <trkpt lat="47.68903" lon="6.04249">
        <ele>199.80000305176</ele>
        <time>2012-05-04T07:47:18.000Z</time>
      </trkpt>
      <trkpt lat="47.68905" lon="6.0425">
        <ele>200.19999694824</ele>
        <time>2012-05-04T07:47:19.000Z</time>
      </trkpt>
      <trkpt lat="47.68906" lon="6.0425">
        <ele>200.19999694824</ele>
        <time>2012-05-04T07:47:20.000Z</time>
      </trkpt>
      <trkpt lat="47.68906" lon="6.0425">
        <ele>200.19999694824</ele>
        <time>2012-05-04T07:47:21.000Z</time>
      </trkpt>
      <trkpt lat="47.68907" lon="6.04251">
        <ele>200.19999694824</ele>
        <time>2012-05-04T07:48:04.000Z</time>
      </trkpt>
      <trkpt lat="47.68909" lon="6.04256">
        <ele>200.19999694824</ele>
        <time>2012-05-04T07:48:06.000Z</time>
      </trkpt>
      <trkpt lat="47.68917" lon="6.04247">
        <ele>200.19999694824</ele>
        <time>2012-05-04T07:48:09.000Z</time>
      </trkpt>
      <trkpt lat="47.68919" lon="6.04242">
        <ele>200.19999694824</ele>
        <time>2012-05-04T07:48:10.000Z</time>
      </trkpt>
      <trkpt lat="47.68929" lon="6.04213">
        <ele>200.19999694824</ele>
        <time>2012-05-04T07:48:15.000Z</time>
      </trkpt>
      <trkpt lat="47.68945" lon="6.04174">
        <ele>200.19999694824</ele>
        <time>2012-05-04T07:48:21.000Z</time>
      </trkpt>
      <trkpt lat="47.68962" lon="6.04133">
        <ele>200.19999694824</ele>
        <time>2012-05-04T07:48:28.000Z</time>
      </trkpt>
      <trkpt lat="47.68964" lon="6.04128">
        <ele>200.19999694824</ele>
        <time>2012-05-04T07:48:29.000Z</time>
      </trkpt>
      <trkpt lat="47.68981" lon="6.04086">
        <ele>200.19999694824</ele>
        <time>2012-05-04T07:48:37.000Z</time>
      </trkpt>
      <trkpt lat="47.69" lon="6.04044">
        <ele>200.19999694824</ele>
        <time>2012-05-04T07:48:45.000Z</time>
      </trkpt>
      <trkpt lat="47.69017" lon="6.04002">
        <ele>200.19999694824</ele>
        <time>2012-05-04T07:48:54.000Z</time>
      </trkpt>
      <trkpt lat="47.69028" lon="6.03974">
        <ele>200.60000610352</ele>
        <time>2012-05-04T07:49:00.000Z</time>
      </trkpt>
      <trkpt lat="47.6903" lon="6.03969">
        <ele>201</ele>
        <time>2012-05-04T07:49:01.000Z</time>
      </trkpt>
      <trkpt lat="47.69031" lon="6.03964">
        <ele>201.80000305176</ele>
        <time>2012-05-04T07:49:02.000Z</time>
      </trkpt>
      <trkpt lat="47.69033" lon="6.03959">
        <ele>202.19999694824</ele>
        <time>2012-05-04T07:49:03.000Z</time>
      </trkpt>
      <trkpt lat="47.69049" lon="6.03921">
        <ele>202.19999694824</ele>
        <time>2012-05-04T07:49:11.000Z</time>
      </trkpt>
      <trkpt lat="47.69064" lon="6.03884">
        <ele>202.19999694824</ele>
        <time>2012-05-04T07:49:19.000Z</time>
      </trkpt>
      <trkpt lat="47.69072" lon="6.03863">
        <ele>202.19999694824</ele>
        <time>2012-05-04T07:49:25.000Z</time>
      </trkpt>
      <trkpt lat="47.69076" lon="6.03852">
        <ele>202.19999694824</ele>
        <time>2012-05-04T07:49:32.000Z</time>
      </trkpt>
      <trkpt lat="47.69083" lon="6.03837">
        <ele>202.19999694824</ele>
        <time>2012-05-04T07:49:36.000Z</time>
      </trkpt>
      <trkpt lat="47.69097" lon="6.03803">
        <ele>202.19999694824</ele>
        <time>2012-05-04T07:49:42.000Z</time>
      </trkpt>
      <trkpt lat="47.69111" lon="6.03765">
        <ele>202.19999694824</ele>
        <time>2012-05-04T07:49:47.000Z</time>
      </trkpt>
      <trkpt lat="47.69117" lon="6.03741">
        <ele>201.80000305176</ele>
        <time>2012-05-04T07:49:50.000Z</time>
      </trkpt>
      <trkpt lat="47.69118" lon="6.03733">
        <ele>200.80000305176</ele>
        <time>2012-05-04T07:49:51.000Z</time>
      </trkpt>
      <trkpt lat="47.6912" lon="6.03725">
        <ele>200.39999389648</ele>
        <time>2012-05-04T07:49:52.000Z</time>
      </trkpt>
      <trkpt lat="47.69122" lon="6.03717">
        <ele>200</ele>
        <time>2012-05-04T07:49:53.000Z</time>
      </trkpt>
      <trkpt lat="47.69124" lon="6.0371">
        <ele>200</ele>
        <time>2012-05-04T07:49:54.000Z</time>
      </trkpt>
      <trkpt lat="47.69131" lon="6.03677">
        <ele>200</ele>
        <time>2012-05-04T07:49:59.000Z</time>
      </trkpt>
      <trkpt lat="47.69133" lon="6.03672">
        <ele>200</ele>
        <time>2012-05-04T07:50:00.000Z</time>
      </trkpt>
      <trkpt lat="47.69142" lon="6.03642">
        <ele>200</ele>
        <time>2012-05-04T07:50:06.000Z</time>
      </trkpt>
      <trkpt lat="47.69149" lon="6.03641">
        <ele>200</ele>
        <time>2012-05-04T07:50:08.000Z</time>
      </trkpt>
      <trkpt lat="47.69152" lon="6.03643">
        <ele>200</ele>
        <time>2012-05-04T07:50:09.000Z</time>
      </trkpt>
      <trkpt lat="47.69154" lon="6.03645">
        <ele>200.39999389648</ele>
        <time>2012-05-04T07:50:10.000Z</time>
      </trkpt>
      <trkpt lat="47.69157" lon="6.03647">
        <ele>200.80000305176</ele>
        <time>2012-05-04T07:50:11.000Z</time>
      </trkpt>
      <trkpt lat="47.6916" lon="6.03649">
        <ele>201.19999694824</ele>
        <time>2012-05-04T07:50:12.000Z</time>
      </trkpt>
      <trkpt lat="47.69162" lon="6.03651">
        <ele>201.80000305176</ele>
        <time>2012-05-04T07:50:13.000Z</time>
      </trkpt>
      <trkpt lat="47.69165" lon="6.03653">
        <ele>202.19999694824</ele>
        <time>2012-05-04T07:50:14.000Z</time>
      </trkpt>
      <trkpt lat="47.69168" lon="6.03656">
        <ele>203</ele>
        <time>2012-05-04T07:50:16.000Z</time>
      </trkpt>
      <trkpt lat="47.6917" lon="6.0366">
        <ele>203.39999389648</ele>
        <time>2012-05-04T07:50:17.000Z</time>
      </trkpt>
      <trkpt lat="47.69173" lon="6.03663">
        <ele>203.80000305176</ele>
        <time>2012-05-04T07:50:18.000Z</time>
      </trkpt>
      <trkpt lat="47.69175" lon="6.03664">
        <ele>204.19999694824</ele>
        <time>2012-05-04T07:50:19.000Z</time>
      </trkpt>
      <trkpt lat="47.69184" lon="6.03668">
        <ele>204.60000610352</ele>
        <time>2012-05-04T07:50:23.000Z</time>
      </trkpt>
      <trkpt lat="47.69186" lon="6.03666">
        <ele>205.19999694824</ele>
        <time>2012-05-04T07:50:24.000Z</time>
      </trkpt>
      <trkpt lat="47.69188" lon="6.03665">
        <ele>205.60000610352</ele>
        <time>2012-05-04T07:50:25.000Z</time>
      </trkpt>
      <trkpt lat="47.6919" lon="6.03664">
        <ele>206</ele>
        <time>2012-05-04T07:50:26.000Z</time>
      </trkpt>
      <trkpt lat="47.69192" lon="6.03662">
        <ele>206.39999389648</ele>
        <time>2012-05-04T07:50:27.000Z</time>
      </trkpt>
      <trkpt lat="47.69197" lon="6.03655">
        <ele>206.39999389648</ele>
        <time>2012-05-04T07:50:30.000Z</time>
      </trkpt>
      <trkpt lat="47.69203" lon="6.0365">
        <ele>206.80000305176</ele>
        <time>2012-05-04T07:50:33.000Z</time>
      </trkpt>
      <trkpt lat="47.69205" lon="6.03648">
        <ele>207.39999389648</ele>
        <time>2012-05-04T07:50:34.000Z</time>
      </trkpt>
      <trkpt lat="47.69208" lon="6.03647">
        <ele>207.80000305176</ele>
        <time>2012-05-04T07:50:35.000Z</time>
      </trkpt>
      <trkpt lat="47.69209" lon="6.03645">
        <ele>208.19999694824</ele>
        <time>2012-05-04T07:50:36.000Z</time>
      </trkpt>
      <trkpt lat="47.69211" lon="6.03643">
        <ele>208.60000610352</ele>
        <time>2012-05-04T07:50:37.000Z</time>
      </trkpt>
      <trkpt lat="47.69212" lon="6.03642">
        <ele>208.60000610352</ele>
        <time>2012-05-04T07:50:39.000Z</time>
      </trkpt>
      <trkpt lat="47.69214" lon="6.03641">
        <ele>208.60000610352</ele>
        <time>2012-05-04T07:50:40.000Z</time>
      </trkpt>
      <trkpt lat="47.69217" lon="6.03641">
        <ele>209</ele>
        <time>2012-05-04T07:50:41.000Z</time>
      </trkpt>
      <trkpt lat="47.69219" lon="6.03641">
        <ele>209.39999389648</ele>
        <time>2012-05-04T07:50:42.000Z</time>
      </trkpt>
      <trkpt lat="47.69222" lon="6.03643">
        <ele>210</ele>
        <time>2012-05-04T07:50:43.000Z</time>
      </trkpt>
      <trkpt lat="47.69223" lon="6.03643">
        <ele>210.39999389648</ele>
        <time>2012-05-04T07:50:44.000Z</time>
      </trkpt>
      <trkpt lat="47.69226" lon="6.03644">
        <ele>210.80000305176</ele>
        <time>2012-05-04T07:50:45.000Z</time>
      </trkpt>
      <trkpt lat="47.69234" lon="6.03644">
        <ele>210.80000305176</ele>
        <time>2012-05-04T07:50:48.000Z</time>
      </trkpt>
      <trkpt lat="47.69246" lon="6.03642">
        <ele>211.19999694824</ele>
        <time>2012-05-04T07:50:54.000Z</time>
      </trkpt>
      <trkpt lat="47.69248" lon="6.03641">
        <ele>211.60000610352</ele>
        <time>2012-05-04T07:50:55.000Z</time>
      </trkpt>
      <trkpt lat="47.6925" lon="6.0364">
        <ele>212</ele>
        <time>2012-05-04T07:50:56.000Z</time>
      </trkpt>
      <trkpt lat="47.69252" lon="6.03638">
        <ele>212.39999389648</ele>
        <time>2012-05-04T07:50:57.000Z</time>
      </trkpt>
      <trkpt lat="47.69255" lon="6.03637">
        <ele>212.80000305176</ele>
        <time>2012-05-04T07:50:58.000Z</time>
      </trkpt>
      <trkpt lat="47.69261" lon="6.03633">
        <ele>212.80000305176</ele>
        <time>2012-05-04T07:51:01.000Z</time>
      </trkpt>
      <trkpt lat="47.69274" lon="6.03622">
        <ele>212.80000305176</ele>
        <time>2012-05-04T07:51:08.000Z</time>
      </trkpt>
      <trkpt lat="47.69281" lon="6.03617">
        <ele>213.19999694824</ele>
        <time>2012-05-04T07:51:12.000Z</time>
      </trkpt>
      <trkpt lat="47.69283" lon="6.03615">
        <ele>213.60000610352</ele>
        <time>2012-05-04T07:51:13.000Z</time>
      </trkpt>
      <trkpt lat="47.69284" lon="6.03613">
        <ele>214</ele>
        <time>2012-05-04T07:51:14.000Z</time>
      </trkpt>
      <trkpt lat="47.69286" lon="6.03612">
        <ele>214.39999389648</ele>
        <time>2012-05-04T07:51:15.000Z</time>
      </trkpt>
      <trkpt lat="47.69288" lon="6.0361">
        <ele>214.80000305176</ele>
        <time>2012-05-04T07:51:16.000Z</time>
      </trkpt>
      <trkpt lat="47.693" lon="6.03599">
        <ele>214.80000305176</ele>
        <time>2012-05-04T07:51:23.000Z</time>
      </trkpt>
      <trkpt lat="47.69305" lon="6.03584">
        <ele>214.80000305176</ele>
        <time>2012-05-04T07:51:29.000Z</time>
      </trkpt>
      <trkpt lat="47.69306" lon="6.0358">
        <ele>214.80000305176</ele>
        <time>2012-05-04T07:51:31.000Z</time>
      </trkpt>
      <trkpt lat="47.69309" lon="6.03573">
        <ele>214.80000305176</ele>
        <time>2012-05-04T07:51:35.000Z</time>
      </trkpt>
      <trkpt lat="47.69315" lon="6.03569">
        <ele>214.80000305176</ele>
        <time>2012-05-04T07:51:39.000Z</time>
      </trkpt>
      <trkpt lat="47.69317" lon="6.03569">
        <ele>215.19999694824</ele>
        <time>2012-05-04T07:51:40.000Z</time>
      </trkpt>
      <trkpt lat="47.69318" lon="6.03569">
        <ele>215.80000305176</ele>
        <time>2012-05-04T07:51:41.000Z</time>
      </trkpt>
      <trkpt lat="47.6932" lon="6.03569">
        <ele>216.19999694824</ele>
        <time>2012-05-04T07:51:42.000Z</time>
      </trkpt>
      <trkpt lat="47.69322" lon="6.03569">
        <ele>216.60000610352</ele>
        <time>2012-05-04T07:51:43.000Z</time>
      </trkpt>
      <trkpt lat="47.69323" lon="6.03568">
        <ele>217</ele>
        <time>2012-05-04T07:51:44.000Z</time>
      </trkpt>
      <trkpt lat="47.69331" lon="6.03564">
        <ele>217</ele>
        <time>2012-05-04T07:51:48.000Z</time>
      </trkpt>
      <trkpt lat="47.69339" lon="6.0356">
        <ele>217</ele>
        <time>2012-05-04T07:51:53.000Z</time>
      </trkpt>
      <trkpt lat="47.69347" lon="6.03556">
        <ele>217</ele>
        <time>2012-05-04T07:51:59.000Z</time>
      </trkpt>
      <trkpt lat="47.69353" lon="6.03553">
        <ele>217.39999389648</ele>
        <time>2012-05-04T07:52:03.000Z</time>
      </trkpt>
      <trkpt lat="47.69355" lon="6.03552">
        <ele>217.80000305176</ele>
        <time>2012-05-04T07:52:04.000Z</time>
      </trkpt>
      <trkpt lat="47.69356" lon="6.03551">
        <ele>218.19999694824</ele>
        <time>2012-05-04T07:52:05.000Z</time>
      </trkpt>
      <trkpt lat="47.69358" lon="6.0355">
        <ele>218.60000610352</ele>
        <time>2012-05-04T07:52:06.000Z</time>
      </trkpt>
      <trkpt lat="47.6936" lon="6.03548">
        <ele>219</ele>
        <time>2012-05-04T07:52:07.000Z</time>
      </trkpt>
      <trkpt lat="47.69376" lon="6.03537">
        <ele>219</ele>
        <time>2012-05-04T07:52:16.000Z</time>
      </trkpt>
      <trkpt lat="47.69384" lon="6.03531">
        <ele>219.39999389648</ele>
        <time>2012-05-04T07:52:21.000Z</time>
      </trkpt>
      <trkpt lat="47.69386" lon="6.03529">
        <ele>219.80000305176</ele>
        <time>2012-05-04T07:52:22.000Z</time>
      </trkpt>
      <trkpt lat="47.69388" lon="6.03528">
        <ele>220.19999694824</ele>
        <time>2012-05-04T07:52:23.000Z</time>
      </trkpt>
      <trkpt lat="47.6939" lon="6.03527">
        <ele>220.60000610352</ele>
        <time>2012-05-04T07:52:24.000Z</time>
      </trkpt>
      <trkpt lat="47.69391" lon="6.03525">
        <ele>221</ele>
        <time>2012-05-04T07:52:25.000Z</time>
      </trkpt>
      <trkpt lat="47.69395" lon="6.0352">
        <ele>221</ele>
        <time>2012-05-04T07:52:28.000Z</time>
      </trkpt>
      <trkpt lat="47.6941" lon="6.03509">
        <ele>221</ele>
        <time>2012-05-04T07:52:36.000Z</time>
      </trkpt>
      <trkpt lat="47.6942" lon="6.035">
        <ele>221.39999389648</ele>
        <time>2012-05-04T07:52:42.000Z</time>
      </trkpt>
      <trkpt lat="47.69422" lon="6.03498">
        <ele>221.80000305176</ele>
        <time>2012-05-04T07:52:43.000Z</time>
      </trkpt>
      <trkpt lat="47.69424" lon="6.03497">
        <ele>222.80000305176</ele>
        <time>2012-05-04T07:52:44.000Z</time>
      </trkpt>
      <trkpt lat="47.69425" lon="6.03495">
        <ele>223.19999694824</ele>
        <time>2012-05-04T07:52:45.000Z</time>
      </trkpt>
      <trkpt lat="47.6943" lon="6.0349">
        <ele>223.19999694824</ele>
        <time>2012-05-04T07:52:48.000Z</time>
      </trkpt>
      <trkpt lat="47.69441" lon="6.0348">
        <ele>223.19999694824</ele>
        <time>2012-05-04T07:52:55.000Z</time>
      </trkpt>
      <trkpt lat="47.6945" lon="6.0347">
        <ele>223.60000610352</ele>
        <time>2012-05-04T07:53:01.000Z</time>
      </trkpt>
      <trkpt lat="47.69452" lon="6.03468">
        <ele>224</ele>
        <time>2012-05-04T07:53:02.000Z</time>
      </trkpt>
      <trkpt lat="47.69453" lon="6.03466">
        <ele>224.39999389648</ele>
        <time>2012-05-04T07:53:03.000Z</time>
      </trkpt>
      <trkpt lat="47.69455" lon="6.03465">
        <ele>224.80000305176</ele>
        <time>2012-05-04T07:53:04.000Z</time>
      </trkpt>
      <trkpt lat="47.69456" lon="6.03463">
        <ele>225.19999694824</ele>
        <time>2012-05-04T07:53:05.000Z</time>
      </trkpt>
      <trkpt lat="47.69467" lon="6.03448">
        <ele>225.19999694824</ele>
        <time>2012-05-04T07:53:13.000Z</time>
      </trkpt>
      <trkpt lat="47.6948" lon="6.0343">
        <ele>225.60000610352</ele>
        <time>2012-05-04T07:53:22.000Z</time>
      </trkpt>
      <trkpt lat="47.69481" lon="6.03428">
        <ele>226</ele>
        <time>2012-05-04T07:53:23.000Z</time>
      </trkpt>
      <trkpt lat="47.69482" lon="6.03425">
        <ele>226.39999389648</ele>
        <time>2012-05-04T07:53:24.000Z</time>
      </trkpt>
      <trkpt lat="47.69483" lon="6.03423">
        <ele>226.80000305176</ele>
        <time>2012-05-04T07:53:25.000Z</time>
      </trkpt>
      <trkpt lat="47.69485" lon="6.03421">
        <ele>227.19999694824</ele>
        <time>2012-05-04T07:53:26.000Z</time>
      </trkpt>
      <trkpt lat="47.6949" lon="6.03412">
        <ele>227.19999694824</ele>
        <time>2012-05-04T07:53:29.000Z</time>
      </trkpt>
      <trkpt lat="47.69503" lon="6.03386">
        <ele>227.19999694824</ele>
        <time>2012-05-04T07:53:35.000Z</time>
      </trkpt>
      <trkpt lat="47.69513" lon="6.03369">
        <ele>226.80000305176</ele>
        <time>2012-05-04T07:53:38.000Z</time>
      </trkpt>
      <trkpt lat="47.69517" lon="6.03363">
        <ele>226.39999389648</ele>
        <time>2012-05-04T07:53:39.000Z</time>
      </trkpt>
      <trkpt lat="47.69521" lon="6.03356">
        <ele>226</ele>
        <time>2012-05-04T07:53:40.000Z</time>
      </trkpt>
      <trkpt lat="47.69525" lon="6.0335">
        <ele>225.60000610352</ele>
        <time>2012-05-04T07:53:41.000Z</time>
      </trkpt>
      <trkpt lat="47.69529" lon="6.03343">
        <ele>225.19999694824</ele>
        <time>2012-05-04T07:53:42.000Z</time>
      </trkpt>
      <trkpt lat="47.69547" lon="6.03307">
        <ele>224.80000305176</ele>
        <time>2012-05-04T07:53:47.000Z</time>
      </trkpt>
      <trkpt lat="47.6955" lon="6.033">
        <ele>224.39999389648</ele>
        <time>2012-05-04T07:53:48.000Z</time>
      </trkpt>
      <trkpt lat="47.69553" lon="6.03294">
        <ele>224</ele>
        <time>2012-05-04T07:53:49.000Z</time>
      </trkpt>
      <trkpt lat="47.69556" lon="6.03288">
        <ele>223.60000610352</ele>
        <time>2012-05-04T07:53:50.000Z</time>
      </trkpt>
      <trkpt lat="47.69559" lon="6.03282">
        <ele>223</ele>
        <time>2012-05-04T07:53:51.000Z</time>
      </trkpt>
      <trkpt lat="47.69561" lon="6.03277">
        <ele>223</ele>
        <time>2012-05-04T07:53:52.000Z</time>
      </trkpt>
      <trkpt lat="47.69566" lon="6.03267">
        <ele>223</ele>
        <time>2012-05-04T07:53:54.000Z</time>
      </trkpt>
      <trkpt lat="47.69579" lon="6.0324">
        <ele>223</ele>
        <time>2012-05-04T07:54:01.000Z</time>
      </trkpt>
      <trkpt lat="47.69592" lon="6.03217">
        <ele>223</ele>
        <time>2012-05-04T07:54:09.000Z</time>
      </trkpt>
      <trkpt lat="47.69594" lon="6.03194">
        <ele>223</ele>
        <time>2012-05-04T07:54:15.000Z</time>
      </trkpt>
      <trkpt lat="47.69593" lon="6.0319">
        <ele>223.39999389648</ele>
        <time>2012-05-04T07:54:16.000Z</time>
      </trkpt>
      <trkpt lat="47.69592" lon="6.03186">
        <ele>223.80000305176</ele>
        <time>2012-05-04T07:54:17.000Z</time>
      </trkpt>
      <trkpt lat="47.69591" lon="6.03182">
        <ele>224.39999389648</ele>
        <time>2012-05-04T07:54:18.000Z</time>
      </trkpt>
      <trkpt lat="47.69591" lon="6.03178">
        <ele>224.80000305176</ele>
        <time>2012-05-04T07:54:19.000Z</time>
      </trkpt>
      <trkpt lat="47.6959" lon="6.03174">
        <ele>225.19999694824</ele>
        <time>2012-05-04T07:54:20.000Z</time>
      </trkpt>
      <trkpt lat="47.69588" lon="6.03166">
        <ele>225.19999694824</ele>
        <time>2012-05-04T07:54:22.000Z</time>
      </trkpt>
      <trkpt lat="47.69583" lon="6.03147">
        <ele>225.19999694824</ele>
        <time>2012-05-04T07:54:27.000Z</time>
      </trkpt>
      <trkpt lat="47.6958" lon="6.03125">
        <ele>225.19999694824</ele>
        <time>2012-05-04T07:54:32.000Z</time>
      </trkpt>
      <trkpt lat="47.69577" lon="6.03098">
        <ele>225.19999694824</ele>
        <time>2012-05-04T07:54:38.000Z</time>
      </trkpt>
      <trkpt lat="47.69572" lon="6.03068">
        <ele>225.19999694824</ele>
        <time>2012-05-04T07:54:44.000Z</time>
      </trkpt>
      <trkpt lat="47.69567" lon="6.03033">
        <ele>225.19999694824</ele>
        <time>2012-05-04T07:54:51.000Z</time>
      </trkpt>
      <trkpt lat="47.69564" lon="6.02999">
        <ele>225.19999694824</ele>
        <time>2012-05-04T07:54:58.000Z</time>
      </trkpt>
      <trkpt lat="47.69562" lon="6.02965">
        <ele>225.19999694824</ele>
        <time>2012-05-04T07:55:05.000Z</time>
      </trkpt>
      <trkpt lat="47.69561" lon="6.02933">
        <ele>225.19999694824</ele>
        <time>2012-05-04T07:55:12.000Z</time>
      </trkpt>
      <trkpt lat="47.6956" lon="6.029">
        <ele>225.19999694824</ele>
        <time>2012-05-04T07:55:19.000Z</time>
      </trkpt>
      <trkpt lat="47.69558" lon="6.02865">
        <ele>225.19999694824</ele>
        <time>2012-05-04T07:55:27.000Z</time>
      </trkpt>
      <trkpt lat="47.69554" lon="6.0283">
        <ele>225.19999694824</ele>
        <time>2012-05-04T07:55:35.000Z</time>
      </trkpt>
      <trkpt lat="47.69546" lon="6.02793">
        <ele>225.19999694824</ele>
        <time>2012-05-04T07:55:44.000Z</time>
      </trkpt>
      <trkpt lat="47.69544" lon="6.02783">
        <ele>225.60000610352</ele>
        <time>2012-05-04T07:55:47.000Z</time>
      </trkpt>
      <trkpt lat="47.69543" lon="6.02779">
        <ele>226</ele>
        <time>2012-05-04T07:55:48.000Z</time>
      </trkpt>
      <trkpt lat="47.69541" lon="6.02776">
        <ele>226.39999389648</ele>
        <time>2012-05-04T07:55:49.000Z</time>
      </trkpt>
      <trkpt lat="47.69541" lon="6.02772">
        <ele>226.80000305176</ele>
        <time>2012-05-04T07:55:50.000Z</time>
      </trkpt>
      <trkpt lat="47.6954" lon="6.02769">
        <ele>227.19999694824</ele>
        <time>2012-05-04T07:55:51.000Z</time>
      </trkpt>
      <trkpt lat="47.6953" lon="6.02735">
        <ele>227.19999694824</ele>
        <time>2012-05-04T07:56:00.000Z</time>
      </trkpt>
      <trkpt lat="47.69529" lon="6.02716">
        <ele>227.19999694824</ele>
        <time>2012-05-04T07:56:05.000Z</time>
      </trkpt>
      <trkpt lat="47.69531" lon="6.02712">
        <ele>227.19999694824</ele>
        <time>2012-05-04T07:56:06.000Z</time>
      </trkpt>
      <trkpt lat="47.69539" lon="6.02702">
        <ele>227.19999694824</ele>
        <time>2012-05-04T07:56:09.000Z</time>
      </trkpt>
      <trkpt lat="47.69546" lon="6.02694">
        <ele>226.80000305176</ele>
        <time>2012-05-04T07:56:11.000Z</time>
      </trkpt>
      <trkpt lat="47.69549" lon="6.0269">
        <ele>226.39999389648</ele>
        <time>2012-05-04T07:56:12.000Z</time>
      </trkpt>
      <trkpt lat="47.69552" lon="6.02685">
        <ele>225.80000305176</ele>
        <time>2012-05-04T07:56:13.000Z</time>
      </trkpt>
      <trkpt lat="47.69555" lon="6.02679">
        <ele>225.39999389648</ele>
        <time>2012-05-04T07:56:14.000Z</time>
      </trkpt>
      <trkpt lat="47.69558" lon="6.02674">
        <ele>225</ele>
        <time>2012-05-04T07:56:15.000Z</time>
      </trkpt>
      <trkpt lat="47.69563" lon="6.02662">
        <ele>225</ele>
        <time>2012-05-04T07:56:17.000Z</time>
      </trkpt>
      <trkpt lat="47.69569" lon="6.02641">
        <ele>225</ele>
        <time>2012-05-04T07:56:20.000Z</time>
      </trkpt>
      <trkpt lat="47.69574" lon="6.02611">
        <ele>224.60000610352</ele>
        <time>2012-05-04T07:56:24.000Z</time>
      </trkpt>
      <trkpt lat="47.69575" lon="6.02604">
        <ele>224.19999694824</ele>
        <time>2012-05-04T07:56:25.000Z</time>
      </trkpt>
      <trkpt lat="47.69576" lon="6.02597">
        <ele>223.39999389648</ele>
        <time>2012-05-04T07:56:26.000Z</time>
      </trkpt>
      <trkpt lat="47.69577" lon="6.0259">
        <ele>223</ele>
        <time>2012-05-04T07:56:27.000Z</time>
      </trkpt>
      <trkpt lat="47.69582" lon="6.02561">
        <ele>223</ele>
        <time>2012-05-04T07:56:31.000Z</time>
      </trkpt>
      <trkpt lat="47.69583" lon="6.02552">
        <ele>222.39999389648</ele>
        <time>2012-05-04T07:56:32.000Z</time>
      </trkpt>
      <trkpt lat="47.69583" lon="6.02545">
        <ele>222</ele>
        <time>2012-05-04T07:56:33.000Z</time>
      </trkpt>
      <trkpt lat="47.69584" lon="6.02537">
        <ele>221.60000610352</ele>
        <time>2012-05-04T07:56:34.000Z</time>
      </trkpt>
      <trkpt lat="47.69585" lon="6.02529">
        <ele>221.19999694824</ele>
        <time>2012-05-04T07:56:35.000Z</time>
      </trkpt>
      <trkpt lat="47.69586" lon="6.0252">
        <ele>220.80000305176</ele>
        <time>2012-05-04T07:56:36.000Z</time>
      </trkpt>
      <trkpt lat="47.69589" lon="6.02495">
        <ele>220.39999389648</ele>
        <time>2012-05-04T07:56:39.000Z</time>
      </trkpt>
      <trkpt lat="47.69591" lon="6.02486">
        <ele>220</ele>
        <time>2012-05-04T07:56:40.000Z</time>
      </trkpt>
      <trkpt lat="47.69594" lon="6.02478">
        <ele>219.60000610352</ele>
        <time>2012-05-04T07:56:41.000Z</time>
      </trkpt>
      <trkpt lat="47.69596" lon="6.0247">
        <ele>219.19999694824</ele>
        <time>2012-05-04T07:56:42.000Z</time>
      </trkpt>
      <trkpt lat="47.69598" lon="6.02463">
        <ele>218.80000305176</ele>
        <time>2012-05-04T07:56:43.000Z</time>
      </trkpt>
      <trkpt lat="47.696" lon="6.02456">
        <ele>218.80000305176</ele>
        <time>2012-05-04T07:56:44.000Z</time>
      </trkpt>
      <trkpt lat="47.69607" lon="6.02436">
        <ele>218.80000305176</ele>
        <time>2012-05-04T07:56:47.000Z</time>
      </trkpt>
      <trkpt lat="47.69611" lon="6.02426">
        <ele>218.80000305176</ele>
        <time>2012-05-04T07:56:49.000Z</time>
      </trkpt>
      <trkpt lat="47.6963" lon="6.02385">
        <ele>218.80000305176</ele>
        <time>2012-05-04T07:56:58.000Z</time>
      </trkpt>
      <trkpt lat="47.69644" lon="6.02362">
        <ele>218.80000305176</ele>
        <time>2012-05-04T07:57:04.000Z</time>
      </trkpt>
      <trkpt lat="47.69663" lon="6.02345">
        <ele>218.80000305176</ele>
        <time>2012-05-04T07:57:11.000Z</time>
      </trkpt>
      <trkpt lat="47.69681" lon="6.02336">
        <ele>218.80000305176</ele>
        <time>2012-05-04T07:57:18.000Z</time>
      </trkpt>
      <trkpt lat="47.69692" lon="6.0233">
        <ele>219.19999694824</ele>
        <time>2012-05-04T07:57:23.000Z</time>
      </trkpt>
      <trkpt lat="47.69693" lon="6.02328">
        <ele>219.60000610352</ele>
        <time>2012-05-04T07:57:24.000Z</time>
      </trkpt>
      <trkpt lat="47.69695" lon="6.02326">
        <ele>220</ele>
        <time>2012-05-04T07:57:25.000Z</time>
      </trkpt>
      <trkpt lat="47.69698" lon="6.02324">
        <ele>220.39999389648</ele>
        <time>2012-05-04T07:57:26.000Z</time>
      </trkpt>
      <trkpt lat="47.69701" lon="6.02323">
        <ele>221</ele>
        <time>2012-05-04T07:57:27.000Z</time>
      </trkpt>
      <trkpt lat="47.69707" lon="6.02321">
        <ele>221</ele>
        <time>2012-05-04T07:57:29.000Z</time>
      </trkpt>
      <trkpt lat="47.69724" lon="6.02315">
        <ele>221</ele>
        <time>2012-05-04T07:57:36.000Z</time>
      </trkpt>
      <trkpt lat="47.69728" lon="6.02314">
        <ele>221.39999389648</ele>
        <time>2012-05-04T07:57:38.000Z</time>
      </trkpt>
      <trkpt lat="47.6973" lon="6.02314">
        <ele>221.80000305176</ele>
        <time>2012-05-04T07:57:39.000Z</time>
      </trkpt>
      <trkpt lat="47.69732" lon="6.02313">
        <ele>222.19999694824</ele>
        <time>2012-05-04T07:57:40.000Z</time>
      </trkpt>
      <trkpt lat="47.69735" lon="6.02313">
        <ele>223</ele>
        <time>2012-05-04T07:57:41.000Z</time>
      </trkpt>
      <trkpt lat="47.69741" lon="6.02311">
        <ele>223</ele>
        <time>2012-05-04T07:57:44.000Z</time>
      </trkpt>
      <trkpt lat="47.69761" lon="6.02309">
        <ele>223</ele>
        <time>2012-05-04T07:57:53.000Z</time>
      </trkpt>
      <trkpt lat="47.69779" lon="6.02307">
        <ele>223</ele>
        <time>2012-05-04T07:58:01.000Z</time>
      </trkpt>
      <trkpt lat="47.69783" lon="6.02307">
        <ele>223.39999389648</ele>
        <time>2012-05-04T07:58:03.000Z</time>
      </trkpt>
      <trkpt lat="47.69785" lon="6.02307">
        <ele>223.80000305176</ele>
        <time>2012-05-04T07:58:04.000Z</time>
      </trkpt>
      <trkpt lat="47.69787" lon="6.02306">
        <ele>224.19999694824</ele>
        <time>2012-05-04T07:58:05.000Z</time>
      </trkpt>
      <trkpt lat="47.69789" lon="6.02305">
        <ele>225</ele>
        <time>2012-05-04T07:58:06.000Z</time>
      </trkpt>
      <trkpt lat="47.69799" lon="6.02302">
        <ele>225</ele>
        <time>2012-05-04T07:58:10.000Z</time>
      </trkpt>
      <trkpt lat="47.69818" lon="6.02294">
        <ele>225</ele>
        <time>2012-05-04T07:58:19.000Z</time>
      </trkpt>
      <trkpt lat="47.69835" lon="6.02283">
        <ele>225</ele>
        <time>2012-05-04T07:58:27.000Z</time>
      </trkpt>
      <trkpt lat="47.69852" lon="6.02271">
        <ele>225</ele>
        <time>2012-05-04T07:58:34.000Z</time>
      </trkpt>
      <trkpt lat="47.69867" lon="6.02251">
        <ele>225</ele>
        <time>2012-05-04T07:58:41.000Z</time>
      </trkpt>
      <trkpt lat="47.69881" lon="6.02218">
        <ele>225</ele>
        <time>2012-05-04T07:58:49.000Z</time>
      </trkpt>
      <trkpt lat="47.69893" lon="6.0218">
        <ele>225</ele>
        <time>2012-05-04T07:58:56.000Z</time>
      </trkpt>
      <trkpt lat="47.69902" lon="6.02145">
        <ele>225</ele>
        <time>2012-05-04T07:59:03.000Z</time>
      </trkpt>
      <trkpt lat="47.69915" lon="6.02125">
        <ele>225</ele>
        <time>2012-05-04T07:59:09.000Z</time>
      </trkpt>
      <trkpt lat="47.69928" lon="6.02108">
        <ele>225</ele>
        <time>2012-05-04T07:59:15.000Z</time>
      </trkpt>
      <trkpt lat="47.69938" lon="6.02095">
        <ele>225</ele>
        <time>2012-05-04T07:59:20.000Z</time>
      </trkpt>
      <trkpt lat="47.69941" lon="6.02089">
        <ele>225</ele>
        <time>2012-05-04T07:59:22.000Z</time>
      </trkpt>
      <trkpt lat="47.69946" lon="6.02084">
        <ele>225</ele>
        <time>2012-05-04T07:59:24.000Z</time>
      </trkpt>
      <trkpt lat="47.69959" lon="6.02068">
        <ele>225</ele>
        <time>2012-05-04T07:59:30.000Z</time>
      </trkpt>
      <trkpt lat="47.69973" lon="6.02053">
        <ele>225</ele>
        <time>2012-05-04T07:59:36.000Z</time>
      </trkpt>
      <trkpt lat="47.6999" lon="6.02037">
        <ele>225</ele>
        <time>2012-05-04T07:59:42.000Z</time>
      </trkpt>
      <trkpt lat="47.70004" lon="6.02021">
        <ele>225</ele>
        <time>2012-05-04T07:59:46.000Z</time>
      </trkpt>
      <trkpt lat="47.70007" lon="6.02016">
        <ele>225</ele>
        <time>2012-05-04T07:59:47.000Z</time>
      </trkpt>
      <trkpt lat="47.70032" lon="6.01974">
        <ele>225</ele>
        <time>2012-05-04T07:59:53.000Z</time>
      </trkpt>
      <trkpt lat="47.70041" lon="6.01956">
        <ele>225</ele>
        <time>2012-05-04T07:59:56.000Z</time>
      </trkpt>
      <trkpt lat="47.70047" lon="6.01945">
        <ele>225</ele>
        <time>2012-05-04T07:59:58.000Z</time>
      </trkpt>
      <trkpt lat="47.70059" lon="6.01931">
        <ele>224.60000610352</ele>
        <time>2012-05-04T08:00:02.000Z</time>
      </trkpt>
      <trkpt lat="47.70061" lon="6.01928">
        <ele>224.19999694824</ele>
        <time>2012-05-04T08:00:03.000Z</time>
      </trkpt>
      <trkpt lat="47.70064" lon="6.01926">
        <ele>223.80000305176</ele>
        <time>2012-05-04T08:00:04.000Z</time>
      </trkpt>
      <trkpt lat="47.70066" lon="6.01923">
        <ele>223.39999389648</ele>
        <time>2012-05-04T08:00:05.000Z</time>
      </trkpt>
      <trkpt lat="47.70068" lon="6.01921">
        <ele>223</ele>
        <time>2012-05-04T08:00:06.000Z</time>
      </trkpt>
      <trkpt lat="47.70075" lon="6.01912">
        <ele>223</ele>
        <time>2012-05-04T08:00:10.000Z</time>
      </trkpt>
      <trkpt lat="47.70085" lon="6.01902">
        <ele>223</ele>
        <time>2012-05-04T08:00:17.000Z</time>
      </trkpt>
      <trkpt lat="47.70093" lon="6.01891">
        <ele>223.39999389648</ele>
        <time>2012-05-04T08:00:23.000Z</time>
      </trkpt>
      <trkpt lat="47.70095" lon="6.0189">
        <ele>223.80000305176</ele>
        <time>2012-05-04T08:00:24.000Z</time>
      </trkpt>
      <trkpt lat="47.70096" lon="6.01888">
        <ele>224.19999694824</ele>
        <time>2012-05-04T08:00:25.000Z</time>
      </trkpt>
      <trkpt lat="47.70098" lon="6.01887">
        <ele>224.60000610352</ele>
        <time>2012-05-04T08:00:26.000Z</time>
      </trkpt>
      <trkpt lat="47.70099" lon="6.01885">
        <ele>225</ele>
        <time>2012-05-04T08:00:27.000Z</time>
      </trkpt>
      <trkpt lat="47.70102" lon="6.0188">
        <ele>225</ele>
        <time>2012-05-04T08:00:30.000Z</time>
      </trkpt>
      <trkpt lat="47.70108" lon="6.0187">
        <ele>225</ele>
        <time>2012-05-04T08:00:36.000Z</time>
      </trkpt>
      <trkpt lat="47.70109" lon="6.01865">
        <ele>225.39999389648</ele>
        <time>2012-05-04T08:00:39.000Z</time>
      </trkpt>
      <trkpt lat="47.7011" lon="6.01863">
        <ele>225.80000305176</ele>
        <time>2012-05-04T08:00:40.000Z</time>
      </trkpt>
      <trkpt lat="47.70111" lon="6.01862">
        <ele>226.19999694824</ele>
        <time>2012-05-04T08:00:41.000Z</time>
      </trkpt>
      <trkpt lat="47.70112" lon="6.0186">
        <ele>226.60000610352</ele>
        <time>2012-05-04T08:00:42.000Z</time>
      </trkpt>
      <trkpt lat="47.70114" lon="6.01858">
        <ele>227</ele>
        <time>2012-05-04T08:00:43.000Z</time>
      </trkpt>
      <trkpt lat="47.70121" lon="6.01848">
        <ele>227</ele>
        <time>2012-05-04T08:00:47.000Z</time>
      </trkpt>
      <trkpt lat="47.70127" lon="6.01837">
        <ele>227</ele>
        <time>2012-05-04T08:00:52.000Z</time>
      </trkpt>
      <trkpt lat="47.70135" lon="6.01823">
        <ele>227</ele>
        <time>2012-05-04T08:00:58.000Z</time>
      </trkpt>
      <trkpt lat="47.70137" lon="6.0182">
        <ele>227.39999389648</ele>
        <time>2012-05-04T08:00:59.000Z</time>
      </trkpt>
      <trkpt lat="47.70139" lon="6.0182">
        <ele>227.80000305176</ele>
        <time>2012-05-04T08:01:00.000Z</time>
      </trkpt>
      <trkpt lat="47.70139" lon="6.01817">
        <ele>228.39999389648</ele>
        <time>2012-05-04T08:01:01.000Z</time>
      </trkpt>
      <trkpt lat="47.70141" lon="6.01815">
        <ele>228.80000305176</ele>
        <time>2012-05-04T08:01:02.000Z</time>
      </trkpt>
      <trkpt lat="47.70143" lon="6.01813">
        <ele>229.19999694824</ele>
        <time>2012-05-04T08:01:03.000Z</time>
      </trkpt>
      <trkpt lat="47.70151" lon="6.01799">
        <ele>229.19999694824</ele>
        <time>2012-05-04T08:01:08.000Z</time>
      </trkpt>
      <trkpt lat="47.70152" lon="6.01795">
        <ele>229.19999694824</ele>
        <time>2012-05-04T08:01:10.000Z</time>
      </trkpt>
      <trkpt lat="47.70154" lon="6.01792">
        <ele>229.19999694824</ele>
        <time>2012-05-04T08:01:11.000Z</time>
      </trkpt>
      <trkpt lat="47.70156" lon="6.0179">
        <ele>229.19999694824</ele>
        <time>2012-05-04T08:01:12.000Z</time>
      </trkpt>
      <trkpt lat="47.70161" lon="6.0178">
        <ele>229.19999694824</ele>
        <time>2012-05-04T08:01:16.000Z</time>
      </trkpt>
      <trkpt lat="47.70165" lon="6.01776">
        <ele>229.19999694824</ele>
        <time>2012-05-04T08:01:18.000Z</time>
      </trkpt>
      <trkpt lat="47.7017" lon="6.01769">
        <ele>229.19999694824</ele>
        <time>2012-05-04T08:01:21.000Z</time>
      </trkpt>
      <trkpt lat="47.70177" lon="6.01758">
        <ele>229.19999694824</ele>
        <time>2012-05-04T08:01:27.000Z</time>
      </trkpt>
      <trkpt lat="47.70181" lon="6.01744">
        <ele>229.19999694824</ele>
        <time>2012-05-04T08:01:34.000Z</time>
      </trkpt>
      <trkpt lat="47.7018" lon="6.01739">
        <ele>229.19999694824</ele>
        <time>2012-05-04T08:01:36.000Z</time>
      </trkpt>
      <trkpt lat="47.70181" lon="6.01734">
        <ele>229.19999694824</ele>
        <time>2012-05-04T08:01:39.000Z</time>
      </trkpt>
      <trkpt lat="47.70189" lon="6.01719">
        <ele>229.19999694824</ele>
        <time>2012-05-04T08:01:44.000Z</time>
      </trkpt>
      <trkpt lat="47.70191" lon="6.01716">
        <ele>229.19999694824</ele>
        <time>2012-05-04T08:01:45.000Z</time>
      </trkpt>
      <trkpt lat="47.70199" lon="6.01704">
        <ele>229.19999694824</ele>
        <time>2012-05-04T08:01:49.000Z</time>
      </trkpt>
      <trkpt lat="47.70201" lon="6.01701">
        <ele>229.19999694824</ele>
        <time>2012-05-04T08:01:50.000Z</time>
      </trkpt>
      <trkpt lat="47.70208" lon="6.01692">
        <ele>229.19999694824</ele>
        <time>2012-05-04T08:01:54.000Z</time>
      </trkpt>
      <trkpt lat="47.70216" lon="6.01679">
        <ele>229.19999694824</ele>
        <time>2012-05-04T08:01:58.000Z</time>
      </trkpt>
      <trkpt lat="47.70221" lon="6.01674">
        <ele>229.19999694824</ele>
        <time>2012-05-04T08:02:00.000Z</time>
      </trkpt>
      <trkpt lat="47.70224" lon="6.01671">
        <ele>229.19999694824</ele>
        <time>2012-05-04T08:02:03.000Z</time>
      </trkpt>
      <trkpt lat="47.70224" lon="6.01669">
        <ele>229.19999694824</ele>
        <time>2012-05-04T08:02:06.000Z</time>
      </trkpt>
      <trkpt lat="47.70224" lon="6.01668">
        <ele>229.19999694824</ele>
        <time>2012-05-04T08:02:07.000Z</time>
      </trkpt>
      <trkpt lat="47.70225" lon="6.01663">
        <ele>229.19999694824</ele>
        <time>2012-05-04T08:02:09.000Z</time>
      </trkpt>
      <trkpt lat="47.70229" lon="6.01657">
        <ele>229.19999694824</ele>
        <time>2012-05-04T08:02:12.000Z</time>
      </trkpt>
      <trkpt lat="47.70235" lon="6.01645">
        <ele>229.19999694824</ele>
        <time>2012-05-04T08:02:17.000Z</time>
      </trkpt>
      <trkpt lat="47.70237" lon="6.01634">
        <ele>229.19999694824</ele>
        <time>2012-05-04T08:02:21.000Z</time>
      </trkpt>
      <trkpt lat="47.70236" lon="6.0163">
        <ele>229.19999694824</ele>
        <time>2012-05-04T08:02:26.000Z</time>
      </trkpt>
      <trkpt lat="47.70235" lon="6.01626">
        <ele>229.19999694824</ele>
        <time>2012-05-04T08:02:29.000Z</time>
      </trkpt>
      <trkpt lat="47.7024" lon="6.01623">
        <ele>229.19999694824</ele>
        <time>2012-05-04T08:02:43.000Z</time>
      </trkpt>
      <trkpt lat="47.70241" lon="6.01623">
        <ele>229.19999694824</ele>
        <time>2012-05-04T08:02:45.000Z</time>
      </trkpt>
      <trkpt lat="47.70241" lon="6.01623">
        <ele>229.19999694824</ele>
        <time>2012-05-04T08:02:46.000Z</time>
      </trkpt>
      <trkpt lat="47.70244" lon="6.01622">
        <ele>229.19999694824</ele>
        <time>2012-05-04T08:02:49.000Z</time>
      </trkpt>
      <trkpt lat="47.70244" lon="6.01622">
        <ele>229.19999694824</ele>
        <time>2012-05-04T08:02:51.000Z</time>
      </trkpt>
      <trkpt lat="47.70244" lon="6.01621">
        <ele>229.19999694824</ele>
        <time>2012-05-04T08:02:52.000Z</time>
      </trkpt>
      <trkpt lat="47.70245" lon="6.0162">
        <ele>229.19999694824</ele>
        <time>2012-05-04T08:02:55.000Z</time>
      </trkpt>
      <trkpt lat="47.7025" lon="6.01616">
        <ele>229.19999694824</ele>
        <time>2012-05-04T08:02:58.000Z</time>
      </trkpt>
      <trkpt lat="47.70258" lon="6.01606">
        <ele>229.19999694824</ele>
        <time>2012-05-04T08:03:04.000Z</time>
      </trkpt>
      <trkpt lat="47.7026" lon="6.01603">
        <ele>228.80000305176</ele>
        <time>2012-05-04T08:03:06.000Z</time>
      </trkpt>
      <trkpt lat="47.70261" lon="6.016">
        <ele>228.39999389648</ele>
        <time>2012-05-04T08:03:07.000Z</time>
      </trkpt>
      <trkpt lat="47.70262" lon="6.01598">
        <ele>228</ele>
        <time>2012-05-04T08:03:08.000Z</time>
      </trkpt>
      <trkpt lat="47.70263" lon="6.01595">
        <ele>227.39999389648</ele>
        <time>2012-05-04T08:03:09.000Z</time>
      </trkpt>
      <trkpt lat="47.70265" lon="6.01592">
        <ele>227</ele>
        <time>2012-05-04T08:03:10.000Z</time>
      </trkpt>
      <trkpt lat="47.70275" lon="6.01571">
        <ele>227</ele>
        <time>2012-05-04T08:03:17.000Z</time>
      </trkpt>
      <trkpt lat="47.70279" lon="6.01563">
        <ele>227</ele>
        <time>2012-05-04T08:03:21.000Z</time>
      </trkpt>
      <trkpt lat="47.7028" lon="6.01563">
        <ele>227</ele>
        <time>2012-05-04T08:03:22.000Z</time>
      </trkpt>
      <trkpt lat="47.7028" lon="6.01558">
        <ele>227</ele>
        <time>2012-05-04T08:03:44.000Z</time>
      </trkpt>
      <trkpt lat="47.70285" lon="6.01553">
        <ele>227</ele>
        <time>2012-05-04T08:03:47.000Z</time>
      </trkpt>
      <trkpt lat="47.70291" lon="6.01543">
        <ele>227</ele>
        <time>2012-05-04T08:03:52.000Z</time>
      </trkpt>
      <trkpt lat="47.70292" lon="6.01539">
        <ele>226.60000610352</ele>
        <time>2012-05-04T08:03:54.000Z</time>
      </trkpt>
      <trkpt lat="47.70292" lon="6.01538">
        <ele>226.19999694824</ele>
        <time>2012-05-04T08:03:55.000Z</time>
      </trkpt>
      <trkpt lat="47.70292" lon="6.01537">
        <ele>225.80000305176</ele>
        <time>2012-05-04T08:03:56.000Z</time>
      </trkpt>
      <trkpt lat="47.70292" lon="6.01535">
        <ele>225.39999389648</ele>
        <time>2012-05-04T08:03:57.000Z</time>
      </trkpt>
      <trkpt lat="47.70292" lon="6.01532">
        <ele>225</ele>
        <time>2012-05-04T08:03:58.000Z</time>
      </trkpt>
      <trkpt lat="47.70292" lon="6.0153">
        <ele>225</ele>
        <time>2012-05-04T08:03:59.000Z</time>
      </trkpt>
      <trkpt lat="47.70293" lon="6.01523">
        <ele>225</ele>
        <time>2012-05-04T08:04:02.000Z</time>
      </trkpt>
      <trkpt lat="47.70296" lon="6.01514">
        <ele>225</ele>
        <time>2012-05-04T08:04:05.000Z</time>
      </trkpt>
      <trkpt lat="47.70298" lon="6.0151">
        <ele>225</ele>
        <time>2012-05-04T08:04:07.000Z</time>
      </trkpt>
      <trkpt lat="47.70301" lon="6.01504">
        <ele>225</ele>
        <time>2012-05-04T08:04:10.000Z</time>
      </trkpt>
      <trkpt lat="47.70308" lon="6.015">
        <ele>225</ele>
        <time>2012-05-04T08:04:15.000Z</time>
      </trkpt>
      <trkpt lat="47.70312" lon="6.01499">
        <ele>225</ele>
        <time>2012-05-04T08:04:20.000Z</time>
      </trkpt>
      <trkpt lat="47.70311" lon="6.01496">
        <ele>225</ele>
        <time>2012-05-04T08:04:22.000Z</time>
      </trkpt>
      <trkpt lat="47.70313" lon="6.01488">
        <ele>225</ele>
        <time>2012-05-04T08:04:25.000Z</time>
      </trkpt>
      <trkpt lat="47.70315" lon="6.01485">
        <ele>225</ele>
        <time>2012-05-04T08:04:26.000Z</time>
      </trkpt>
      <trkpt lat="47.70321" lon="6.01477">
        <ele>225</ele>
        <time>2012-05-04T08:04:30.000Z</time>
      </trkpt>
      <trkpt lat="47.70323" lon="6.01475">
        <ele>225</ele>
        <time>2012-05-04T08:04:31.000Z</time>
      </trkpt>
      <trkpt lat="47.7033" lon="6.01461">
        <ele>225</ele>
        <time>2012-05-04T08:04:38.000Z</time>
      </trkpt>
      <trkpt lat="47.70331" lon="6.01454">
        <ele>225</ele>
        <time>2012-05-04T08:04:41.000Z</time>
      </trkpt>
      <trkpt lat="47.7033" lon="6.0145">
        <ele>225</ele>
        <time>2012-05-04T08:04:43.000Z</time>
      </trkpt>
      <trkpt lat="47.70329" lon="6.01449">
        <ele>225</ele>
        <time>2012-05-04T08:04:44.000Z</time>
      </trkpt>
      <trkpt lat="47.70322" lon="6.01444">
        <ele>225</ele>
        <time>2012-05-04T08:04:48.000Z</time>
      </trkpt>
      <trkpt lat="47.70314" lon="6.01439">
        <ele>225</ele>
        <time>2012-05-04T08:04:53.000Z</time>
      </trkpt>
      <trkpt lat="47.70305" lon="6.01432">
        <ele>225</ele>
        <time>2012-05-04T08:04:58.000Z</time>
      </trkpt>
      <trkpt lat="47.70299" lon="6.01422">
        <ele>225</ele>
        <time>2012-05-04T08:05:04.000Z</time>
      </trkpt>
      <trkpt lat="47.70288" lon="6.01414">
        <ele>225</ele>
        <time>2012-05-04T08:05:10.000Z</time>
      </trkpt>
      <trkpt lat="47.70277" lon="6.01414">
        <ele>225</ele>
        <time>2012-05-04T08:05:15.000Z</time>
      </trkpt>
      <trkpt lat="47.70263" lon="6.01416">
        <ele>225</ele>
        <time>2012-05-04T08:05:20.000Z</time>
      </trkpt>
      <trkpt lat="47.7026" lon="6.01416">
        <ele>225</ele>
        <time>2012-05-04T08:05:21.000Z</time>
      </trkpt>
      <trkpt lat="47.70241" lon="6.01418">
        <ele>225</ele>
        <time>2012-05-04T08:05:27.000Z</time>
      </trkpt>
      <trkpt lat="47.70228" lon="6.01417">
        <ele>225</ele>
        <time>2012-05-04T08:05:32.000Z</time>
      </trkpt>
      <trkpt lat="47.70215" lon="6.01414">
        <ele>225</ele>
        <time>2012-05-04T08:05:38.000Z</time>
      </trkpt>
      <trkpt lat="47.70203" lon="6.0141">
        <ele>225</ele>
        <time>2012-05-04T08:05:44.000Z</time>
      </trkpt>
      <trkpt lat="47.70192" lon="6.01405">
        <ele>225</ele>
        <time>2012-05-04T08:05:50.000Z</time>
      </trkpt>
      <trkpt lat="47.70186" lon="6.01403">
        <ele>225.39999389648</ele>
        <time>2012-05-04T08:05:54.000Z</time>
      </trkpt>
      <trkpt lat="47.70184" lon="6.01403">
        <ele>226.19999694824</ele>
        <time>2012-05-04T08:05:55.000Z</time>
      </trkpt>
      <trkpt lat="47.70182" lon="6.01401">
        <ele>226.60000610352</ele>
        <time>2012-05-04T08:05:56.000Z</time>
      </trkpt>
      <trkpt lat="47.7018" lon="6.014">
        <ele>227</ele>
        <time>2012-05-04T08:05:57.000Z</time>
      </trkpt>
      <trkpt lat="47.70172" lon="6.01396">
        <ele>227</ele>
        <time>2012-05-04T08:06:01.000Z</time>
      </trkpt>
      <trkpt lat="47.70164" lon="6.01394">
        <ele>227</ele>
        <time>2012-05-04T08:06:07.000Z</time>
      </trkpt>
      <trkpt lat="47.70162" lon="6.01393">
        <ele>227</ele>
        <time>2012-05-04T08:06:08.000Z</time>
      </trkpt>
      <trkpt lat="47.70149" lon="6.01386">
        <ele>227</ele>
        <time>2012-05-04T08:06:13.000Z</time>
      </trkpt>
      <trkpt lat="47.70139" lon="6.01384">
        <ele>227</ele>
        <time>2012-05-04T08:06:18.000Z</time>
      </trkpt>
      <trkpt lat="47.70135" lon="6.01383">
        <ele>227</ele>
        <time>2012-05-04T08:06:20.000Z</time>
      </trkpt>
      <trkpt lat="47.70127" lon="6.01383">
        <ele>227</ele>
        <time>2012-05-04T08:06:23.000Z</time>
      </trkpt>
      <trkpt lat="47.70117" lon="6.01381">
        <ele>227.39999389648</ele>
        <time>2012-05-04T08:06:27.000Z</time>
      </trkpt>
      <trkpt lat="47.70115" lon="6.0138">
        <ele>228</ele>
        <time>2012-05-04T08:06:28.000Z</time>
      </trkpt>
      <trkpt lat="47.70113" lon="6.01379">
        <ele>228.39999389648</ele>
        <time>2012-05-04T08:06:29.000Z</time>
      </trkpt>
      <trkpt lat="47.70111" lon="6.01378">
        <ele>228.80000305176</ele>
        <time>2012-05-04T08:06:30.000Z</time>
      </trkpt>
      <trkpt lat="47.70109" lon="6.01376">
        <ele>229.19999694824</ele>
        <time>2012-05-04T08:06:31.000Z</time>
      </trkpt>
      <trkpt lat="47.70103" lon="6.01371">
        <ele>229.19999694824</ele>
        <time>2012-05-04T08:06:34.000Z</time>
      </trkpt>
      <trkpt lat="47.70093" lon="6.01357">
        <ele>229.19999694824</ele>
        <time>2012-05-04T08:06:40.000Z</time>
      </trkpt>
      <trkpt lat="47.70083" lon="6.01342">
        <ele>229.19999694824</ele>
        <time>2012-05-04T08:06:46.000Z</time>
      </trkpt>
      <trkpt lat="47.70072" lon="6.01325">
        <ele>229.19999694824</ele>
        <time>2012-05-04T08:06:52.000Z</time>
      </trkpt>
      <trkpt lat="47.7006" lon="6.01308">
        <ele>229.19999694824</ele>
        <time>2012-05-04T08:07:00.000Z</time>
      </trkpt>
      <trkpt lat="47.70055" lon="6.013">
        <ele>229.60000610352</ele>
        <time>2012-05-04T08:07:05.000Z</time>
      </trkpt>
      <trkpt lat="47.70055" lon="6.01298">
        <ele>230</ele>
        <time>2012-05-04T08:07:06.000Z</time>
      </trkpt>
      <trkpt lat="47.70054" lon="6.01297">
        <ele>230.39999389648</ele>
        <time>2012-05-04T08:07:07.000Z</time>
      </trkpt>
      <trkpt lat="47.70052" lon="6.01295">
        <ele>230.80000305176</ele>
        <time>2012-05-04T08:07:08.000Z</time>
      </trkpt>
      <trkpt lat="47.70051" lon="6.01294">
        <ele>231.19999694824</ele>
        <time>2012-05-04T08:07:09.000Z</time>
      </trkpt>
      <trkpt lat="47.70048" lon="6.01289">
        <ele>231.19999694824</ele>
        <time>2012-05-04T08:07:11.000Z</time>
      </trkpt>
      <trkpt lat="47.7004" lon="6.01274">
        <ele>231.19999694824</ele>
        <time>2012-05-04T08:07:17.000Z</time>
      </trkpt>
      <trkpt lat="47.70034" lon="6.01267">
        <ele>231.60000610352</ele>
        <time>2012-05-04T08:07:22.000Z</time>
      </trkpt>
      <trkpt lat="47.70033" lon="6.01266">
        <ele>232</ele>
        <time>2012-05-04T08:07:23.000Z</time>
      </trkpt>
      <trkpt lat="47.70033" lon="6.01265">
        <ele>232.39999389648</ele>
        <time>2012-05-04T08:07:24.000Z</time>
      </trkpt>
      <trkpt lat="47.70033" lon="6.01263">
        <ele>232.80000305176</ele>
        <time>2012-05-04T08:07:25.000Z</time>
      </trkpt>
      <trkpt lat="47.70032" lon="6.01263">
        <ele>233.19999694824</ele>
        <time>2012-05-04T08:07:26.000Z</time>
      </trkpt>
      <trkpt lat="47.70032" lon="6.01262">
        <ele>233.19999694824</ele>
        <time>2012-05-04T08:07:27.000Z</time>
      </trkpt>
      <trkpt lat="47.70028" lon="6.01257">
        <ele>233.19999694824</ele>
        <time>2012-05-04T08:07:30.000Z</time>
      </trkpt>
      <trkpt lat="47.70024" lon="6.01252">
        <ele>233.19999694824</ele>
        <time>2012-05-04T08:07:33.000Z</time>
      </trkpt>
      <trkpt lat="47.70016" lon="6.01238">
        <ele>233.19999694824</ele>
        <time>2012-05-04T08:07:40.000Z</time>
      </trkpt>
      <trkpt lat="47.70012" lon="6.01231">
        <ele>233.60000610352</ele>
        <time>2012-05-04T08:07:43.000Z</time>
      </trkpt>
      <trkpt lat="47.70011" lon="6.01229">
        <ele>234</ele>
        <time>2012-05-04T08:07:44.000Z</time>
      </trkpt>
      <trkpt lat="47.70009" lon="6.01226">
        <ele>234.39999389648</ele>
        <time>2012-05-04T08:07:45.000Z</time>
      </trkpt>
      <trkpt lat="47.70008" lon="6.01224">
        <ele>234.80000305176</ele>
        <time>2012-05-04T08:07:46.000Z</time>
      </trkpt>
      <trkpt lat="47.70007" lon="6.01222">
        <ele>235.19999694824</ele>
        <time>2012-05-04T08:07:47.000Z</time>
      </trkpt>
      <trkpt lat="47.70005" lon="6.0122">
        <ele>235.19999694824</ele>
        <time>2012-05-04T08:07:48.000Z</time>
      </trkpt>
      <trkpt lat="47.7" lon="6.01209">
        <ele>235.19999694824</ele>
        <time>2012-05-04T08:07:54.000Z</time>
      </trkpt>
      <trkpt lat="47.69991" lon="6.01192">
        <ele>235.19999694824</ele>
        <time>2012-05-04T08:08:01.000Z</time>
      </trkpt>
      <trkpt lat="47.69984" lon="6.01178">
        <ele>235.19999694824</ele>
        <time>2012-05-04T08:08:07.000Z</time>
      </trkpt>
      <trkpt lat="47.69982" lon="6.01173">
        <ele>235.19999694824</ele>
        <time>2012-05-04T08:08:09.000Z</time>
      </trkpt>
      <trkpt lat="47.69978" lon="6.01169">
        <ele>235.60000610352</ele>
        <time>2012-05-04T08:08:12.000Z</time>
      </trkpt>
      <trkpt lat="47.69977" lon="6.01166">
        <ele>236.19999694824</ele>
        <time>2012-05-04T08:08:13.000Z</time>
      </trkpt>
      <trkpt lat="47.69977" lon="6.01165">
        <ele>236.60000610352</ele>
        <time>2012-05-04T08:08:14.000Z</time>
      </trkpt>
      <trkpt lat="47.69976" lon="6.01163">
        <ele>237</ele>
        <time>2012-05-04T08:08:15.000Z</time>
      </trkpt>
      <trkpt lat="47.69975" lon="6.01161">
        <ele>237.39999389648</ele>
        <time>2012-05-04T08:08:16.000Z</time>
      </trkpt>
      <trkpt lat="47.69973" lon="6.01159">
        <ele>237.39999389648</ele>
        <time>2012-05-04T08:08:17.000Z</time>
      </trkpt>
      <trkpt lat="47.6997" lon="6.01156">
        <ele>237.39999389648</ele>
        <time>2012-05-04T08:08:20.000Z</time>
      </trkpt>
      <trkpt lat="47.69969" lon="6.01155">
        <ele>237.39999389648</ele>
        <time>2012-05-04T08:08:21.000Z</time>
      </trkpt>
      <trkpt lat="47.69967" lon="6.0115">
        <ele>237.80000305176</ele>
        <time>2012-05-04T08:08:25.000Z</time>
      </trkpt>
      <trkpt lat="47.69966" lon="6.01148">
        <ele>238.19999694824</ele>
        <time>2012-05-04T08:08:26.000Z</time>
      </trkpt>
      <trkpt lat="47.69966" lon="6.01147">
        <ele>238.60000610352</ele>
        <time>2012-05-04T08:08:27.000Z</time>
      </trkpt>
      <trkpt lat="47.69965" lon="6.01146">
        <ele>239</ele>
        <time>2012-05-04T08:08:28.000Z</time>
      </trkpt>
      <trkpt lat="47.69964" lon="6.01144">
        <ele>239.39999389648</ele>
        <time>2012-05-04T08:08:29.000Z</time>
      </trkpt>
      <trkpt lat="47.6996" lon="6.01138">
        <ele>239.39999389648</ele>
        <time>2012-05-04T08:08:33.000Z</time>
      </trkpt>
      <trkpt lat="47.69953" lon="6.01126">
        <ele>239.39999389648</ele>
        <time>2012-05-04T08:08:39.000Z</time>
      </trkpt>
      <trkpt lat="47.6995" lon="6.01123">
        <ele>239.80000305176</ele>
        <time>2012-05-04T08:08:41.000Z</time>
      </trkpt>
      <trkpt lat="47.69949" lon="6.01121">
        <ele>240.19999694824</ele>
        <time>2012-05-04T08:08:42.000Z</time>
      </trkpt>
      <trkpt lat="47.69947" lon="6.01119">
        <ele>240.60000610352</ele>
        <time>2012-05-04T08:08:43.000Z</time>
      </trkpt>
      <trkpt lat="47.69946" lon="6.01117">
        <ele>241</ele>
        <time>2012-05-04T08:08:44.000Z</time>
      </trkpt>
      <trkpt lat="47.69945" lon="6.01116">
        <ele>241.39999389648</ele>
        <time>2012-05-04T08:08:45.000Z</time>
      </trkpt>
      <trkpt lat="47.69944" lon="6.01114">
        <ele>241.39999389648</ele>
        <time>2012-05-04T08:08:46.000Z</time>
      </trkpt>
      <trkpt lat="47.69943" lon="6.01113">
        <ele>241.39999389648</ele>
        <time>2012-05-04T08:08:47.000Z</time>
      </trkpt>
      <trkpt lat="47.69939" lon="6.01106">
        <ele>241.39999389648</ele>
        <time>2012-05-04T08:08:52.000Z</time>
      </trkpt>
      <trkpt lat="47.69935" lon="6.01099">
        <ele>241.39999389648</ele>
        <time>2012-05-04T08:08:57.000Z</time>
      </trkpt>
      <trkpt lat="47.69929" lon="6.0109">
        <ele>241.39999389648</ele>
        <time>2012-05-04T08:09:03.000Z</time>
      </trkpt>
      <trkpt lat="47.6992" lon="6.01075">
        <ele>241.80000305176</ele>
        <time>2012-05-04T08:09:09.000Z</time>
      </trkpt>
      <trkpt lat="47.69919" lon="6.01072">
        <ele>242.19999694824</ele>
        <time>2012-05-04T08:09:10.000Z</time>
      </trkpt>
      <trkpt lat="47.69917" lon="6.01071">
        <ele>242.60000610352</ele>
        <time>2012-05-04T08:09:11.000Z</time>
      </trkpt>
      <trkpt lat="47.69916" lon="6.01068">
        <ele>243</ele>
        <time>2012-05-04T08:09:12.000Z</time>
      </trkpt>
      <trkpt lat="47.69915" lon="6.01066">
        <ele>243.39999389648</ele>
        <time>2012-05-04T08:09:13.000Z</time>
      </trkpt>
      <trkpt lat="47.69913" lon="6.01062">
        <ele>243.39999389648</ele>
        <time>2012-05-04T08:09:15.000Z</time>
      </trkpt>
      <trkpt lat="47.69908" lon="6.01053">
        <ele>243.39999389648</ele>
        <time>2012-05-04T08:09:19.000Z</time>
      </trkpt>
      <trkpt lat="47.69907" lon="6.01051">
        <ele>243.39999389648</ele>
        <time>2012-05-04T08:09:20.000Z</time>
      </trkpt>
      <trkpt lat="47.69896" lon="6.01038">
        <ele>243.39999389648</ele>
        <time>2012-05-04T08:09:27.000Z</time>
      </trkpt>
      <trkpt lat="47.69893" lon="6.01035">
        <ele>243.39999389648</ele>
        <time>2012-05-04T08:09:29.000Z</time>
      </trkpt>
      <trkpt lat="47.69889" lon="6.01028">
        <ele>243.39999389648</ele>
        <time>2012-05-04T08:09:33.000Z</time>
      </trkpt>
      <trkpt lat="47.69882" lon="6.01021">
        <ele>243.80000305176</ele>
        <time>2012-05-04T08:09:39.000Z</time>
      </trkpt>
      <trkpt lat="47.69881" lon="6.01019">
        <ele>244.19999694824</ele>
        <time>2012-05-04T08:09:40.000Z</time>
      </trkpt>
      <trkpt lat="47.6988" lon="6.01017">
        <ele>244.60000610352</ele>
        <time>2012-05-04T08:09:41.000Z</time>
      </trkpt>
      <trkpt lat="47.69878" lon="6.01015">
        <ele>245</ele>
        <time>2012-05-04T08:09:42.000Z</time>
      </trkpt>
      <trkpt lat="47.69877" lon="6.01014">
        <ele>245.39999389648</ele>
        <time>2012-05-04T08:09:43.000Z</time>
      </trkpt>
      <trkpt lat="47.69874" lon="6.0101">
        <ele>245.39999389648</ele>
        <time>2012-05-04T08:09:45.000Z</time>
      </trkpt>
      <trkpt lat="47.6987" lon="6.01008">
        <ele>245.39999389648</ele>
        <time>2012-05-04T08:09:47.000Z</time>
      </trkpt>
      <trkpt lat="47.69857" lon="6.01001">
        <ele>245.39999389648</ele>
        <time>2012-05-04T08:09:53.000Z</time>
      </trkpt>
      <trkpt lat="47.69849" lon="6.00997">
        <ele>245.39999389648</ele>
        <time>2012-05-04T08:09:58.000Z</time>
      </trkpt>
      <trkpt lat="47.69846" lon="6.00994">
        <ele>245.80000305176</ele>
        <time>2012-05-04T08:10:01.000Z</time>
      </trkpt>
      <trkpt lat="47.69845" lon="6.00994">
        <ele>246.60000610352</ele>
        <time>2012-05-04T08:10:02.000Z</time>
      </trkpt>
      <trkpt lat="47.69844" lon="6.00993">
        <ele>247</ele>
        <time>2012-05-04T08:10:03.000Z</time>
      </trkpt>
      <trkpt lat="47.69843" lon="6.00992">
        <ele>247.39999389648</ele>
        <time>2012-05-04T08:10:04.000Z</time>
      </trkpt>
      <trkpt lat="47.69835" lon="6.00986">
        <ele>247.39999389648</ele>
        <time>2012-05-04T08:10:10.000Z</time>
      </trkpt>
      <trkpt lat="47.6982" lon="6.00978">
        <ele>247.39999389648</ele>
        <time>2012-05-04T08:10:17.000Z</time>
      </trkpt>
      <trkpt lat="47.69809" lon="6.00969">
        <ele>248</ele>
        <time>2012-05-04T08:10:23.000Z</time>
      </trkpt>
      <trkpt lat="47.69807" lon="6.00967">
        <ele>248.39999389648</ele>
        <time>2012-05-04T08:10:24.000Z</time>
      </trkpt>
      <trkpt lat="47.69806" lon="6.00966">
        <ele>248.80000305176</ele>
        <time>2012-05-04T08:10:25.000Z</time>
      </trkpt>
      <trkpt lat="47.69805" lon="6.00964">
        <ele>249.19999694824</ele>
        <time>2012-05-04T08:10:26.000Z</time>
      </trkpt>
      <trkpt lat="47.69804" lon="6.00963">
        <ele>249.60000610352</ele>
        <time>2012-05-04T08:10:27.000Z</time>
      </trkpt>
      <trkpt lat="47.69803" lon="6.00961">
        <ele>249.60000610352</ele>
        <time>2012-05-04T08:10:28.000Z</time>
      </trkpt>
      <trkpt lat="47.69793" lon="6.00952">
        <ele>249.60000610352</ele>
        <time>2012-05-04T08:10:34.000Z</time>
      </trkpt>
      <trkpt lat="47.69784" lon="6.00947">
        <ele>249.60000610352</ele>
        <time>2012-05-04T08:10:39.000Z</time>
      </trkpt>
      <trkpt lat="47.69783" lon="6.00947">
        <ele>249.60000610352</ele>
        <time>2012-05-04T08:10:40.000Z</time>
      </trkpt>
      <trkpt lat="47.69778" lon="6.00946">
        <ele>250</ele>
        <time>2012-05-04T08:10:43.000Z</time>
      </trkpt>
      <trkpt lat="47.69776" lon="6.00945">
        <ele>250.39999389648</ele>
        <time>2012-05-04T08:10:44.000Z</time>
      </trkpt>
      <trkpt lat="47.69775" lon="6.00944">
        <ele>250.80000305176</ele>
        <time>2012-05-04T08:10:45.000Z</time>
      </trkpt>
      <trkpt lat="47.69773" lon="6.00943">
        <ele>251.19999694824</ele>
        <time>2012-05-04T08:10:46.000Z</time>
      </trkpt>
      <trkpt lat="47.69772" lon="6.00941">
        <ele>251.60000610352</ele>
        <time>2012-05-04T08:10:47.000Z</time>
      </trkpt>
      <trkpt lat="47.6977" lon="6.00939">
        <ele>251.60000610352</ele>
        <time>2012-05-04T08:10:48.000Z</time>
      </trkpt>
      <trkpt lat="47.69761" lon="6.00929">
        <ele>251.60000610352</ele>
        <time>2012-05-04T08:10:54.000Z</time>
      </trkpt>
      <trkpt lat="47.69752" lon="6.00912">
        <ele>251.60000610352</ele>
        <time>2012-05-04T08:11:02.000Z</time>
      </trkpt>
      <trkpt lat="47.69751" lon="6.00904">
        <ele>251.60000610352</ele>
        <time>2012-05-04T08:11:08.000Z</time>
      </trkpt>
      <trkpt lat="47.69752" lon="6.00903">
        <ele>251.60000610352</ele>
        <time>2012-05-04T08:11:50.000Z</time>
      </trkpt>
      <trkpt lat="47.69754" lon="6.00898">
        <ele>251.60000610352</ele>
        <time>2012-05-04T08:11:53.000Z</time>
      </trkpt>
      <trkpt lat="47.69754" lon="6.00896">
        <ele>251.60000610352</ele>
        <time>2012-05-04T08:11:54.000Z</time>
      </trkpt>
      <trkpt lat="47.69758" lon="6.00885">
        <ele>251.60000610352</ele>
        <time>2012-05-04T08:11:58.000Z</time>
      </trkpt>
      <trkpt lat="47.69761" lon="6.00876">
        <ele>252</ele>
        <time>2012-05-04T08:12:03.000Z</time>
      </trkpt>
      <trkpt lat="47.69762" lon="6.00874">
        <ele>252.39999389648</ele>
        <time>2012-05-04T08:12:04.000Z</time>
      </trkpt>
      <trkpt lat="47.69762" lon="6.00872">
        <ele>252.80000305176</ele>
        <time>2012-05-04T08:12:05.000Z</time>
      </trkpt>
      <trkpt lat="47.69763" lon="6.00869">
        <ele>253.19999694824</ele>
        <time>2012-05-04T08:12:06.000Z</time>
      </trkpt>
      <trkpt lat="47.69763" lon="6.00866">
        <ele>253.60000610352</ele>
        <time>2012-05-04T08:12:07.000Z</time>
      </trkpt>
      <trkpt lat="47.69767" lon="6.00855">
        <ele>253.60000610352</ele>
        <time>2012-05-04T08:12:11.000Z</time>
      </trkpt>
      <trkpt lat="47.69769" lon="6.0084">
        <ele>253.60000610352</ele>
        <time>2012-05-04T08:12:17.000Z</time>
      </trkpt>
      <trkpt lat="47.69774" lon="6.00821">
        <ele>253.60000610352</ele>
        <time>2012-05-04T08:12:25.000Z</time>
      </trkpt>
      <trkpt lat="47.69772" lon="6.00798">
        <ele>253.60000610352</ele>
        <time>2012-05-04T08:12:32.000Z</time>
      </trkpt>
      <trkpt lat="47.69768" lon="6.00778">
        <ele>253.60000610352</ele>
        <time>2012-05-04T08:12:37.000Z</time>
      </trkpt>
      <trkpt lat="47.69768" lon="6.00762">
        <ele>254</ele>
        <time>2012-05-04T08:12:41.000Z</time>
      </trkpt>
      <trkpt lat="47.69769" lon="6.00758">
        <ele>254.39999389648</ele>
        <time>2012-05-04T08:12:42.000Z</time>
      </trkpt>
      <trkpt lat="47.6977" lon="6.00754">
        <ele>254.80000305176</ele>
        <time>2012-05-04T08:12:43.000Z</time>
      </trkpt>
      <trkpt lat="47.69771" lon="6.00749">
        <ele>255.19999694824</ele>
        <time>2012-05-04T08:12:44.000Z</time>
      </trkpt>
      <trkpt lat="47.69771" lon="6.00746">
        <ele>255.60000610352</ele>
        <time>2012-05-04T08:12:45.000Z</time>
      </trkpt>
      <trkpt lat="47.69773" lon="6.00739">
        <ele>255.60000610352</ele>
        <time>2012-05-04T08:12:47.000Z</time>
      </trkpt>
      <trkpt lat="47.69773" lon="6.00735">
        <ele>255.60000610352</ele>
        <time>2012-05-04T08:12:48.000Z</time>
      </trkpt>
      <trkpt lat="47.69777" lon="6.00722">
        <ele>255.60000610352</ele>
        <time>2012-05-04T08:12:52.000Z</time>
      </trkpt>
      <trkpt lat="47.69786" lon="6.00702">
        <ele>255.60000610352</ele>
        <time>2012-05-04T08:12:59.000Z</time>
      </trkpt>
      <trkpt lat="47.69793" lon="6.00687">
        <ele>255.60000610352</ele>
        <time>2012-05-04T08:13:05.000Z</time>
      </trkpt>
      <trkpt lat="47.69797" lon="6.00677">
        <ele>256</ele>
        <time>2012-05-04T08:13:10.000Z</time>
      </trkpt>
      <trkpt lat="47.69797" lon="6.00675">
        <ele>256.60000610352</ele>
        <time>2012-05-04T08:13:11.000Z</time>
      </trkpt>
      <trkpt lat="47.69798" lon="6.00673">
        <ele>257</ele>
        <time>2012-05-04T08:13:12.000Z</time>
      </trkpt>
      <trkpt lat="47.69798" lon="6.00671">
        <ele>257.39999389648</ele>
        <time>2012-05-04T08:13:13.000Z</time>
      </trkpt>
      <trkpt lat="47.69799" lon="6.00669">
        <ele>257.79998779297</ele>
        <time>2012-05-04T08:13:14.000Z</time>
      </trkpt>
      <trkpt lat="47.698" lon="6.00662">
        <ele>257.79998779297</ele>
        <time>2012-05-04T08:13:18.000Z</time>
      </trkpt>
      <trkpt lat="47.698" lon="6.00648">
        <ele>258.20001220703</ele>
        <time>2012-05-04T08:13:23.000Z</time>
      </trkpt>
      <trkpt lat="47.69801" lon="6.00644">
        <ele>258.60000610352</ele>
        <time>2012-05-04T08:13:24.000Z</time>
      </trkpt>
      <trkpt lat="47.69801" lon="6.00641">
        <ele>259</ele>
        <time>2012-05-04T08:13:25.000Z</time>
      </trkpt>
      <trkpt lat="47.69802" lon="6.00638">
        <ele>259.39999389648</ele>
        <time>2012-05-04T08:13:26.000Z</time>
      </trkpt>
      <trkpt lat="47.69802" lon="6.00635">
        <ele>260</ele>
        <time>2012-05-04T08:13:27.000Z</time>
      </trkpt>
      <trkpt lat="47.69804" lon="6.00627">
        <ele>260</ele>
        <time>2012-05-04T08:13:30.000Z</time>
      </trkpt>
      <trkpt lat="47.69805" lon="6.00626">
        <ele>260</ele>
        <time>2012-05-04T08:13:31.000Z</time>
      </trkpt>
      <trkpt lat="47.69813" lon="6.00614">
        <ele>260.39999389648</ele>
        <time>2012-05-04T08:13:36.000Z</time>
      </trkpt>
      <trkpt lat="47.69815" lon="6.00613">
        <ele>260.79998779297</ele>
        <time>2012-05-04T08:13:37.000Z</time>
      </trkpt>
      <trkpt lat="47.69817" lon="6.00611">
        <ele>261.20001220703</ele>
        <time>2012-05-04T08:13:38.000Z</time>
      </trkpt>
      <trkpt lat="47.69818" lon="6.00609">
        <ele>261.60000610352</ele>
        <time>2012-05-04T08:13:39.000Z</time>
      </trkpt>
      <trkpt lat="47.69819" lon="6.00606">
        <ele>262</ele>
        <time>2012-05-04T08:13:40.000Z</time>
      </trkpt>
      <trkpt lat="47.69819" lon="6.00604">
        <ele>262</ele>
        <time>2012-05-04T08:13:41.000Z</time>
      </trkpt>
      <trkpt lat="47.69824" lon="6.00591">
        <ele>262</ele>
        <time>2012-05-04T08:13:47.000Z</time>
      </trkpt>
      <trkpt lat="47.69825" lon="6.00589">
        <ele>262.39999389648</ele>
        <time>2012-05-04T08:13:48.000Z</time>
      </trkpt>
      <trkpt lat="47.69826" lon="6.00587">
        <ele>262.79998779297</ele>
        <time>2012-05-04T08:13:49.000Z</time>
      </trkpt>
      <trkpt lat="47.69826" lon="6.00585">
        <ele>263.20001220703</ele>
        <time>2012-05-04T08:13:50.000Z</time>
      </trkpt>
      <trkpt lat="47.69827" lon="6.00583">
        <ele>263.60000610352</ele>
        <time>2012-05-04T08:13:51.000Z</time>
      </trkpt>
      <trkpt lat="47.69828" lon="6.00581">
        <ele>264</ele>
        <time>2012-05-04T08:13:52.000Z</time>
      </trkpt>
      <trkpt lat="47.69829" lon="6.00576">
        <ele>264</ele>
        <time>2012-05-04T08:13:54.000Z</time>
      </trkpt>
      <trkpt lat="47.69831" lon="6.00572">
        <ele>264</ele>
        <time>2012-05-04T08:13:56.000Z</time>
      </trkpt>
      <trkpt lat="47.69835" lon="6.00561">
        <ele>264</ele>
        <time>2012-05-04T08:14:01.000Z</time>
      </trkpt>
      <trkpt lat="47.6984" lon="6.00549">
        <ele>264</ele>
        <time>2012-05-04T08:14:06.000Z</time>
      </trkpt>
      <trkpt lat="47.69843" lon="6.00544">
        <ele>264</ele>
        <time>2012-05-04T08:14:08.000Z</time>
      </trkpt>
      <trkpt lat="47.69847" lon="6.00538">
        <ele>264</ele>
        <time>2012-05-04T08:14:11.000Z</time>
      </trkpt>
      <trkpt lat="47.69848" lon="6.00536">
        <ele>264</ele>
        <time>2012-05-04T08:14:12.000Z</time>
      </trkpt>
      <trkpt lat="47.69853" lon="6.00525">
        <ele>264</ele>
        <time>2012-05-04T08:14:17.000Z</time>
      </trkpt>
      <trkpt lat="47.69855" lon="6.00523">
        <ele>264.39999389648</ele>
        <time>2012-05-04T08:14:18.000Z</time>
      </trkpt>
      <trkpt lat="47.69856" lon="6.00521">
        <ele>264.79998779297</ele>
        <time>2012-05-04T08:14:19.000Z</time>
      </trkpt>
      <trkpt lat="47.69857" lon="6.0052">
        <ele>265.20001220703</ele>
        <time>2012-05-04T08:14:20.000Z</time>
      </trkpt>
      <trkpt lat="47.69859" lon="6.00518">
        <ele>265.60000610352</ele>
        <time>2012-05-04T08:14:21.000Z</time>
      </trkpt>
      <trkpt lat="47.6986" lon="6.00516">
        <ele>266</ele>
        <time>2012-05-04T08:14:22.000Z</time>
      </trkpt>
      <trkpt lat="47.69862" lon="6.00514">
        <ele>266</ele>
        <time>2012-05-04T08:14:23.000Z</time>
      </trkpt>
      <trkpt lat="47.69867" lon="6.005">
        <ele>266</ele>
        <time>2012-05-04T08:14:28.000Z</time>
      </trkpt>
      <trkpt lat="47.69869" lon="6.00495">
        <ele>266</ele>
        <time>2012-05-04T08:14:30.000Z</time>
      </trkpt>
      <trkpt lat="47.69875" lon="6.00482">
        <ele>266</ele>
        <time>2012-05-04T08:14:36.000Z</time>
      </trkpt>
      <trkpt lat="47.69876" lon="6.0048">
        <ele>266.39999389648</ele>
        <time>2012-05-04T08:14:37.000Z</time>
      </trkpt>
      <trkpt lat="47.69877" lon="6.00478">
        <ele>266.79998779297</ele>
        <time>2012-05-04T08:14:38.000Z</time>
      </trkpt>
      <trkpt lat="47.69878" lon="6.00476">
        <ele>267.20001220703</ele>
        <time>2012-05-04T08:14:39.000Z</time>
      </trkpt>
      <trkpt lat="47.69879" lon="6.00474">
        <ele>267.60000610352</ele>
        <time>2012-05-04T08:14:40.000Z</time>
      </trkpt>
      <trkpt lat="47.69879" lon="6.00472">
        <ele>268</ele>
        <time>2012-05-04T08:14:41.000Z</time>
      </trkpt>
      <trkpt lat="47.6988" lon="6.0047">
        <ele>268</ele>
        <time>2012-05-04T08:14:42.000Z</time>
      </trkpt>
      <trkpt lat="47.69888" lon="6.00451">
        <ele>268</ele>
        <time>2012-05-04T08:14:51.000Z</time>
      </trkpt>
      <trkpt lat="47.69891" lon="6.00443">
        <ele>268</ele>
        <time>2012-05-04T08:14:56.000Z</time>
      </trkpt>
      <trkpt lat="47.69891" lon="6.0044">
        <ele>268.39999389648</ele>
        <time>2012-05-04T08:14:57.000Z</time>
      </trkpt>
      <trkpt lat="47.69892" lon="6.00438">
        <ele>268.79998779297</ele>
        <time>2012-05-04T08:14:58.000Z</time>
      </trkpt>
      <trkpt lat="47.69893" lon="6.00436">
        <ele>269.20001220703</ele>
        <time>2012-05-04T08:14:59.000Z</time>
      </trkpt>
      <trkpt lat="47.69893" lon="6.00434">
        <ele>270</ele>
        <time>2012-05-04T08:15:00.000Z</time>
      </trkpt>
      <trkpt lat="47.69897" lon="6.00428">
        <ele>270</ele>
        <time>2012-05-04T08:15:03.000Z</time>
      </trkpt>
      <trkpt lat="47.69905" lon="6.00412">
        <ele>270</ele>
        <time>2012-05-04T08:15:10.000Z</time>
      </trkpt>
      <trkpt lat="47.6991" lon="6.00401">
        <ele>270</ele>
        <time>2012-05-04T08:15:16.000Z</time>
      </trkpt>
      <trkpt lat="47.69912" lon="6.00395">
        <ele>270.39999389648</ele>
        <time>2012-05-04T08:15:19.000Z</time>
      </trkpt>
      <trkpt lat="47.69914" lon="6.00393">
        <ele>270.79998779297</ele>
        <time>2012-05-04T08:15:20.000Z</time>
      </trkpt>
      <trkpt lat="47.69915" lon="6.00392">
        <ele>271.20001220703</ele>
        <time>2012-05-04T08:15:21.000Z</time>
      </trkpt>
      <trkpt lat="47.69917" lon="6.00391">
        <ele>271.60000610352</ele>
        <time>2012-05-04T08:15:22.000Z</time>
      </trkpt>
      <trkpt lat="47.69918" lon="6.00389">
        <ele>272</ele>
        <time>2012-05-04T08:15:23.000Z</time>
      </trkpt>
      <trkpt lat="47.69924" lon="6.00374">
        <ele>272</ele>
        <time>2012-05-04T08:15:29.000Z</time>
      </trkpt>
      <trkpt lat="47.69927" lon="6.00365">
        <ele>272</ele>
        <time>2012-05-04T08:15:33.000Z</time>
      </trkpt>
      <trkpt lat="47.69927" lon="6.00363">
        <ele>272</ele>
        <time>2012-05-04T08:15:34.000Z</time>
      </trkpt>
      <trkpt lat="47.6993" lon="6.00357">
        <ele>272</ele>
        <time>2012-05-04T08:15:37.000Z</time>
      </trkpt>
      <trkpt lat="47.69931" lon="6.00355">
        <ele>272.39999389648</ele>
        <time>2012-05-04T08:15:38.000Z</time>
      </trkpt>
      <trkpt lat="47.69932" lon="6.00353">
        <ele>272.79998779297</ele>
        <time>2012-05-04T08:15:39.000Z</time>
      </trkpt>
      <trkpt lat="47.69933" lon="6.00351">
        <ele>273.20001220703</ele>
        <time>2012-05-04T08:15:40.000Z</time>
      </trkpt>
      <trkpt lat="47.69934" lon="6.00349">
        <ele>273.60000610352</ele>
        <time>2012-05-04T08:15:41.000Z</time>
      </trkpt>
      <trkpt lat="47.69935" lon="6.00347">
        <ele>274</ele>
        <time>2012-05-04T08:15:42.000Z</time>
      </trkpt>
      <trkpt lat="47.6994" lon="6.00335">
        <ele>274</ele>
        <time>2012-05-04T08:15:48.000Z</time>
      </trkpt>
      <trkpt lat="47.69944" lon="6.00328">
        <ele>274</ele>
        <time>2012-05-04T08:15:52.000Z</time>
      </trkpt>
      <trkpt lat="47.69947" lon="6.00324">
        <ele>274</ele>
        <time>2012-05-04T08:15:54.000Z</time>
      </trkpt>
      <trkpt lat="47.69956" lon="6.0031">
        <ele>274</ele>
        <time>2012-05-04T08:16:00.000Z</time>
      </trkpt>
      <trkpt lat="47.69961" lon="6.00301">
        <ele>274.39999389648</ele>
        <time>2012-05-04T08:16:04.000Z</time>
      </trkpt>
      <trkpt lat="47.69962" lon="6.00298">
        <ele>274.79998779297</ele>
        <time>2012-05-04T08:16:05.000Z</time>
      </trkpt>
      <trkpt lat="47.69964" lon="6.00295">
        <ele>275.20001220703</ele>
        <time>2012-05-04T08:16:06.000Z</time>
      </trkpt>
      <trkpt lat="47.69966" lon="6.00293">
        <ele>275.60000610352</ele>
        <time>2012-05-04T08:16:07.000Z</time>
      </trkpt>
      <trkpt lat="47.69967" lon="6.00291">
        <ele>276</ele>
        <time>2012-05-04T08:16:08.000Z</time>
      </trkpt>
      <trkpt lat="47.69972" lon="6.0028">
        <ele>276</ele>
        <time>2012-05-04T08:16:12.000Z</time>
      </trkpt>
      <trkpt lat="47.6998" lon="6.00268">
        <ele>276</ele>
        <time>2012-05-04T08:16:18.000Z</time>
      </trkpt>
      <trkpt lat="47.69989" lon="6.00253">
        <ele>276</ele>
        <time>2012-05-04T08:16:24.000Z</time>
      </trkpt>
      <trkpt lat="47.69997" lon="6.00244">
        <ele>276</ele>
        <time>2012-05-04T08:16:29.000Z</time>
      </trkpt>
      <trkpt lat="47.70007" lon="6.00228">
        <ele>276</ele>
        <time>2012-05-04T08:16:36.000Z</time>
      </trkpt>
      <trkpt lat="47.7001" lon="6.00225">
        <ele>276</ele>
        <time>2012-05-04T08:16:38.000Z</time>
      </trkpt>
      <trkpt lat="47.70013" lon="6.00221">
        <ele>276</ele>
        <time>2012-05-04T08:16:40.000Z</time>
      </trkpt>
      <trkpt lat="47.70018" lon="6.00212">
        <ele>276</ele>
        <time>2012-05-04T08:16:44.000Z</time>
      </trkpt>
      <trkpt lat="47.70018" lon="6.00212">
        <ele>276</ele>
        <time>2012-05-04T08:16:45.000Z</time>
      </trkpt>
      <trkpt lat="47.70018" lon="6.00211">
        <ele>276</ele>
        <time>2012-05-04T08:17:48.000Z</time>
      </trkpt>
      <trkpt lat="47.70019" lon="6.0021">
        <ele>276</ele>
        <time>2012-05-04T08:17:49.000Z</time>
      </trkpt>
      <trkpt lat="47.70022" lon="6.00208">
        <ele>276</ele>
        <time>2012-05-04T08:17:51.000Z</time>
      </trkpt>
      <trkpt lat="47.70031" lon="6.00197">
        <ele>276</ele>
        <time>2012-05-04T08:17:56.000Z</time>
      </trkpt>
      <trkpt lat="47.70041" lon="6.00183">
        <ele>276</ele>
        <time>2012-05-04T08:18:00.000Z</time>
      </trkpt>
      <trkpt lat="47.70054" lon="6.00163">
        <ele>276</ele>
        <time>2012-05-04T08:18:05.000Z</time>
      </trkpt>
      <trkpt lat="47.70069" lon="6.00141">
        <ele>276</ele>
        <time>2012-05-04T08:18:11.000Z</time>
      </trkpt>
      <trkpt lat="47.70088" lon="6.00113">
        <ele>276</ele>
        <time>2012-05-04T08:18:17.000Z</time>
      </trkpt>
      <trkpt lat="47.70091" lon="6.00108">
        <ele>275.60000610352</ele>
        <time>2012-05-04T08:18:18.000Z</time>
      </trkpt>
      <trkpt lat="47.70094" lon="6.00103">
        <ele>275.20001220703</ele>
        <time>2012-05-04T08:18:19.000Z</time>
      </trkpt>
      <trkpt lat="47.70097" lon="6.00098">
        <ele>274.79998779297</ele>
        <time>2012-05-04T08:18:20.000Z</time>
      </trkpt>
      <trkpt lat="47.70101" lon="6.00092">
        <ele>274.39999389648</ele>
        <time>2012-05-04T08:18:21.000Z</time>
      </trkpt>
      <trkpt lat="47.70104" lon="6.00086">
        <ele>274</ele>
        <time>2012-05-04T08:18:22.000Z</time>
      </trkpt>
      <trkpt lat="47.7011" lon="6.00076">
        <ele>273.39999389648</ele>
        <time>2012-05-04T08:18:24.000Z</time>
      </trkpt>
      <trkpt lat="47.70113" lon="6.00071">
        <ele>273</ele>
        <time>2012-05-04T08:18:25.000Z</time>
      </trkpt>
      <trkpt lat="47.70115" lon="6.00066">
        <ele>272.39999389648</ele>
        <time>2012-05-04T08:18:26.000Z</time>
      </trkpt>
      <trkpt lat="47.70116" lon="6.00062">
        <ele>272</ele>
        <time>2012-05-04T08:18:27.000Z</time>
      </trkpt>
      <trkpt lat="47.70117" lon="6.00061">
        <ele>271.39999389648</ele>
        <time>2012-05-04T08:18:28.000Z</time>
      </trkpt>
      <trkpt lat="47.70119" lon="6.00054">
        <ele>271.39999389648</ele>
        <time>2012-05-04T08:18:31.000Z</time>
      </trkpt>
      <trkpt lat="47.70119" lon="6.00055">
        <ele>271.39999389648</ele>
        <time>2012-05-04T08:18:32.000Z</time>
      </trkpt>
      <trkpt lat="47.70124" lon="6.00058">
        <ele>267.39999389648</ele>
        <time>2012-05-04T08:37:38.000Z</time>
      </trkpt>
      <trkpt lat="47.70124" lon="6.00058">
        <ele>267.39999389648</ele>
        <time>2012-05-04T08:37:39.000Z</time>
      </trkpt>
      <trkpt lat="47.70125" lon="6.00057">
        <ele>267.39999389648</ele>
        <time>2012-05-04T08:38:43.000Z</time>
      </trkpt>
      <trkpt lat="47.70122" lon="6.0006">
        <ele>267.39999389648</ele>
        <time>2012-05-04T08:38:49.000Z</time>
      </trkpt>
      <trkpt lat="47.70121" lon="6.00063">
        <ele>267.39999389648</ele>
        <time>2012-05-04T08:38:51.000Z</time>
      </trkpt>
      <trkpt lat="47.70117" lon="6.00068">
        <ele>267.39999389648</ele>
        <time>2012-05-04T08:38:56.000Z</time>
      </trkpt>
      <trkpt lat="47.70116" lon="6.00069">
        <ele>267.79998779297</ele>
        <time>2012-05-04T08:38:57.000Z</time>
      </trkpt>
      <trkpt lat="47.70116" lon="6.00071">
        <ele>268.20001220703</ele>
        <time>2012-05-04T08:38:58.000Z</time>
      </trkpt>
      <trkpt lat="47.70115" lon="6.00072">
        <ele>268.60000610352</ele>
        <time>2012-05-04T08:38:59.000Z</time>
      </trkpt>
      <trkpt lat="47.70114" lon="6.00073">
        <ele>269</ele>
        <time>2012-05-04T08:39:00.000Z</time>
      </trkpt>
      <trkpt lat="47.70114" lon="6.00074">
        <ele>269.39999389648</ele>
        <time>2012-05-04T08:39:01.000Z</time>
      </trkpt>
      <trkpt lat="47.70112" lon="6.00076">
        <ele>269.39999389648</ele>
        <time>2012-05-04T08:39:03.000Z</time>
      </trkpt>
      <trkpt lat="47.70107" lon="6.00084">
        <ele>269.39999389648</ele>
        <time>2012-05-04T08:39:10.000Z</time>
      </trkpt>
      <trkpt lat="47.70104" lon="6.00088">
        <ele>269.39999389648</ele>
        <time>2012-05-04T08:39:14.000Z</time>
      </trkpt>
      <trkpt lat="47.70103" lon="6.0009">
        <ele>269.39999389648</ele>
        <time>2012-05-04T08:39:16.000Z</time>
      </trkpt>
      <trkpt lat="47.70102" lon="6.00093">
        <ele>269.39999389648</ele>
        <time>2012-05-04T08:39:18.000Z</time>
      </trkpt>
      <trkpt lat="47.70101" lon="6.00095">
        <ele>269.79998779297</ele>
        <time>2012-05-04T08:39:20.000Z</time>
      </trkpt>
      <trkpt lat="47.70101" lon="6.00096">
        <ele>270.20001220703</ele>
        <time>2012-05-04T08:39:21.000Z</time>
      </trkpt>
      <trkpt lat="47.701" lon="6.00098">
        <ele>270.60000610352</ele>
        <time>2012-05-04T08:39:22.000Z</time>
      </trkpt>
      <trkpt lat="47.701" lon="6.00099">
        <ele>271</ele>
        <time>2012-05-04T08:39:23.000Z</time>
      </trkpt>
      <trkpt lat="47.70099" lon="6.00099">
        <ele>271.39999389648</ele>
        <time>2012-05-04T08:39:24.000Z</time>
      </trkpt>
      <trkpt lat="47.70096" lon="6.00104">
        <ele>271.39999389648</ele>
        <time>2012-05-04T08:39:29.000Z</time>
      </trkpt>
      <trkpt lat="47.70095" lon="6.00105">
        <ele>271.39999389648</ele>
        <time>2012-05-04T08:39:30.000Z</time>
      </trkpt>
      <trkpt lat="47.70094" lon="6.00107">
        <ele>271.39999389648</ele>
        <time>2012-05-04T08:39:32.000Z</time>
      </trkpt>
      <trkpt lat="47.70094" lon="6.00108">
        <ele>271.39999389648</ele>
        <time>2012-05-04T08:39:38.000Z</time>
      </trkpt>
      <trkpt lat="47.70092" lon="6.0011">
        <ele>271.39999389648</ele>
        <time>2012-05-04T08:39:39.000Z</time>
      </trkpt>
      <trkpt lat="47.70087" lon="6.00117">
        <ele>271.39999389648</ele>
        <time>2012-05-04T08:39:43.000Z</time>
      </trkpt>
      <trkpt lat="47.70084" lon="6.00122">
        <ele>271.39999389648</ele>
        <time>2012-05-04T08:39:45.000Z</time>
      </trkpt>
      <trkpt lat="47.70076" lon="6.00132">
        <ele>271.79998779297</ele>
        <time>2012-05-04T08:39:50.000Z</time>
      </trkpt>
      <trkpt lat="47.70075" lon="6.00135">
        <ele>272.20001220703</ele>
        <time>2012-05-04T08:39:51.000Z</time>
      </trkpt>
      <trkpt lat="47.70074" lon="6.00136">
        <ele>272.60000610352</ele>
        <time>2012-05-04T08:39:52.000Z</time>
      </trkpt>
      <trkpt lat="47.70072" lon="6.00138">
        <ele>273</ele>
        <time>2012-05-04T08:39:53.000Z</time>
      </trkpt>
      <trkpt lat="47.70071" lon="6.00139">
        <ele>273.39999389648</ele>
        <time>2012-05-04T08:39:54.000Z</time>
      </trkpt>
      <trkpt lat="47.7007" lon="6.00141">
        <ele>273.39999389648</ele>
        <time>2012-05-04T08:39:55.000Z</time>
      </trkpt>
      <trkpt lat="47.70069" lon="6.00144">
        <ele>273.39999389648</ele>
        <time>2012-05-04T08:39:56.000Z</time>
      </trkpt>
      <trkpt lat="47.70063" lon="6.00151">
        <ele>273.39999389648</ele>
        <time>2012-05-04T08:40:00.000Z</time>
      </trkpt>
      <trkpt lat="47.70057" lon="6.0016">
        <ele>273.39999389648</ele>
        <time>2012-05-04T08:40:04.000Z</time>
      </trkpt>
      <trkpt lat="47.70056" lon="6.00162">
        <ele>273.39999389648</ele>
        <time>2012-05-04T08:40:05.000Z</time>
      </trkpt>
      <trkpt lat="47.70055" lon="6.00164">
        <ele>273.39999389648</ele>
        <time>2012-05-04T08:40:06.000Z</time>
      </trkpt>
      <trkpt lat="47.70047" lon="6.00174">
        <ele>273.39999389648</ele>
        <time>2012-05-04T08:40:11.000Z</time>
      </trkpt>
      <trkpt lat="47.70039" lon="6.00188">
        <ele>273.39999389648</ele>
        <time>2012-05-04T08:40:17.000Z</time>
      </trkpt>
      <trkpt lat="47.70037" lon="6.0019">
        <ele>273.79998779297</ele>
        <time>2012-05-04T08:40:18.000Z</time>
      </trkpt>
      <trkpt lat="47.70035" lon="6.00192">
        <ele>274.20001220703</ele>
        <time>2012-05-04T08:40:19.000Z</time>
      </trkpt>
      <trkpt lat="47.70033" lon="6.00195">
        <ele>274.60000610352</ele>
        <time>2012-05-04T08:40:20.000Z</time>
      </trkpt>
      <trkpt lat="47.7003" lon="6.00197">
        <ele>275</ele>
        <time>2012-05-04T08:40:21.000Z</time>
      </trkpt>
      <trkpt lat="47.70027" lon="6.00198">
        <ele>275.39999389648</ele>
        <time>2012-05-04T08:40:22.000Z</time>
      </trkpt>
      <trkpt lat="47.70022" lon="6.00197">
        <ele>275.39999389648</ele>
        <time>2012-05-04T08:40:24.000Z</time>
      </trkpt>
      <trkpt lat="47.70019" lon="6.00195">
        <ele>275.39999389648</ele>
        <time>2012-05-04T08:40:26.000Z</time>
      </trkpt>
      <trkpt lat="47.70015" lon="6.00192">
        <ele>275.39999389648</ele>
        <time>2012-05-04T08:40:29.000Z</time>
      </trkpt>
      <trkpt lat="47.70013" lon="6.00189">
        <ele>275.39999389648</ele>
        <time>2012-05-04T08:40:32.000Z</time>
      </trkpt>
      <trkpt lat="47.70009" lon="6.00186">
        <ele>275.79998779297</ele>
        <time>2012-05-04T08:40:34.000Z</time>
      </trkpt>
      <trkpt lat="47.70007" lon="6.00184">
        <ele>276.20001220703</ele>
        <time>2012-05-04T08:40:35.000Z</time>
      </trkpt>
      <trkpt lat="47.70005" lon="6.00183">
        <ele>276.79998779297</ele>
        <time>2012-05-04T08:40:36.000Z</time>
      </trkpt>
      <trkpt lat="47.70003" lon="6.00181">
        <ele>277.20001220703</ele>
        <time>2012-05-04T08:40:37.000Z</time>
      </trkpt>
      <trkpt lat="47.70002" lon="6.00179">
        <ele>277.60000610352</ele>
        <time>2012-05-04T08:40:38.000Z</time>
      </trkpt>
      <trkpt lat="47.69999" lon="6.00176">
        <ele>277.60000610352</ele>
        <time>2012-05-04T08:40:40.000Z</time>
      </trkpt>
      <trkpt lat="47.69996" lon="6.00173">
        <ele>277.60000610352</ele>
        <time>2012-05-04T08:40:43.000Z</time>
      </trkpt>
      <trkpt lat="47.69989" lon="6.00166">
        <ele>277.60000610352</ele>
        <time>2012-05-04T08:40:48.000Z</time>
      </trkpt>
      <trkpt lat="47.69987" lon="6.00163">
        <ele>277.60000610352</ele>
        <time>2012-05-04T08:40:50.000Z</time>
      </trkpt>
      <trkpt lat="47.69983" lon="6.00157">
        <ele>278</ele>
        <time>2012-05-04T08:40:55.000Z</time>
      </trkpt>
      <trkpt lat="47.69981" lon="6.00156">
        <ele>278.39999389648</ele>
        <time>2012-05-04T08:40:56.000Z</time>
      </trkpt>
      <trkpt lat="47.6998" lon="6.00154">
        <ele>278.79998779297</ele>
        <time>2012-05-04T08:40:57.000Z</time>
      </trkpt>
      <trkpt lat="47.69978" lon="6.00152">
        <ele>279.20001220703</ele>
        <time>2012-05-04T08:40:58.000Z</time>
      </trkpt>
      <trkpt lat="47.69976" lon="6.0015">
        <ele>279.60000610352</ele>
        <time>2012-05-04T08:40:59.000Z</time>
      </trkpt>
      <trkpt lat="47.69972" lon="6.00146">
        <ele>279.60000610352</ele>
        <time>2012-05-04T08:41:01.000Z</time>
      </trkpt>
      <trkpt lat="47.6997" lon="6.00142">
        <ele>279.60000610352</ele>
        <time>2012-05-04T08:41:03.000Z</time>
      </trkpt>
      <trkpt lat="47.69968" lon="6.00139">
        <ele>279.60000610352</ele>
        <time>2012-05-04T08:41:05.000Z</time>
      </trkpt>
      <trkpt lat="47.69965" lon="6.00136">
        <ele>279.60000610352</ele>
        <time>2012-05-04T08:41:07.000Z</time>
      </trkpt>
      <trkpt lat="47.69961" lon="6.00131">
        <ele>279.60000610352</ele>
        <time>2012-05-04T08:41:10.000Z</time>
      </trkpt>
      <trkpt lat="47.69952" lon="6.00119">
        <ele>279.60000610352</ele>
        <time>2012-05-04T08:41:16.000Z</time>
      </trkpt>
      <trkpt lat="47.69944" lon="6.00108">
        <ele>279.60000610352</ele>
        <time>2012-05-04T08:41:21.000Z</time>
      </trkpt>
      <trkpt lat="47.69934" lon="6.00097">
        <ele>279.60000610352</ele>
        <time>2012-05-04T08:41:26.000Z</time>
      </trkpt>
      <trkpt lat="47.69926" lon="6.00086">
        <ele>279.60000610352</ele>
        <time>2012-05-04T08:41:32.000Z</time>
      </trkpt>
      <trkpt lat="47.69915" lon="6.00074">
        <ele>279.60000610352</ele>
        <time>2012-05-04T08:41:38.000Z</time>
      </trkpt>
      <trkpt lat="47.69913" lon="6.00071">
        <ele>279.60000610352</ele>
        <time>2012-05-04T08:41:39.000Z</time>
      </trkpt>
      <trkpt lat="47.69908" lon="6.00065">
        <ele>280</ele>
        <time>2012-05-04T08:41:42.000Z</time>
      </trkpt>
      <trkpt lat="47.69906" lon="6.00064">
        <ele>280.39999389648</ele>
        <time>2012-05-04T08:41:43.000Z</time>
      </trkpt>
      <trkpt lat="47.69905" lon="6.00062">
        <ele>281.20001220703</ele>
        <time>2012-05-04T08:41:44.000Z</time>
      </trkpt>
      <trkpt lat="47.69903" lon="6.0006">
        <ele>281.79998779297</ele>
        <time>2012-05-04T08:41:45.000Z</time>
      </trkpt>
      <trkpt lat="47.69898" lon="6.00055">
        <ele>281.79998779297</ele>
        <time>2012-05-04T08:41:48.000Z</time>
      </trkpt>
      <trkpt lat="47.69889" lon="6.00044">
        <ele>281.79998779297</ele>
        <time>2012-05-04T08:41:54.000Z</time>
      </trkpt>
      <trkpt lat="47.6988" lon="6.00033">
        <ele>281.79998779297</ele>
        <time>2012-05-04T08:42:01.000Z</time>
      </trkpt>
      <trkpt lat="47.6987" lon="6.0002">
        <ele>281.79998779297</ele>
        <time>2012-05-04T08:42:07.000Z</time>
      </trkpt>
      <trkpt lat="47.69859" lon="6.00006">
        <ele>281.79998779297</ele>
        <time>2012-05-04T08:42:13.000Z</time>
      </trkpt>
      <trkpt lat="47.69846" lon="5.9999">
        <ele>281.79998779297</ele>
        <time>2012-05-04T08:42:19.000Z</time>
      </trkpt>
      <trkpt lat="47.69833" lon="5.99975">
        <ele>281.79998779297</ele>
        <time>2012-05-04T08:42:25.000Z</time>
      </trkpt>
      <trkpt lat="47.69824" lon="5.99962">
        <ele>281.79998779297</ele>
        <time>2012-05-04T08:42:30.000Z</time>
      </trkpt>
      <trkpt lat="47.69812" lon="5.99948">
        <ele>281.79998779297</ele>
        <time>2012-05-04T08:42:36.000Z</time>
      </trkpt>
      <trkpt lat="47.69798" lon="5.99932">
        <ele>281.79998779297</ele>
        <time>2012-05-04T08:42:41.000Z</time>
      </trkpt>
      <trkpt lat="47.69784" lon="5.99916">
        <ele>281.79998779297</ele>
        <time>2012-05-04T08:42:46.000Z</time>
      </trkpt>
      <trkpt lat="47.69771" lon="5.99896">
        <ele>281.79998779297</ele>
        <time>2012-05-04T08:42:52.000Z</time>
      </trkpt>
      <trkpt lat="47.69769" lon="5.99893">
        <ele>281.79998779297</ele>
        <time>2012-05-04T08:42:54.000Z</time>
      </trkpt>
      <trkpt lat="47.69764" lon="5.9989">
        <ele>281.79998779297</ele>
        <time>2012-05-04T08:42:57.000Z</time>
      </trkpt>
      <trkpt lat="47.69753" lon="5.99896">
        <ele>281.79998779297</ele>
        <time>2012-05-04T08:43:01.000Z</time>
      </trkpt>
      <trkpt lat="47.69744" lon="5.99903">
        <ele>281.20001220703</ele>
        <time>2012-05-04T08:43:04.000Z</time>
      </trkpt>
      <trkpt lat="47.69742" lon="5.99906">
        <ele>280.79998779297</ele>
        <time>2012-05-04T08:43:05.000Z</time>
      </trkpt>
      <trkpt lat="47.6974" lon="5.99909">
        <ele>280.39999389648</ele>
        <time>2012-05-04T08:43:06.000Z</time>
      </trkpt>
      <trkpt lat="47.69738" lon="5.99911">
        <ele>280</ele>
        <time>2012-05-04T08:43:07.000Z</time>
      </trkpt>
      <trkpt lat="47.69736" lon="5.99913">
        <ele>279.60000610352</ele>
        <time>2012-05-04T08:43:08.000Z</time>
      </trkpt>
      <trkpt lat="47.69727" lon="5.99922">
        <ele>279.60000610352</ele>
        <time>2012-05-04T08:43:12.000Z</time>
      </trkpt>
      <trkpt lat="47.69723" lon="5.99926">
        <ele>279.20001220703</ele>
        <time>2012-05-04T08:43:14.000Z</time>
      </trkpt>
      <trkpt lat="47.69721" lon="5.99928">
        <ele>278.60000610352</ele>
        <time>2012-05-04T08:43:15.000Z</time>
      </trkpt>
      <trkpt lat="47.69719" lon="5.9993">
        <ele>278.20001220703</ele>
        <time>2012-05-04T08:43:16.000Z</time>
      </trkpt>
      <trkpt lat="47.69718" lon="5.99931">
        <ele>277.79998779297</ele>
        <time>2012-05-04T08:43:17.000Z</time>
      </trkpt>
      <trkpt lat="47.69717" lon="5.99932">
        <ele>277.39999389648</ele>
        <time>2012-05-04T08:43:18.000Z</time>
      </trkpt>
      <trkpt lat="47.69715" lon="5.99935">
        <ele>277.39999389648</ele>
        <time>2012-05-04T08:43:20.000Z</time>
      </trkpt>
      <trkpt lat="47.69709" lon="5.99939">
        <ele>277.39999389648</ele>
        <time>2012-05-04T08:43:24.000Z</time>
      </trkpt>
      <trkpt lat="47.69701" lon="5.99949">
        <ele>277.39999389648</ele>
        <time>2012-05-04T08:43:30.000Z</time>
      </trkpt>
      <trkpt lat="47.69692" lon="5.99959">
        <ele>277.39999389648</ele>
        <time>2012-05-04T08:43:36.000Z</time>
      </trkpt>
      <trkpt lat="47.69689" lon="5.99963">
        <ele>277</ele>
        <time>2012-05-04T08:43:38.000Z</time>
      </trkpt>
      <trkpt lat="47.69688" lon="5.99965">
        <ele>276.60000610352</ele>
        <time>2012-05-04T08:43:39.000Z</time>
      </trkpt>
      <trkpt lat="47.69686" lon="5.99967">
        <ele>276.20001220703</ele>
        <time>2012-05-04T08:43:40.000Z</time>
      </trkpt>
      <trkpt lat="47.69684" lon="5.99968">
        <ele>275.79998779297</ele>
        <time>2012-05-04T08:43:41.000Z</time>
      </trkpt>
      <trkpt lat="47.69683" lon="5.99969">
        <ele>275.39999389648</ele>
        <time>2012-05-04T08:43:42.000Z</time>
      </trkpt>
      <trkpt lat="47.69679" lon="5.99972">
        <ele>275.39999389648</ele>
        <time>2012-05-04T08:43:46.000Z</time>
      </trkpt>
      <trkpt lat="47.69679" lon="5.99972">
        <ele>275.39999389648</ele>
        <time>2012-05-04T08:43:48.000Z</time>
      </trkpt>
      <trkpt lat="47.69679" lon="5.99971">
        <ele>275.39999389648</ele>
        <time>2012-05-04T08:43:49.000Z</time>
      </trkpt>
      <trkpt lat="47.69678" lon="5.99968">
        <ele>275.39999389648</ele>
        <time>2012-05-04T08:43:51.000Z</time>
      </trkpt>
      <trkpt lat="47.69676" lon="5.99964">
        <ele>275.39999389648</ele>
        <time>2012-05-04T08:43:53.000Z</time>
      </trkpt>
      <trkpt lat="47.69675" lon="5.99958">
        <ele>275.39999389648</ele>
        <time>2012-05-04T08:43:58.000Z</time>
      </trkpt>
      <trkpt lat="47.69675" lon="5.99956">
        <ele>275.39999389648</ele>
        <time>2012-05-04T08:43:59.000Z</time>
      </trkpt>
      <trkpt lat="47.69675" lon="5.99948">
        <ele>275.39999389648</ele>
        <time>2012-05-04T08:44:04.000Z</time>
      </trkpt>
      <trkpt lat="47.69674" lon="5.99936">
        <ele>275.39999389648</ele>
        <time>2012-05-04T08:44:10.000Z</time>
      </trkpt>
      <trkpt lat="47.69673" lon="5.99926">
        <ele>275.39999389648</ele>
        <time>2012-05-04T08:44:15.000Z</time>
      </trkpt>
      <trkpt lat="47.69672" lon="5.99925">
        <ele>275.39999389648</ele>
        <time>2012-05-04T08:44:16.000Z</time>
      </trkpt>
      <trkpt lat="47.69672" lon="5.99921">
        <ele>275.39999389648</ele>
        <time>2012-05-04T08:44:18.000Z</time>
      </trkpt>
      <trkpt lat="47.69672" lon="5.99914">
        <ele>275.39999389648</ele>
        <time>2012-05-04T08:44:22.000Z</time>
      </trkpt>
      <trkpt lat="47.69672" lon="5.99908">
        <ele>275.39999389648</ele>
        <time>2012-05-04T08:44:26.000Z</time>
      </trkpt>
      <trkpt lat="47.69671" lon="5.99903">
        <ele>275.39999389648</ele>
        <time>2012-05-04T08:45:02.000Z</time>
      </trkpt>
      <trkpt lat="47.69671" lon="5.99898">
        <ele>275.39999389648</ele>
        <time>2012-05-04T08:45:04.000Z</time>
      </trkpt>
      <trkpt lat="47.6967" lon="5.99896">
        <ele>275.39999389648</ele>
        <time>2012-05-04T08:45:05.000Z</time>
      </trkpt>
      <trkpt lat="47.69669" lon="5.99891">
        <ele>275.39999389648</ele>
        <time>2012-05-04T08:45:07.000Z</time>
      </trkpt>
      <trkpt lat="47.69669" lon="5.99891">
        <ele>275.39999389648</ele>
        <time>2012-05-04T08:46:34.000Z</time>
      </trkpt>
      <trkpt lat="47.69669" lon="5.99891">
        <ele>275.39999389648</ele>
        <time>2012-05-04T08:46:35.000Z</time>
      </trkpt>
      <trkpt lat="47.6967" lon="5.99893">
        <ele>275.39999389648</ele>
        <time>2012-05-04T08:47:05.000Z</time>
      </trkpt>
      <trkpt lat="47.6967" lon="5.99893">
        <ele>275.39999389648</ele>
        <time>2012-05-04T08:47:06.000Z</time>
      </trkpt>
      <trkpt lat="47.6967" lon="5.99897">
        <ele>275.39999389648</ele>
        <time>2012-05-04T08:47:08.000Z</time>
      </trkpt>
      <trkpt lat="47.6967" lon="5.999">
        <ele>275.39999389648</ele>
        <time>2012-05-04T08:47:09.000Z</time>
      </trkpt>
      <trkpt lat="47.6967" lon="5.99912">
        <ele>275.39999389648</ele>
        <time>2012-05-04T08:47:13.000Z</time>
      </trkpt>
      <trkpt lat="47.69671" lon="5.99927">
        <ele>275.39999389648</ele>
        <time>2012-05-04T08:47:18.000Z</time>
      </trkpt>
      <trkpt lat="47.69673" lon="5.99948">
        <ele>275.39999389648</ele>
        <time>2012-05-04T08:47:24.000Z</time>
      </trkpt>
      <trkpt lat="47.69675" lon="5.99951">
        <ele>275.39999389648</ele>
        <time>2012-05-04T08:47:25.000Z</time>
      </trkpt>
      <trkpt lat="47.69677" lon="5.99962">
        <ele>275.39999389648</ele>
        <time>2012-05-04T08:47:29.000Z</time>
      </trkpt>
      <trkpt lat="47.69677" lon="5.99965">
        <ele>275.39999389648</ele>
        <time>2012-05-04T08:47:30.000Z</time>
      </trkpt>
      <trkpt lat="47.69675" lon="5.99971">
        <ele>275.39999389648</ele>
        <time>2012-05-04T08:47:32.000Z</time>
      </trkpt>
      <trkpt lat="47.69671" lon="5.99975">
        <ele>275.39999389648</ele>
        <time>2012-05-04T08:47:34.000Z</time>
      </trkpt>
      <trkpt lat="47.69657" lon="5.99992">
        <ele>275.39999389648</ele>
        <time>2012-05-04T08:47:39.000Z</time>
      </trkpt>
      <trkpt lat="47.69654" lon="5.99996">
        <ele>275</ele>
        <time>2012-05-04T08:47:40.000Z</time>
      </trkpt>
      <trkpt lat="47.69651" lon="6.00001">
        <ele>274.60000610352</ele>
        <time>2012-05-04T08:47:41.000Z</time>
      </trkpt>
      <trkpt lat="47.69649" lon="6.00006">
        <ele>274</ele>
        <time>2012-05-04T08:47:42.000Z</time>
      </trkpt>
      <trkpt lat="47.69645" lon="6.0001">
        <ele>273.60000610352</ele>
        <time>2012-05-04T08:47:43.000Z</time>
      </trkpt>
      <trkpt lat="47.69642" lon="6.00014">
        <ele>273.20001220703</ele>
        <time>2012-05-04T08:47:44.000Z</time>
      </trkpt>
      <trkpt lat="47.6964" lon="6.00018">
        <ele>273.20001220703</ele>
        <time>2012-05-04T08:47:45.000Z</time>
      </trkpt>
      <trkpt lat="47.69633" lon="6.0003">
        <ele>273.20001220703</ele>
        <time>2012-05-04T08:47:50.000Z</time>
      </trkpt>
      <trkpt lat="47.69631" lon="6.00034">
        <ele>273.20001220703</ele>
        <time>2012-05-04T08:47:54.000Z</time>
      </trkpt>
      <trkpt lat="47.6963" lon="6.00034">
        <ele>273.20001220703</ele>
        <time>2012-05-04T08:48:02.000Z</time>
      </trkpt>
      <trkpt lat="47.69625" lon="6.00042">
        <ele>272.79998779297</ele>
        <time>2012-05-04T08:48:06.000Z</time>
      </trkpt>
      <trkpt lat="47.69623" lon="6.00045">
        <ele>272.39999389648</ele>
        <time>2012-05-04T08:48:07.000Z</time>
      </trkpt>
      <trkpt lat="47.69621" lon="6.00048">
        <ele>272</ele>
        <time>2012-05-04T08:48:08.000Z</time>
      </trkpt>
      <trkpt lat="47.69619" lon="6.00051">
        <ele>271.60000610352</ele>
        <time>2012-05-04T08:48:09.000Z</time>
      </trkpt>
      <trkpt lat="47.69617" lon="6.00055">
        <ele>271.20001220703</ele>
        <time>2012-05-04T08:48:10.000Z</time>
      </trkpt>
      <trkpt lat="47.69611" lon="6.00063">
        <ele>271.20001220703</ele>
        <time>2012-05-04T08:48:12.000Z</time>
      </trkpt>
      <trkpt lat="47.69592" lon="6.00088">
        <ele>271.20001220703</ele>
        <time>2012-05-04T08:48:18.000Z</time>
      </trkpt>
      <trkpt lat="47.69588" lon="6.00092">
        <ele>271.20001220703</ele>
        <time>2012-05-04T08:48:19.000Z</time>
      </trkpt>
      <trkpt lat="47.69584" lon="6.00097">
        <ele>270.79998779297</ele>
        <time>2012-05-04T08:48:20.000Z</time>
      </trkpt>
      <trkpt lat="47.69581" lon="6.00101">
        <ele>270.20001220703</ele>
        <time>2012-05-04T08:48:21.000Z</time>
      </trkpt>
      <trkpt lat="47.69577" lon="6.00106">
        <ele>269.79998779297</ele>
        <time>2012-05-04T08:48:22.000Z</time>
      </trkpt>
      <trkpt lat="47.69574" lon="6.00111">
        <ele>269.39999389648</ele>
        <time>2012-05-04T08:48:23.000Z</time>
      </trkpt>
      <trkpt lat="47.6957" lon="6.00115">
        <ele>269</ele>
        <time>2012-05-04T08:48:24.000Z</time>
      </trkpt>
      <trkpt lat="47.69554" lon="6.00136">
        <ele>269</ele>
        <time>2012-05-04T08:48:30.000Z</time>
      </trkpt>
      <trkpt lat="47.69528" lon="6.00166">
        <ele>269</ele>
        <time>2012-05-04T08:48:38.000Z</time>
      </trkpt>
      <trkpt lat="47.69517" lon="6.00178">
        <ele>268.60000610352</ele>
        <time>2012-05-04T08:48:41.000Z</time>
      </trkpt>
      <trkpt lat="47.69513" lon="6.00183">
        <ele>268</ele>
        <time>2012-05-04T08:48:42.000Z</time>
      </trkpt>
      <trkpt lat="47.69509" lon="6.00188">
        <ele>267.60000610352</ele>
        <time>2012-05-04T08:48:43.000Z</time>
      </trkpt>
      <trkpt lat="47.69506" lon="6.00192">
        <ele>266.79998779297</ele>
        <time>2012-05-04T08:48:44.000Z</time>
      </trkpt>
      <trkpt lat="47.69488" lon="6.00215">
        <ele>266.79998779297</ele>
        <time>2012-05-04T08:48:49.000Z</time>
      </trkpt>
      <trkpt lat="47.69468" lon="6.00241">
        <ele>266.79998779297</ele>
        <time>2012-05-04T08:48:55.000Z</time>
      </trkpt>
      <trkpt lat="47.69464" lon="6.00246">
        <ele>266.39999389648</ele>
        <time>2012-05-04T08:48:56.000Z</time>
      </trkpt>
      <trkpt lat="47.69461" lon="6.00252">
        <ele>266</ele>
        <time>2012-05-04T08:48:57.000Z</time>
      </trkpt>
      <trkpt lat="47.69458" lon="6.00257">
        <ele>265.60000610352</ele>
        <time>2012-05-04T08:48:58.000Z</time>
      </trkpt>
      <trkpt lat="47.69454" lon="6.00263">
        <ele>265.20001220703</ele>
        <time>2012-05-04T08:48:59.000Z</time>
      </trkpt>
      <trkpt lat="47.69451" lon="6.00268">
        <ele>264.79998779297</ele>
        <time>2012-05-04T08:49:00.000Z</time>
      </trkpt>
      <trkpt lat="47.69441" lon="6.00285">
        <ele>264.79998779297</ele>
        <time>2012-05-04T08:49:03.000Z</time>
      </trkpt>
      <trkpt lat="47.69422" lon="6.00319">
        <ele>264.79998779297</ele>
        <time>2012-05-04T08:49:09.000Z</time>
      </trkpt>
      <trkpt lat="47.69419" lon="6.00324">
        <ele>264.39999389648</ele>
        <time>2012-05-04T08:49:10.000Z</time>
      </trkpt>
      <trkpt lat="47.69417" lon="6.00329">
        <ele>264</ele>
        <time>2012-05-04T08:49:11.000Z</time>
      </trkpt>
      <trkpt lat="47.69414" lon="6.00334">
        <ele>263.60000610352</ele>
        <time>2012-05-04T08:49:12.000Z</time>
      </trkpt>
      <trkpt lat="47.69411" lon="6.00338">
        <ele>263.20001220703</ele>
        <time>2012-05-04T08:49:13.000Z</time>
      </trkpt>
      <trkpt lat="47.69408" lon="6.00343">
        <ele>262.79998779297</ele>
        <time>2012-05-04T08:49:14.000Z</time>
      </trkpt>
      <trkpt lat="47.69405" lon="6.00348">
        <ele>262.79998779297</ele>
        <time>2012-05-04T08:49:15.000Z</time>
      </trkpt>
      <trkpt lat="47.6939" lon="6.00373">
        <ele>262.79998779297</ele>
        <time>2012-05-04T08:49:21.000Z</time>
      </trkpt>
      <trkpt lat="47.69382" lon="6.00384">
        <ele>262.79998779297</ele>
        <time>2012-05-04T08:49:26.000Z</time>
      </trkpt>
      <trkpt lat="47.69381" lon="6.00384">
        <ele>262.79998779297</ele>
        <time>2012-05-04T08:49:27.000Z</time>
      </trkpt>
      <trkpt lat="47.69381" lon="6.00383">
        <ele>262.79998779297</ele>
        <time>2012-05-04T08:51:20.000Z</time>
      </trkpt>
      <trkpt lat="47.69381" lon="6.00383">
        <ele>262.79998779297</ele>
        <time>2012-05-04T08:51:21.000Z</time>
      </trkpt>
      <trkpt lat="47.69381" lon="6.00384">
        <ele>262.79998779297</ele>
        <time>2012-05-04T08:51:37.000Z</time>
      </trkpt>
      <trkpt lat="47.69381" lon="6.00383">
        <ele>262.79998779297</ele>
        <time>2012-05-04T08:51:38.000Z</time>
      </trkpt>
      <trkpt lat="47.69382" lon="6.00384">
        <ele>262.79998779297</ele>
        <time>2012-05-04T08:51:42.000Z</time>
      </trkpt>
      <trkpt lat="47.69383" lon="6.00379">
        <ele>262.79998779297</ele>
        <time>2012-05-04T08:51:46.000Z</time>
      </trkpt>
      <trkpt lat="47.6938" lon="6.00368">
        <ele>262.79998779297</ele>
        <time>2012-05-04T08:51:52.000Z</time>
      </trkpt>
      <trkpt lat="47.69373" lon="6.00353">
        <ele>262.79998779297</ele>
        <time>2012-05-04T08:51:58.000Z</time>
      </trkpt>
      <trkpt lat="47.6937" lon="6.00349">
        <ele>262.39999389648</ele>
        <time>2012-05-04T08:52:00.000Z</time>
      </trkpt>
      <trkpt lat="47.69368" lon="6.00346">
        <ele>261.79998779297</ele>
        <time>2012-05-04T08:52:01.000Z</time>
      </trkpt>
      <trkpt lat="47.69366" lon="6.00344">
        <ele>261</ele>
        <time>2012-05-04T08:52:02.000Z</time>
      </trkpt>
      <trkpt lat="47.69364" lon="6.00341">
        <ele>260.60000610352</ele>
        <time>2012-05-04T08:52:03.000Z</time>
      </trkpt>
      <trkpt lat="47.69362" lon="6.00339">
        <ele>260.60000610352</ele>
        <time>2012-05-04T08:52:04.000Z</time>
      </trkpt>
      <trkpt lat="47.69353" lon="6.00326">
        <ele>260.60000610352</ele>
        <time>2012-05-04T08:52:08.000Z</time>
      </trkpt>
      <trkpt lat="47.69345" lon="6.00309">
        <ele>260.60000610352</ele>
        <time>2012-05-04T08:52:13.000Z</time>
      </trkpt>
      <trkpt lat="47.69334" lon="6.00285">
        <ele>260.60000610352</ele>
        <time>2012-05-04T08:52:19.000Z</time>
      </trkpt>
      <trkpt lat="47.69326" lon="6.00272">
        <ele>260.20001220703</ele>
        <time>2012-05-04T08:52:22.000Z</time>
      </trkpt>
      <trkpt lat="47.69323" lon="6.00268">
        <ele>259.60000610352</ele>
        <time>2012-05-04T08:52:23.000Z</time>
      </trkpt>
      <trkpt lat="47.6932" lon="6.00263">
        <ele>259.20001220703</ele>
        <time>2012-05-04T08:52:24.000Z</time>
      </trkpt>
      <trkpt lat="47.69318" lon="6.00259">
        <ele>258.79998779297</ele>
        <time>2012-05-04T08:52:25.000Z</time>
      </trkpt>
      <trkpt lat="47.69316" lon="6.00254">
        <ele>258.39999389648</ele>
        <time>2012-05-04T08:52:26.000Z</time>
      </trkpt>
      <trkpt lat="47.69309" lon="6.00244">
        <ele>258.39999389648</ele>
        <time>2012-05-04T08:52:29.000Z</time>
      </trkpt>
      <trkpt lat="47.69305" lon="6.00238">
        <ele>258.39999389648</ele>
        <time>2012-05-04T08:52:31.000Z</time>
      </trkpt>
      <trkpt lat="47.69299" lon="6.00229">
        <ele>258.39999389648</ele>
        <time>2012-05-04T08:52:35.000Z</time>
      </trkpt>
      <trkpt lat="47.69289" lon="6.00209">
        <ele>258</ele>
        <time>2012-05-04T08:52:40.000Z</time>
      </trkpt>
      <trkpt lat="47.69287" lon="6.00206">
        <ele>257.60000610352</ele>
        <time>2012-05-04T08:52:41.000Z</time>
      </trkpt>
      <trkpt lat="47.69285" lon="6.00202">
        <ele>257.20001220703</ele>
        <time>2012-05-04T08:52:42.000Z</time>
      </trkpt>
      <trkpt lat="47.69283" lon="6.00199">
        <ele>256.79998779297</ele>
        <time>2012-05-04T08:52:43.000Z</time>
      </trkpt>
      <trkpt lat="47.69281" lon="6.00195">
        <ele>256.39999389648</ele>
        <time>2012-05-04T08:52:44.000Z</time>
      </trkpt>
      <trkpt lat="47.69273" lon="6.00181">
        <ele>256.39999389648</ele>
        <time>2012-05-04T08:52:48.000Z</time>
      </trkpt>
      <trkpt lat="47.69258" lon="6.00156">
        <ele>256.39999389648</ele>
        <time>2012-05-04T08:52:54.000Z</time>
      </trkpt>
      <trkpt lat="47.69241" lon="6.00127">
        <ele>256</ele>
        <time>2012-05-04T08:53:02.000Z</time>
      </trkpt>
      <trkpt lat="47.6924" lon="6.00123">
        <ele>255.39999389648</ele>
        <time>2012-05-04T08:53:03.000Z</time>
      </trkpt>
      <trkpt lat="47.69237" lon="6.0012">
        <ele>255</ele>
        <time>2012-05-04T08:53:04.000Z</time>
      </trkpt>
      <trkpt lat="47.69235" lon="6.00116">
        <ele>254.60000610352</ele>
        <time>2012-05-04T08:53:05.000Z</time>
      </trkpt>
      <trkpt lat="47.69233" lon="6.00113">
        <ele>254.19999694824</ele>
        <time>2012-05-04T08:53:06.000Z</time>
      </trkpt>
      <trkpt lat="47.69221" lon="6.00097">
        <ele>254.19999694824</ele>
        <time>2012-05-04T08:53:12.000Z</time>
      </trkpt>
      <trkpt lat="47.69211" lon="6.00084">
        <ele>254.19999694824</ele>
        <time>2012-05-04T08:53:18.000Z</time>
      </trkpt>
      <trkpt lat="47.69205" lon="6.00072">
        <ele>254.19999694824</ele>
        <time>2012-05-04T08:53:24.000Z</time>
      </trkpt>
      <trkpt lat="47.69205" lon="6.00071">
        <ele>254.19999694824</ele>
        <time>2012-05-04T08:53:25.000Z</time>
      </trkpt>
      <trkpt lat="47.69201" lon="6.00067">
        <ele>254.19999694824</ele>
        <time>2012-05-04T08:53:28.000Z</time>
      </trkpt>
      <trkpt lat="47.692" lon="6.00066">
        <ele>254.19999694824</ele>
        <time>2012-05-04T08:53:29.000Z</time>
      </trkpt>
      <trkpt lat="47.69198" lon="6.00064">
        <ele>254.19999694824</ele>
        <time>2012-05-04T08:53:31.000Z</time>
      </trkpt>
      <trkpt lat="47.69192" lon="6.00066">
        <ele>254.19999694824</ele>
        <time>2012-05-04T08:53:35.000Z</time>
      </trkpt>
      <trkpt lat="47.69189" lon="6.0007">
        <ele>254.19999694824</ele>
        <time>2012-05-04T08:53:38.000Z</time>
      </trkpt>
      <trkpt lat="47.69186" lon="6.00073">
        <ele>254.19999694824</ele>
        <time>2012-05-04T08:53:40.000Z</time>
      </trkpt>
      <trkpt lat="47.69185" lon="6.00075">
        <ele>254.19999694824</ele>
        <time>2012-05-04T08:53:41.000Z</time>
      </trkpt>
      <trkpt lat="47.69174" lon="6.00092">
        <ele>254.19999694824</ele>
        <time>2012-05-04T08:53:46.000Z</time>
      </trkpt>
      <trkpt lat="47.6917" lon="6.00099">
        <ele>253.80000305176</ele>
        <time>2012-05-04T08:53:48.000Z</time>
      </trkpt>
      <trkpt lat="47.69168" lon="6.00103">
        <ele>253.39999389648</ele>
        <time>2012-05-04T08:53:49.000Z</time>
      </trkpt>
      <trkpt lat="47.69166" lon="6.00106">
        <ele>253</ele>
        <time>2012-05-04T08:53:50.000Z</time>
      </trkpt>
      <trkpt lat="47.69163" lon="6.0011">
        <ele>252.39999389648</ele>
        <time>2012-05-04T08:53:51.000Z</time>
      </trkpt>
      <trkpt lat="47.69161" lon="6.00114">
        <ele>252</ele>
        <time>2012-05-04T08:53:52.000Z</time>
      </trkpt>
      <trkpt lat="47.69159" lon="6.00117">
        <ele>252</ele>
        <time>2012-05-04T08:53:53.000Z</time>
      </trkpt>
      <trkpt lat="47.69143" lon="6.00142">
        <ele>252</ele>
        <time>2012-05-04T08:53:59.000Z</time>
      </trkpt>
      <trkpt lat="47.69138" lon="6.00148">
        <ele>251.60000610352</ele>
        <time>2012-05-04T08:54:01.000Z</time>
      </trkpt>
      <trkpt lat="47.69136" lon="6.0015">
        <ele>251.19999694824</ele>
        <time>2012-05-04T08:54:02.000Z</time>
      </trkpt>
      <trkpt lat="47.69134" lon="6.00152">
        <ele>250.60000610352</ele>
        <time>2012-05-04T08:54:03.000Z</time>
      </trkpt>
      <trkpt lat="47.69132" lon="6.00154">
        <ele>250.19999694824</ele>
        <time>2012-05-04T08:54:04.000Z</time>
      </trkpt>
      <trkpt lat="47.69129" lon="6.00157">
        <ele>249.60000610352</ele>
        <time>2012-05-04T08:54:05.000Z</time>
      </trkpt>
      <trkpt lat="47.69124" lon="6.00163">
        <ele>249.19999694824</ele>
        <time>2012-05-04T08:54:07.000Z</time>
      </trkpt>
      <trkpt lat="47.69121" lon="6.00165">
        <ele>248.80000305176</ele>
        <time>2012-05-04T08:54:08.000Z</time>
      </trkpt>
      <trkpt lat="47.69119" lon="6.00167">
        <ele>248.39999389648</ele>
        <time>2012-05-04T08:54:09.000Z</time>
      </trkpt>
      <trkpt lat="47.69117" lon="6.0017">
        <ele>248</ele>
        <time>2012-05-04T08:54:10.000Z</time>
      </trkpt>
      <trkpt lat="47.69115" lon="6.00172">
        <ele>247.60000610352</ele>
        <time>2012-05-04T08:54:11.000Z</time>
      </trkpt>
      <trkpt lat="47.69111" lon="6.00175">
        <ele>247.60000610352</ele>
        <time>2012-05-04T08:54:13.000Z</time>
      </trkpt>
      <trkpt lat="47.69111" lon="6.00177">
        <ele>247.60000610352</ele>
        <time>2012-05-04T08:54:14.000Z</time>
      </trkpt>
      <trkpt lat="47.69107" lon="6.00183">
        <ele>247.60000610352</ele>
        <time>2012-05-04T08:54:18.000Z</time>
      </trkpt>
      <trkpt lat="47.69101" lon="6.0019">
        <ele>248</ele>
        <time>2012-05-04T08:54:23.000Z</time>
      </trkpt>
      <trkpt lat="47.69099" lon="6.00193">
        <ele>248.39999389648</ele>
        <time>2012-05-04T08:54:24.000Z</time>
      </trkpt>
      <trkpt lat="47.69096" lon="6.00195">
        <ele>248.80000305176</ele>
        <time>2012-05-04T08:54:25.000Z</time>
      </trkpt>
      <trkpt lat="47.69094" lon="6.00198">
        <ele>249.19999694824</ele>
        <time>2012-05-04T08:54:26.000Z</time>
      </trkpt>
      <trkpt lat="47.69092" lon="6.002">
        <ele>249.60000610352</ele>
        <time>2012-05-04T08:54:27.000Z</time>
      </trkpt>
      <trkpt lat="47.69084" lon="6.00211">
        <ele>249.60000610352</ele>
        <time>2012-05-04T08:54:31.000Z</time>
      </trkpt>
      <trkpt lat="47.6908" lon="6.00215">
        <ele>249.60000610352</ele>
        <time>2012-05-04T08:54:33.000Z</time>
      </trkpt>
      <trkpt lat="47.6907" lon="6.00225">
        <ele>249.60000610352</ele>
        <time>2012-05-04T08:54:39.000Z</time>
      </trkpt>
      <trkpt lat="47.69068" lon="6.00226">
        <ele>249.60000610352</ele>
        <time>2012-05-04T08:54:41.000Z</time>
      </trkpt>
      <trkpt lat="47.69068" lon="6.00227">
        <ele>249.60000610352</ele>
        <time>2012-05-04T08:54:42.000Z</time>
      </trkpt>
      <trkpt lat="47.69066" lon="6.00229">
        <ele>249.60000610352</ele>
        <time>2012-05-04T08:54:49.000Z</time>
      </trkpt>
      <trkpt lat="47.69065" lon="6.00231">
        <ele>249.60000610352</ele>
        <time>2012-05-04T08:54:50.000Z</time>
      </trkpt>
      <trkpt lat="47.69064" lon="6.00233">
        <ele>249.60000610352</ele>
        <time>2012-05-04T08:54:52.000Z</time>
      </trkpt>
      <trkpt lat="47.69059" lon="6.00239">
        <ele>251</ele>
        <time>2012-05-04T08:54:59.000Z</time>
      </trkpt>
      <trkpt lat="47.69058" lon="6.00241">
        <ele>251.39999389648</ele>
        <time>2012-05-04T08:55:00.000Z</time>
      </trkpt>
      <trkpt lat="47.69057" lon="6.00242">
        <ele>251.80000305176</ele>
        <time>2012-05-04T08:55:01.000Z</time>
      </trkpt>
      <trkpt lat="47.69057" lon="6.00243">
        <ele>251.80000305176</ele>
        <time>2012-05-04T08:55:02.000Z</time>
      </trkpt>
      <trkpt lat="47.69056" lon="6.00244">
        <ele>251.80000305176</ele>
        <time>2012-05-04T08:55:04.000Z</time>
      </trkpt>
      <trkpt lat="47.69055" lon="6.00245">
        <ele>251.80000305176</ele>
        <time>2012-05-04T08:55:06.000Z</time>
      </trkpt>
      <trkpt lat="47.69054" lon="6.00246">
        <ele>251.80000305176</ele>
        <time>2012-05-04T08:55:07.000Z</time>
      </trkpt>
      <trkpt lat="47.69054" lon="6.00247">
        <ele>251.80000305176</ele>
        <time>2012-05-04T08:55:08.000Z</time>
      </trkpt>
      <trkpt lat="47.69053" lon="6.00248">
        <ele>252.19999694824</ele>
        <time>2012-05-04T08:55:10.000Z</time>
      </trkpt>
      <trkpt lat="47.69053" lon="6.00248">
        <ele>252.60000610352</ele>
        <time>2012-05-04T08:55:11.000Z</time>
      </trkpt>
      <trkpt lat="47.69052" lon="6.00248">
        <ele>253</ele>
        <time>2012-05-04T08:55:12.000Z</time>
      </trkpt>
      <trkpt lat="47.69052" lon="6.00249">
        <ele>253.39999389648</ele>
        <time>2012-05-04T08:55:13.000Z</time>
      </trkpt>
      <trkpt lat="47.69051" lon="6.00249">
        <ele>254</ele>
        <time>2012-05-04T08:55:14.000Z</time>
      </trkpt>
      <trkpt lat="47.69051" lon="6.0025">
        <ele>254</ele>
        <time>2012-05-04T08:55:15.000Z</time>
      </trkpt>
      <trkpt lat="47.69049" lon="6.00252">
        <ele>254</ele>
        <time>2012-05-04T08:55:20.000Z</time>
      </trkpt>
      <trkpt lat="47.69049" lon="6.00252">
        <ele>254</ele>
        <time>2012-05-04T08:55:21.000Z</time>
      </trkpt>
      <trkpt lat="47.69048" lon="6.00252">
        <ele>254</ele>
        <time>2012-05-04T08:55:22.000Z</time>
      </trkpt>
      <trkpt lat="47.69048" lon="6.00253">
        <ele>254.39999389648</ele>
        <time>2012-05-04T08:55:23.000Z</time>
      </trkpt>
      <trkpt lat="47.69047" lon="6.00254">
        <ele>254.80000305176</ele>
        <time>2012-05-04T08:55:24.000Z</time>
      </trkpt>
      <trkpt lat="47.69047" lon="6.00254">
        <ele>255.19999694824</ele>
        <time>2012-05-04T08:55:25.000Z</time>
      </trkpt>
      <trkpt lat="47.69046" lon="6.00255">
        <ele>256</ele>
        <time>2012-05-04T08:55:28.000Z</time>
      </trkpt>
      <trkpt lat="47.69046" lon="6.00256">
        <ele>256</ele>
        <time>2012-05-04T08:55:29.000Z</time>
      </trkpt>
      <trkpt lat="47.69044" lon="6.00259">
        <ele>256</ele>
        <time>2012-05-04T08:55:33.000Z</time>
      </trkpt>
      <trkpt lat="47.69042" lon="6.00259">
        <ele>256</ele>
        <time>2012-05-04T08:55:34.000Z</time>
      </trkpt>
      <trkpt lat="47.69039" lon="6.00263">
        <ele>256.39999389648</ele>
        <time>2012-05-04T08:55:39.000Z</time>
      </trkpt>
      <trkpt lat="47.69038" lon="6.00263">
        <ele>256.79998779297</ele>
        <time>2012-05-04T08:55:40.000Z</time>
      </trkpt>
      <trkpt lat="47.69037" lon="6.00263">
        <ele>257.20001220703</ele>
        <time>2012-05-04T08:55:41.000Z</time>
      </trkpt>
      <trkpt lat="47.69037" lon="6.00264">
        <ele>258.20001220703</ele>
        <time>2012-05-04T08:55:43.000Z</time>
      </trkpt>
      <trkpt lat="47.69034" lon="6.00266">
        <ele>258.20001220703</ele>
        <time>2012-05-04T08:55:47.000Z</time>
      </trkpt>
      <trkpt lat="47.69031" lon="6.00268">
        <ele>258.20001220703</ele>
        <time>2012-05-04T08:55:51.000Z</time>
      </trkpt>
      <trkpt lat="47.6903" lon="6.00269">
        <ele>258.20001220703</ele>
        <time>2012-05-04T08:55:53.000Z</time>
      </trkpt>
      <trkpt lat="47.6903" lon="6.00269">
        <ele>258.60000610352</ele>
        <time>2012-05-04T08:55:56.000Z</time>
      </trkpt>
      <trkpt lat="47.6903" lon="6.00269">
        <ele>259</ele>
        <time>2012-05-04T08:55:57.000Z</time>
      </trkpt>
      <trkpt lat="47.6903" lon="6.0027">
        <ele>259.39999389648</ele>
        <time>2012-05-04T08:55:58.000Z</time>
      </trkpt>
      <trkpt lat="47.69029" lon="6.0027">
        <ele>259.79998779297</ele>
        <time>2012-05-04T08:55:59.000Z</time>
      </trkpt>
      <trkpt lat="47.69029" lon="6.00272">
        <ele>260.20001220703</ele>
        <time>2012-05-04T08:56:00.000Z</time>
      </trkpt>
      <trkpt lat="47.69023" lon="6.00277">
        <ele>260.20001220703</ele>
        <time>2012-05-04T08:56:05.000Z</time>
      </trkpt>
      <trkpt lat="47.6902" lon="6.0028">
        <ele>260.20001220703</ele>
        <time>2012-05-04T08:56:09.000Z</time>
      </trkpt>
      <trkpt lat="47.69018" lon="6.00281">
        <ele>260.20001220703</ele>
        <time>2012-05-04T08:56:11.000Z</time>
      </trkpt>
      <trkpt lat="47.69017" lon="6.00283">
        <ele>260.20001220703</ele>
        <time>2012-05-04T08:56:13.000Z</time>
      </trkpt>
      <trkpt lat="47.69017" lon="6.00283">
        <ele>260.20001220703</ele>
        <time>2012-05-04T08:56:21.000Z</time>
      </trkpt>
      <trkpt lat="47.69014" lon="6.00286">
        <ele>260.20001220703</ele>
        <time>2012-05-04T08:56:24.000Z</time>
      </trkpt>
      <trkpt lat="47.69013" lon="6.00288">
        <ele>260.20001220703</ele>
        <time>2012-05-04T08:56:25.000Z</time>
      </trkpt>
      <trkpt lat="47.69011" lon="6.0029">
        <ele>260.60000610352</ele>
        <time>2012-05-04T08:56:27.000Z</time>
      </trkpt>
      <trkpt lat="47.6901" lon="6.00291">
        <ele>261</ele>
        <time>2012-05-04T08:56:28.000Z</time>
      </trkpt>
      <trkpt lat="47.69008" lon="6.00293">
        <ele>261.39999389648</ele>
        <time>2012-05-04T08:56:29.000Z</time>
      </trkpt>
      <trkpt lat="47.69007" lon="6.00294">
        <ele>261.79998779297</ele>
        <time>2012-05-04T08:56:30.000Z</time>
      </trkpt>
      <trkpt lat="47.69006" lon="6.00296">
        <ele>262.20001220703</ele>
        <time>2012-05-04T08:56:31.000Z</time>
      </trkpt>
      <trkpt lat="47.69002" lon="6.00302">
        <ele>262.20001220703</ele>
        <time>2012-05-04T08:56:36.000Z</time>
      </trkpt>
      <trkpt lat="47.68996" lon="6.0031">
        <ele>262.20001220703</ele>
        <time>2012-05-04T08:56:42.000Z</time>
      </trkpt>
      <trkpt lat="47.68987" lon="6.00321">
        <ele>262.20001220703</ele>
        <time>2012-05-04T08:56:49.000Z</time>
      </trkpt>
      <trkpt lat="47.68977" lon="6.00333">
        <ele>262.20001220703</ele>
        <time>2012-05-04T08:56:56.000Z</time>
      </trkpt>
      <trkpt lat="47.68972" lon="6.00337">
        <ele>262.20001220703</ele>
        <time>2012-05-04T08:57:01.000Z</time>
      </trkpt>
      <trkpt lat="47.68966" lon="6.00346">
        <ele>262.20001220703</ele>
        <time>2012-05-04T08:57:07.000Z</time>
      </trkpt>
      <trkpt lat="47.68956" lon="6.00359">
        <ele>261.79998779297</ele>
        <time>2012-05-04T08:57:12.000Z</time>
      </trkpt>
      <trkpt lat="47.68954" lon="6.00362">
        <ele>261.39999389648</ele>
        <time>2012-05-04T08:57:13.000Z</time>
      </trkpt>
      <trkpt lat="47.68952" lon="6.00365">
        <ele>261</ele>
        <time>2012-05-04T08:57:14.000Z</time>
      </trkpt>
      <trkpt lat="47.6895" lon="6.00368">
        <ele>260.39999389648</ele>
        <time>2012-05-04T08:57:15.000Z</time>
      </trkpt>
      <trkpt lat="47.68949" lon="6.0037">
        <ele>260</ele>
        <time>2012-05-04T08:57:16.000Z</time>
      </trkpt>
      <trkpt lat="47.68944" lon="6.00375">
        <ele>260</ele>
        <time>2012-05-04T08:57:19.000Z</time>
      </trkpt>
      <trkpt lat="47.68939" lon="6.00378">
        <ele>260</ele>
        <time>2012-05-04T08:57:22.000Z</time>
      </trkpt>
      <trkpt lat="47.68934" lon="6.00383">
        <ele>260</ele>
        <time>2012-05-04T08:57:25.000Z</time>
      </trkpt>
      <trkpt lat="47.6893" lon="6.00389">
        <ele>260</ele>
        <time>2012-05-04T08:57:30.000Z</time>
      </trkpt>
      <trkpt lat="47.68929" lon="6.00389">
        <ele>260</ele>
        <time>2012-05-04T08:57:35.000Z</time>
      </trkpt>
      <trkpt lat="47.68929" lon="6.0039">
        <ele>260</ele>
        <time>2012-05-04T08:57:36.000Z</time>
      </trkpt>
      <trkpt lat="47.68926" lon="6.00392">
        <ele>260</ele>
        <time>2012-05-04T08:57:38.000Z</time>
      </trkpt>
      <trkpt lat="47.6892" lon="6.00393">
        <ele>260</ele>
        <time>2012-05-04T08:57:41.000Z</time>
      </trkpt>
      <trkpt lat="47.6891" lon="6.004">
        <ele>260</ele>
        <time>2012-05-04T08:57:45.000Z</time>
      </trkpt>
      <trkpt lat="47.68907" lon="6.004">
        <ele>260</ele>
        <time>2012-05-04T08:57:46.000Z</time>
      </trkpt>
      <trkpt lat="47.68901" lon="6.00397">
        <ele>260</ele>
        <time>2012-05-04T08:57:48.000Z</time>
      </trkpt>
      <trkpt lat="47.68896" lon="6.00394">
        <ele>260</ele>
        <time>2012-05-04T08:57:50.000Z</time>
      </trkpt>
      <trkpt lat="47.68878" lon="6.00386">
        <ele>260</ele>
        <time>2012-05-04T08:57:56.000Z</time>
      </trkpt>
      <trkpt lat="47.68876" lon="6.00384">
        <ele>260</ele>
        <time>2012-05-04T08:57:57.000Z</time>
      </trkpt>
      <trkpt lat="47.68853" lon="6.00368">
        <ele>260</ele>
        <time>2012-05-04T08:58:04.000Z</time>
      </trkpt>
      <trkpt lat="47.6885" lon="6.00368">
        <ele>259.60000610352</ele>
        <time>2012-05-04T08:58:05.000Z</time>
      </trkpt>
      <trkpt lat="47.68847" lon="6.00367">
        <ele>259.20001220703</ele>
        <time>2012-05-04T08:58:06.000Z</time>
      </trkpt>
      <trkpt lat="47.68844" lon="6.00366">
        <ele>258.79998779297</ele>
        <time>2012-05-04T08:58:07.000Z</time>
      </trkpt>
      <trkpt lat="47.68842" lon="6.00364">
        <ele>258.39999389648</ele>
        <time>2012-05-04T08:58:08.000Z</time>
      </trkpt>
      <trkpt lat="47.68839" lon="6.00363">
        <ele>258</ele>
        <time>2012-05-04T08:58:09.000Z</time>
      </trkpt>
      <trkpt lat="47.68837" lon="6.00363">
        <ele>258</ele>
        <time>2012-05-04T08:58:10.000Z</time>
      </trkpt>
      <trkpt lat="47.68826" lon="6.00354">
        <ele>258</ele>
        <time>2012-05-04T08:58:16.000Z</time>
      </trkpt>
      <trkpt lat="47.68809" lon="6.00335">
        <ele>258</ele>
        <time>2012-05-04T08:58:24.000Z</time>
      </trkpt>
      <trkpt lat="47.68803" lon="6.00317">
        <ele>258</ele>
        <time>2012-05-04T08:58:29.000Z</time>
      </trkpt>
      <trkpt lat="47.68797" lon="6.00289">
        <ele>258</ele>
        <time>2012-05-04T08:58:34.000Z</time>
      </trkpt>
      <trkpt lat="47.68791" lon="6.0027">
        <ele>257.20001220703</ele>
        <time>2012-05-04T08:58:37.000Z</time>
      </trkpt>
      <trkpt lat="47.6879" lon="6.00263">
        <ele>256.79998779297</ele>
        <time>2012-05-04T08:58:38.000Z</time>
      </trkpt>
      <trkpt lat="47.68788" lon="6.00256">
        <ele>256.39999389648</ele>
        <time>2012-05-04T08:58:39.000Z</time>
      </trkpt>
      <trkpt lat="47.68787" lon="6.0025">
        <ele>256</ele>
        <time>2012-05-04T08:58:40.000Z</time>
      </trkpt>
      <trkpt lat="47.68773" lon="6.00203">
        <ele>256</ele>
        <time>2012-05-04T08:58:47.000Z</time>
      </trkpt>
      <trkpt lat="47.68766" lon="6.00185">
        <ele>256</ele>
        <time>2012-05-04T08:58:50.000Z</time>
      </trkpt>
      <trkpt lat="47.68761" lon="6.00174">
        <ele>255.60000610352</ele>
        <time>2012-05-04T08:58:52.000Z</time>
      </trkpt>
      <trkpt lat="47.68759" lon="6.0017">
        <ele>255.19999694824</ele>
        <time>2012-05-04T08:58:53.000Z</time>
      </trkpt>
      <trkpt lat="47.68756" lon="6.00165">
        <ele>254.80000305176</ele>
        <time>2012-05-04T08:58:54.000Z</time>
      </trkpt>
      <trkpt lat="47.68753" lon="6.00161">
        <ele>254.19999694824</ele>
        <time>2012-05-04T08:58:55.000Z</time>
      </trkpt>
      <trkpt lat="47.68751" lon="6.00158">
        <ele>253.80000305176</ele>
        <time>2012-05-04T08:58:56.000Z</time>
      </trkpt>
      <trkpt lat="47.68744" lon="6.00145">
        <ele>253.80000305176</ele>
        <time>2012-05-04T08:58:59.000Z</time>
      </trkpt>
      <trkpt lat="47.68723" lon="6.00111">
        <ele>253.80000305176</ele>
        <time>2012-05-04T08:59:08.000Z</time>
      </trkpt>
      <trkpt lat="47.68718" lon="6.00111">
        <ele>253.39999389648</ele>
        <time>2012-05-04T08:59:10.000Z</time>
      </trkpt>
      <trkpt lat="47.68716" lon="6.00114">
        <ele>253</ele>
        <time>2012-05-04T08:59:11.000Z</time>
      </trkpt>
      <trkpt lat="47.68714" lon="6.00116">
        <ele>252.60000610352</ele>
        <time>2012-05-04T08:59:12.000Z</time>
      </trkpt>
      <trkpt lat="47.68712" lon="6.00119">
        <ele>252.19999694824</ele>
        <time>2012-05-04T08:59:13.000Z</time>
      </trkpt>
      <trkpt lat="47.68711" lon="6.00121">
        <ele>251.80000305176</ele>
        <time>2012-05-04T08:59:14.000Z</time>
      </trkpt>
      <trkpt lat="47.68707" lon="6.00128">
        <ele>251.80000305176</ele>
        <time>2012-05-04T08:59:17.000Z</time>
      </trkpt>
      <trkpt lat="47.68696" lon="6.00144">
        <ele>251.80000305176</ele>
        <time>2012-05-04T08:59:24.000Z</time>
      </trkpt>
      <trkpt lat="47.68691" lon="6.00151">
        <ele>251.80000305176</ele>
        <time>2012-05-04T08:59:30.000Z</time>
      </trkpt>
      <trkpt lat="47.68688" lon="6.00163">
        <ele>251.80000305176</ele>
        <time>2012-05-04T08:59:37.000Z</time>
      </trkpt>
      <trkpt lat="47.68688" lon="6.00166">
        <ele>251.80000305176</ele>
        <time>2012-05-04T08:59:38.000Z</time>
      </trkpt>
      <trkpt lat="47.68686" lon="6.00172">
        <ele>251.80000305176</ele>
        <time>2012-05-04T08:59:42.000Z</time>
      </trkpt>
      <trkpt lat="47.68685" lon="6.00175">
        <ele>251.80000305176</ele>
        <time>2012-05-04T08:59:45.000Z</time>
      </trkpt>
      <trkpt lat="47.68685" lon="6.00175">
        <ele>251.80000305176</ele>
        <time>2012-05-04T08:59:51.000Z</time>
      </trkpt>
      <trkpt lat="47.68684" lon="6.00176">
        <ele>251.80000305176</ele>
        <time>2012-05-04T08:59:53.000Z</time>
      </trkpt>
      <trkpt lat="47.68684" lon="6.00176">
        <ele>251.80000305176</ele>
        <time>2012-05-04T08:59:54.000Z</time>
      </trkpt>
      <trkpt lat="47.68683" lon="6.00176">
        <ele>251.80000305176</ele>
        <time>2012-05-04T08:59:55.000Z</time>
      </trkpt>
      <trkpt lat="47.68681" lon="6.00177">
        <ele>251.80000305176</ele>
        <time>2012-05-04T08:59:58.000Z</time>
      </trkpt>
      <trkpt lat="47.68679" lon="6.00177">
        <ele>251.80000305176</ele>
        <time>2012-05-04T09:00:05.000Z</time>
      </trkpt>
      <trkpt lat="47.68675" lon="6.00183">
        <ele>251.80000305176</ele>
        <time>2012-05-04T09:00:10.000Z</time>
      </trkpt>
      <trkpt lat="47.68671" lon="6.00188">
        <ele>251.80000305176</ele>
        <time>2012-05-04T09:00:14.000Z</time>
      </trkpt>
      <trkpt lat="47.68669" lon="6.00189">
        <ele>251.80000305176</ele>
        <time>2012-05-04T09:00:16.000Z</time>
      </trkpt>
      <trkpt lat="47.68667" lon="6.00195">
        <ele>251.80000305176</ele>
        <time>2012-05-04T09:00:22.000Z</time>
      </trkpt>
      <trkpt lat="47.68665" lon="6.00198">
        <ele>251.80000305176</ele>
        <time>2012-05-04T09:00:24.000Z</time>
      </trkpt>
      <trkpt lat="47.68665" lon="6.00201">
        <ele>251.80000305176</ele>
        <time>2012-05-04T09:00:27.000Z</time>
      </trkpt>
      <trkpt lat="47.68665" lon="6.00201">
        <ele>251.80000305176</ele>
        <time>2012-05-04T09:00:28.000Z</time>
      </trkpt>
      <trkpt lat="47.68662" lon="6.00205">
        <ele>251.80000305176</ele>
        <time>2012-05-04T09:00:33.000Z</time>
      </trkpt>
      <trkpt lat="47.68662" lon="6.00206">
        <ele>251.80000305176</ele>
        <time>2012-05-04T09:00:34.000Z</time>
      </trkpt>
      <trkpt lat="47.6866" lon="6.00207">
        <ele>251.80000305176</ele>
        <time>2012-05-04T09:00:37.000Z</time>
      </trkpt>
      <trkpt lat="47.6866" lon="6.00208">
        <ele>251.80000305176</ele>
        <time>2012-05-04T09:00:39.000Z</time>
      </trkpt>
      <trkpt lat="47.68659" lon="6.00209">
        <ele>252.60000610352</ele>
        <time>2012-05-04T09:00:40.000Z</time>
      </trkpt>
      <trkpt lat="47.68658" lon="6.00211">
        <ele>253</ele>
        <time>2012-05-04T09:00:41.000Z</time>
      </trkpt>
      <trkpt lat="47.68658" lon="6.00212">
        <ele>253.39999389648</ele>
        <time>2012-05-04T09:00:42.000Z</time>
      </trkpt>
      <trkpt lat="47.68657" lon="6.00213">
        <ele>253.80000305176</ele>
        <time>2012-05-04T09:00:43.000Z</time>
      </trkpt>
      <trkpt lat="47.68654" lon="6.00217">
        <ele>253.80000305176</ele>
        <time>2012-05-04T09:00:45.000Z</time>
      </trkpt>
      <trkpt lat="47.68651" lon="6.0022">
        <ele>253.80000305176</ele>
        <time>2012-05-04T09:00:47.000Z</time>
      </trkpt>
      <trkpt lat="47.68641" lon="6.00231">
        <ele>253.80000305176</ele>
        <time>2012-05-04T09:00:55.000Z</time>
      </trkpt>
      <trkpt lat="47.68635" lon="6.00238">
        <ele>253.80000305176</ele>
        <time>2012-05-04T09:01:01.000Z</time>
      </trkpt>
      <trkpt lat="47.68633" lon="6.00241">
        <ele>253.80000305176</ele>
        <time>2012-05-04T09:01:04.000Z</time>
      </trkpt>
      <trkpt lat="47.68633" lon="6.00241">
        <ele>253.80000305176</ele>
        <time>2012-05-04T09:01:10.000Z</time>
      </trkpt>
      <trkpt lat="47.68633" lon="6.00241">
        <ele>253.80000305176</ele>
        <time>2012-05-04T09:01:11.000Z</time>
      </trkpt>
      <trkpt lat="47.68633" lon="6.00241">
        <ele>253.80000305176</ele>
        <time>2012-05-04T09:01:12.000Z</time>
      </trkpt>
      <trkpt lat="47.68631" lon="6.00244">
        <ele>254.19999694824</ele>
        <time>2012-05-04T09:01:15.000Z</time>
      </trkpt>
      <trkpt lat="47.68631" lon="6.00245">
        <ele>254.60000610352</ele>
        <time>2012-05-04T09:01:16.000Z</time>
      </trkpt>
      <trkpt lat="47.68631" lon="6.00246">
        <ele>255</ele>
        <time>2012-05-04T09:01:17.000Z</time>
      </trkpt>
      <trkpt lat="47.68631" lon="6.00248">
        <ele>256</ele>
        <time>2012-05-04T09:01:20.000Z</time>
      </trkpt>
      <trkpt lat="47.68628" lon="6.00257">
        <ele>256</ele>
        <time>2012-05-04T09:01:27.000Z</time>
      </trkpt>
      <trkpt lat="47.68626" lon="6.00261">
        <ele>256</ele>
        <time>2012-05-04T09:01:31.000Z</time>
      </trkpt>
      <trkpt lat="47.68625" lon="6.00263">
        <ele>256</ele>
        <time>2012-05-04T09:01:33.000Z</time>
      </trkpt>
      <trkpt lat="47.68624" lon="6.00265">
        <ele>256</ele>
        <time>2012-05-04T09:01:35.000Z</time>
      </trkpt>
      <trkpt lat="47.68623" lon="6.00266">
        <ele>256</ele>
        <time>2012-05-04T09:01:36.000Z</time>
      </trkpt>
      <trkpt lat="47.68622" lon="6.00269">
        <ele>256</ele>
        <time>2012-05-04T09:01:39.000Z</time>
      </trkpt>
      <trkpt lat="47.68621" lon="6.00271">
        <ele>256</ele>
        <time>2012-05-04T09:01:42.000Z</time>
      </trkpt>
      <trkpt lat="47.68621" lon="6.00272">
        <ele>256</ele>
        <time>2012-05-04T09:01:43.000Z</time>
      </trkpt>
      <trkpt lat="47.6862" lon="6.00273">
        <ele>256.39999389648</ele>
        <time>2012-05-04T09:01:44.000Z</time>
      </trkpt>
      <trkpt lat="47.68619" lon="6.00274">
        <ele>256.79998779297</ele>
        <time>2012-05-04T09:01:45.000Z</time>
      </trkpt>
      <trkpt lat="47.68619" lon="6.00275">
        <ele>257.20001220703</ele>
        <time>2012-05-04T09:01:46.000Z</time>
      </trkpt>
      <trkpt lat="47.68618" lon="6.00276">
        <ele>257.60000610352</ele>
        <time>2012-05-04T09:01:47.000Z</time>
      </trkpt>
      <trkpt lat="47.68618" lon="6.00277">
        <ele>258</ele>
        <time>2012-05-04T09:01:48.000Z</time>
      </trkpt>
      <trkpt lat="47.68617" lon="6.00278">
        <ele>258</ele>
        <time>2012-05-04T09:01:49.000Z</time>
      </trkpt>
      <trkpt lat="47.68617" lon="6.00278">
        <ele>258</ele>
        <time>2012-05-04T09:01:50.000Z</time>
      </trkpt>
      <trkpt lat="47.68616" lon="6.00278">
        <ele>258</ele>
        <time>2012-05-04T09:01:51.000Z</time>
      </trkpt>
      <trkpt lat="47.68616" lon="6.00279">
        <ele>258</ele>
        <time>2012-05-04T09:01:52.000Z</time>
      </trkpt>
      <trkpt lat="47.68616" lon="6.00279">
        <ele>258</ele>
        <time>2012-05-04T09:01:56.000Z</time>
      </trkpt>
      <trkpt lat="47.68616" lon="6.00279">
        <ele>258</ele>
        <time>2012-05-04T09:01:57.000Z</time>
      </trkpt>
      <trkpt lat="47.68614" lon="6.0028">
        <ele>258</ele>
        <time>2012-05-04T09:01:59.000Z</time>
      </trkpt>
      <trkpt lat="47.68613" lon="6.00284">
        <ele>258</ele>
        <time>2012-05-04T09:02:03.000Z</time>
      </trkpt>
      <trkpt lat="47.68612" lon="6.00285">
        <ele>258</ele>
        <time>2012-05-04T09:02:08.000Z</time>
      </trkpt>
      <trkpt lat="47.68613" lon="6.00284">
        <ele>258</ele>
        <time>2012-05-04T09:02:10.000Z</time>
      </trkpt>
      <trkpt lat="47.68613" lon="6.00284">
        <ele>258</ele>
        <time>2012-05-04T09:02:12.000Z</time>
      </trkpt>
      <trkpt lat="47.68612" lon="6.00285">
        <ele>258</ele>
        <time>2012-05-04T09:02:13.000Z</time>
      </trkpt>
      <trkpt lat="47.68611" lon="6.00288">
        <ele>258</ele>
        <time>2012-05-04T09:02:15.000Z</time>
      </trkpt>
      <trkpt lat="47.6861" lon="6.00291">
        <ele>258</ele>
        <time>2012-05-04T09:02:18.000Z</time>
      </trkpt>
      <trkpt lat="47.68608" lon="6.00293">
        <ele>258.39999389648</ele>
        <time>2012-05-04T09:02:20.000Z</time>
      </trkpt>
      <trkpt lat="47.68606" lon="6.00294">
        <ele>258.79998779297</ele>
        <time>2012-05-04T09:02:21.000Z</time>
      </trkpt>
      <trkpt lat="47.68605" lon="6.00295">
        <ele>259.20001220703</ele>
        <time>2012-05-04T09:02:22.000Z</time>
      </trkpt>
      <trkpt lat="47.68604" lon="6.00297">
        <ele>259.60000610352</ele>
        <time>2012-05-04T09:02:23.000Z</time>
      </trkpt>
      <trkpt lat="47.68603" lon="6.00298">
        <ele>260</ele>
        <time>2012-05-04T09:02:24.000Z</time>
      </trkpt>
      <trkpt lat="47.68602" lon="6.00299">
        <ele>260</ele>
        <time>2012-05-04T09:02:25.000Z</time>
      </trkpt>
      <trkpt lat="47.68601" lon="6.003">
        <ele>260</ele>
        <time>2012-05-04T09:02:26.000Z</time>
      </trkpt>
      <trkpt lat="47.686" lon="6.00303">
        <ele>260</ele>
        <time>2012-05-04T09:02:29.000Z</time>
      </trkpt>
      <trkpt lat="47.68599" lon="6.00304">
        <ele>260</ele>
        <time>2012-05-04T09:02:30.000Z</time>
      </trkpt>
      <trkpt lat="47.68599" lon="6.00305">
        <ele>260</ele>
        <time>2012-05-04T09:02:31.000Z</time>
      </trkpt>
      <trkpt lat="47.68598" lon="6.00306">
        <ele>260</ele>
        <time>2012-05-04T09:02:32.000Z</time>
      </trkpt>
      <trkpt lat="47.68596" lon="6.00309">
        <ele>260</ele>
        <time>2012-05-04T09:02:34.000Z</time>
      </trkpt>
      <trkpt lat="47.68594" lon="6.00313">
        <ele>260</ele>
        <time>2012-05-04T09:02:37.000Z</time>
      </trkpt>
      <trkpt lat="47.68594" lon="6.00316">
        <ele>260</ele>
        <time>2012-05-04T09:02:39.000Z</time>
      </trkpt>
      <trkpt lat="47.68592" lon="6.0032">
        <ele>260</ele>
        <time>2012-05-04T09:02:43.000Z</time>
      </trkpt>
      <trkpt lat="47.6859" lon="6.00327">
        <ele>260</ele>
        <time>2012-05-04T09:02:55.000Z</time>
      </trkpt>
      <trkpt lat="47.68589" lon="6.00329">
        <ele>260</ele>
        <time>2012-05-04T09:02:57.000Z</time>
      </trkpt>
      <trkpt lat="47.68588" lon="6.0033">
        <ele>260</ele>
        <time>2012-05-04T09:02:58.000Z</time>
      </trkpt>
      <trkpt lat="47.68586" lon="6.00338">
        <ele>262</ele>
        <time>2012-05-04T09:03:08.000Z</time>
      </trkpt>
      <trkpt lat="47.68586" lon="6.00338">
        <ele>262</ele>
        <time>2012-05-04T09:03:09.000Z</time>
      </trkpt>
      <trkpt lat="47.68586" lon="6.00338">
        <ele>262</ele>
        <time>2012-05-04T09:03:17.000Z</time>
      </trkpt>
      <trkpt lat="47.68586" lon="6.00338">
        <ele>262</ele>
        <time>2012-05-04T09:03:18.000Z</time>
      </trkpt>
      <trkpt lat="47.68587" lon="6.00345">
        <ele>262</ele>
        <time>2012-05-04T09:03:23.000Z</time>
      </trkpt>
      <trkpt lat="47.68586" lon="6.00349">
        <ele>262</ele>
        <time>2012-05-04T09:03:26.000Z</time>
      </trkpt>
      <trkpt lat="47.68586" lon="6.00349">
        <ele>262</ele>
        <time>2012-05-04T09:03:27.000Z</time>
      </trkpt>
      <trkpt lat="47.68585" lon="6.00352">
        <ele>262</ele>
        <time>2012-05-04T09:03:29.000Z</time>
      </trkpt>
      <trkpt lat="47.68583" lon="6.00354">
        <ele>262</ele>
        <time>2012-05-04T09:03:31.000Z</time>
      </trkpt>
      <trkpt lat="47.68575" lon="6.00369">
        <ele>262.39999389648</ele>
        <time>2012-05-04T09:03:50.000Z</time>
      </trkpt>
      <trkpt lat="47.68575" lon="6.00371">
        <ele>262.79998779297</ele>
        <time>2012-05-04T09:03:51.000Z</time>
      </trkpt>
      <trkpt lat="47.68572" lon="6.00375">
        <ele>264</ele>
        <time>2012-05-04T09:03:59.000Z</time>
      </trkpt>
      <trkpt lat="47.68571" lon="6.00376">
        <ele>264</ele>
        <time>2012-05-04T09:04:00.000Z</time>
      </trkpt>
      <trkpt lat="47.6857" lon="6.00377">
        <ele>264</ele>
        <time>2012-05-04T09:04:01.000Z</time>
      </trkpt>
      <trkpt lat="47.68567" lon="6.0038">
        <ele>264</ele>
        <time>2012-05-04T09:04:05.000Z</time>
      </trkpt>
      <trkpt lat="47.68566" lon="6.0038">
        <ele>264</ele>
        <time>2012-05-04T09:04:06.000Z</time>
      </trkpt>
      <trkpt lat="47.68565" lon="6.0038">
        <ele>264</ele>
        <time>2012-05-04T09:04:09.000Z</time>
      </trkpt>
      <trkpt lat="47.68564" lon="6.0038">
        <ele>264</ele>
        <time>2012-05-04T09:04:10.000Z</time>
      </trkpt>
      <trkpt lat="47.68564" lon="6.0038">
        <ele>264</ele>
        <time>2012-05-04T09:04:11.000Z</time>
      </trkpt>
      <trkpt lat="47.68563" lon="6.0038">
        <ele>264</ele>
        <time>2012-05-04T09:04:12.000Z</time>
      </trkpt>
      <trkpt lat="47.68562" lon="6.00381">
        <ele>264</ele>
        <time>2012-05-04T09:04:13.000Z</time>
      </trkpt>
      <trkpt lat="47.68561" lon="6.00382">
        <ele>264</ele>
        <time>2012-05-04T09:04:14.000Z</time>
      </trkpt>
      <trkpt lat="47.6856" lon="6.00383">
        <ele>264</ele>
        <time>2012-05-04T09:04:16.000Z</time>
      </trkpt>
      <trkpt lat="47.68559" lon="6.00384">
        <ele>264</ele>
        <time>2012-05-04T09:04:17.000Z</time>
      </trkpt>
      <trkpt lat="47.68557" lon="6.00388">
        <ele>264</ele>
        <time>2012-05-04T09:04:20.000Z</time>
      </trkpt>
      <trkpt lat="47.68556" lon="6.00388">
        <ele>264</ele>
        <time>2012-05-04T09:04:23.000Z</time>
      </trkpt>
      <trkpt lat="47.68555" lon="6.0039">
        <ele>264.39999389648</ele>
        <time>2012-05-04T09:04:24.000Z</time>
      </trkpt>
      <trkpt lat="47.68555" lon="6.00391">
        <ele>264.79998779297</ele>
        <time>2012-05-04T09:04:25.000Z</time>
      </trkpt>
      <trkpt lat="47.68555" lon="6.00392">
        <ele>265.20001220703</ele>
        <time>2012-05-04T09:04:26.000Z</time>
      </trkpt>
      <trkpt lat="47.68552" lon="6.00392">
        <ele>266.20001220703</ele>
        <time>2012-05-04T09:04:29.000Z</time>
      </trkpt>
      <trkpt lat="47.6855" lon="6.00393">
        <ele>266.20001220703</ele>
        <time>2012-05-04T09:04:32.000Z</time>
      </trkpt>
      <trkpt lat="47.68547" lon="6.00392">
        <ele>266.20001220703</ele>
        <time>2012-05-04T09:04:37.000Z</time>
      </trkpt>
      <trkpt lat="47.68545" lon="6.00393">
        <ele>266.20001220703</ele>
        <time>2012-05-04T09:04:40.000Z</time>
      </trkpt>
      <trkpt lat="47.68543" lon="6.00397">
        <ele>266.20001220703</ele>
        <time>2012-05-04T09:04:43.000Z</time>
      </trkpt>
      <trkpt lat="47.68542" lon="6.00399">
        <ele>266.20001220703</ele>
        <time>2012-05-04T09:04:45.000Z</time>
      </trkpt>
      <trkpt lat="47.68541" lon="6.004">
        <ele>266.20001220703</ele>
        <time>2012-05-04T09:04:47.000Z</time>
      </trkpt>
      <trkpt lat="47.68541" lon="6.00401">
        <ele>266.20001220703</ele>
        <time>2012-05-04T09:04:48.000Z</time>
      </trkpt>
      <trkpt lat="47.6854" lon="6.00405">
        <ele>266.20001220703</ele>
        <time>2012-05-04T09:04:53.000Z</time>
      </trkpt>
      <trkpt lat="47.68538" lon="6.0041">
        <ele>266.20001220703</ele>
        <time>2012-05-04T09:04:56.000Z</time>
      </trkpt>
      <trkpt lat="47.68536" lon="6.00412">
        <ele>266.60000610352</ele>
        <time>2012-05-04T09:04:58.000Z</time>
      </trkpt>
      <trkpt lat="47.68536" lon="6.00413">
        <ele>267</ele>
        <time>2012-05-04T09:04:59.000Z</time>
      </trkpt>
      <trkpt lat="47.68535" lon="6.00413">
        <ele>267.39999389648</ele>
        <time>2012-05-04T09:05:00.000Z</time>
      </trkpt>
      <trkpt lat="47.68535" lon="6.00414">
        <ele>267.79998779297</ele>
        <time>2012-05-04T09:05:01.000Z</time>
      </trkpt>
      <trkpt lat="47.68535" lon="6.00415">
        <ele>268.20001220703</ele>
        <time>2012-05-04T09:05:02.000Z</time>
      </trkpt>
      <trkpt lat="47.68531" lon="6.0042">
        <ele>268.20001220703</ele>
        <time>2012-05-04T09:05:10.000Z</time>
      </trkpt>
      <trkpt lat="47.6853" lon="6.00422">
        <ele>268.20001220703</ele>
        <time>2012-05-04T09:05:12.000Z</time>
      </trkpt>
      <trkpt lat="47.68527" lon="6.00426">
        <ele>270.20001220703</ele>
        <time>2012-05-04T09:05:22.000Z</time>
      </trkpt>
      <trkpt lat="47.68526" lon="6.00428">
        <ele>270.20001220703</ele>
        <time>2012-05-04T09:05:25.000Z</time>
      </trkpt>
      <trkpt lat="47.68525" lon="6.00429">
        <ele>270.20001220703</ele>
        <time>2012-05-04T09:05:29.000Z</time>
      </trkpt>
      <trkpt lat="47.68525" lon="6.00431">
        <ele>270.20001220703</ele>
        <time>2012-05-04T09:05:30.000Z</time>
      </trkpt>
      <trkpt lat="47.68525" lon="6.00432">
        <ele>270.20001220703</ele>
        <time>2012-05-04T09:05:31.000Z</time>
      </trkpt>
      <trkpt lat="47.68524" lon="6.00435">
        <ele>270.20001220703</ele>
        <time>2012-05-04T09:05:34.000Z</time>
      </trkpt>
      <trkpt lat="47.68523" lon="6.00435">
        <ele>270.20001220703</ele>
        <time>2012-05-04T09:05:35.000Z</time>
      </trkpt>
      <trkpt lat="47.6852" lon="6.00437">
        <ele>272.20001220703</ele>
        <time>2012-05-04T09:05:40.000Z</time>
      </trkpt>
      <trkpt lat="47.68519" lon="6.00437">
        <ele>272.20001220703</ele>
        <time>2012-05-04T09:05:42.000Z</time>
      </trkpt>
      <trkpt lat="47.68515" lon="6.00444">
        <ele>272.60000610352</ele>
        <time>2012-05-04T09:09:02.000Z</time>
      </trkpt>
      <trkpt lat="47.68514" lon="6.00445">
        <ele>273.20001220703</ele>
        <time>2012-05-04T09:09:03.000Z</time>
      </trkpt>
      <trkpt lat="47.68513" lon="6.00446">
        <ele>273.60000610352</ele>
        <time>2012-05-04T09:09:04.000Z</time>
      </trkpt>
      <trkpt lat="47.68513" lon="6.00446">
        <ele>274</ele>
        <time>2012-05-04T09:09:05.000Z</time>
      </trkpt>
      <trkpt lat="47.68512" lon="6.00447">
        <ele>274.39999389648</ele>
        <time>2012-05-04T09:09:06.000Z</time>
      </trkpt>
      <trkpt lat="47.68511" lon="6.00448">
        <ele>274.39999389648</ele>
        <time>2012-05-04T09:09:07.000Z</time>
      </trkpt>
      <trkpt lat="47.6851" lon="6.00449">
        <ele>274.39999389648</ele>
        <time>2012-05-04T09:09:10.000Z</time>
      </trkpt>
      <trkpt lat="47.6851" lon="6.0045">
        <ele>274.39999389648</ele>
        <time>2012-05-04T09:09:12.000Z</time>
      </trkpt>
      <trkpt lat="47.6851" lon="6.00449">
        <ele>274.39999389648</ele>
        <time>2012-05-04T09:09:15.000Z</time>
      </trkpt>
      <trkpt lat="47.6851" lon="6.00449">
        <ele>274.39999389648</ele>
        <time>2012-05-04T09:09:16.000Z</time>
      </trkpt>
      <trkpt lat="47.6851" lon="6.0045">
        <ele>274.79998779297</ele>
        <time>2012-05-04T09:09:18.000Z</time>
      </trkpt>
      <trkpt lat="47.6851" lon="6.00449">
        <ele>275.20001220703</ele>
        <time>2012-05-04T09:09:19.000Z</time>
      </trkpt>
      <trkpt lat="47.6851" lon="6.0045">
        <ele>275.60000610352</ele>
        <time>2012-05-04T09:09:20.000Z</time>
      </trkpt>
      <trkpt lat="47.6851" lon="6.00449">
        <ele>276</ele>
        <time>2012-05-04T09:09:21.000Z</time>
      </trkpt>
      <trkpt lat="47.6851" lon="6.00449">
        <ele>276.60000610352</ele>
        <time>2012-05-04T09:09:22.000Z</time>
      </trkpt>
      <trkpt lat="47.68509" lon="6.0045">
        <ele>276.60000610352</ele>
        <time>2012-05-04T09:09:26.000Z</time>
      </trkpt>
      <trkpt lat="47.68508" lon="6.00451">
        <ele>276.60000610352</ele>
        <time>2012-05-04T09:09:27.000Z</time>
      </trkpt>
      <trkpt lat="47.68507" lon="6.00453">
        <ele>276.60000610352</ele>
        <time>2012-05-04T09:09:28.000Z</time>
      </trkpt>
      <trkpt lat="47.68506" lon="6.00455">
        <ele>276.60000610352</ele>
        <time>2012-05-04T09:09:30.000Z</time>
      </trkpt>
      <trkpt lat="47.68506" lon="6.00455">
        <ele>277.79998779297</ele>
        <time>2012-05-04T09:09:34.000Z</time>
      </trkpt>
      <trkpt lat="47.68506" lon="6.00457">
        <ele>278.20001220703</ele>
        <time>2012-05-04T09:09:35.000Z</time>
      </trkpt>
      <trkpt lat="47.68504" lon="6.00459">
        <ele>278.60000610352</ele>
        <time>2012-05-04T09:09:36.000Z</time>
      </trkpt>
      <trkpt lat="47.685" lon="6.00466">
        <ele>278.60000610352</ele>
        <time>2012-05-04T09:09:43.000Z</time>
      </trkpt>
      <trkpt lat="47.68499" lon="6.00468">
        <ele>278.60000610352</ele>
        <time>2012-05-04T09:09:45.000Z</time>
      </trkpt>
      <trkpt lat="47.68498" lon="6.00469">
        <ele>278.60000610352</ele>
        <time>2012-05-04T09:09:48.000Z</time>
      </trkpt>
      <trkpt lat="47.68497" lon="6.00471">
        <ele>278.60000610352</ele>
        <time>2012-05-04T09:09:50.000Z</time>
      </trkpt>
      <trkpt lat="47.68496" lon="6.00474">
        <ele>280.20001220703</ele>
        <time>2012-05-04T09:09:54.000Z</time>
      </trkpt>
      <trkpt lat="47.68496" lon="6.00474">
        <ele>280.60000610352</ele>
        <time>2012-05-04T09:09:55.000Z</time>
      </trkpt>
      <trkpt lat="47.68495" lon="6.00478">
        <ele>280.60000610352</ele>
        <time>2012-05-04T09:09:57.000Z</time>
      </trkpt>
      <trkpt lat="47.68495" lon="6.00479">
        <ele>280.60000610352</ele>
        <time>2012-05-04T09:09:58.000Z</time>
      </trkpt>
      <trkpt lat="47.68492" lon="6.00483">
        <ele>280.60000610352</ele>
        <time>2012-05-04T09:10:07.000Z</time>
      </trkpt>
      <trkpt lat="47.68491" lon="6.00484">
        <ele>281</ele>
        <time>2012-05-04T09:10:08.000Z</time>
      </trkpt>
      <trkpt lat="47.68491" lon="6.00484">
        <ele>281.39999389648</ele>
        <time>2012-05-04T09:10:09.000Z</time>
      </trkpt>
      <trkpt lat="47.68491" lon="6.00486">
        <ele>281.79998779297</ele>
        <time>2012-05-04T09:10:10.000Z</time>
      </trkpt>
      <trkpt lat="47.6849" lon="6.00486">
        <ele>282.20001220703</ele>
        <time>2012-05-04T09:10:11.000Z</time>
      </trkpt>
      <trkpt lat="47.6849" lon="6.00487">
        <ele>282.60000610352</ele>
        <time>2012-05-04T09:10:12.000Z</time>
      </trkpt>
      <trkpt lat="47.6849" lon="6.00488">
        <ele>282.60000610352</ele>
        <time>2012-05-04T09:10:13.000Z</time>
      </trkpt>
      <trkpt lat="47.68489" lon="6.00489">
        <ele>282.60000610352</ele>
        <time>2012-05-04T09:10:14.000Z</time>
      </trkpt>
      <trkpt lat="47.68489" lon="6.0049">
        <ele>282.60000610352</ele>
        <time>2012-05-04T09:10:15.000Z</time>
      </trkpt>
      <trkpt lat="47.68488" lon="6.00492">
        <ele>282.60000610352</ele>
        <time>2012-05-04T09:10:16.000Z</time>
      </trkpt>
      <trkpt lat="47.68488" lon="6.00493">
        <ele>282.60000610352</ele>
        <time>2012-05-04T09:10:17.000Z</time>
      </trkpt>
      <trkpt lat="47.68487" lon="6.00494">
        <ele>282.60000610352</ele>
        <time>2012-05-04T09:10:18.000Z</time>
      </trkpt>
      <trkpt lat="47.68488" lon="6.00493">
        <ele>282.60000610352</ele>
        <time>2012-05-04T09:10:21.000Z</time>
      </trkpt>
      <trkpt lat="47.68487" lon="6.00494">
        <ele>282.60000610352</ele>
        <time>2012-05-04T09:10:22.000Z</time>
      </trkpt>
      <trkpt lat="47.68486" lon="6.00496">
        <ele>282.60000610352</ele>
        <time>2012-05-04T09:10:24.000Z</time>
      </trkpt>
      <trkpt lat="47.68485" lon="6.00499">
        <ele>282.60000610352</ele>
        <time>2012-05-04T09:10:26.000Z</time>
      </trkpt>
      <trkpt lat="47.68484" lon="6.005">
        <ele>283</ele>
        <time>2012-05-04T09:10:28.000Z</time>
      </trkpt>
      <trkpt lat="47.68477" lon="6.00509">
        <ele>284.60000610352</ele>
        <time>2012-05-04T09:10:41.000Z</time>
      </trkpt>
      <trkpt lat="47.68476" lon="6.00513">
        <ele>284.60000610352</ele>
        <time>2012-05-04T09:10:43.000Z</time>
      </trkpt>
      <trkpt lat="47.68475" lon="6.00515">
        <ele>284.60000610352</ele>
        <time>2012-05-04T09:10:45.000Z</time>
      </trkpt>
      <trkpt lat="47.68474" lon="6.00517">
        <ele>284.60000610352</ele>
        <time>2012-05-04T09:10:47.000Z</time>
      </trkpt>
      <trkpt lat="47.68474" lon="6.00517">
        <ele>284.60000610352</ele>
        <time>2012-05-04T09:10:49.000Z</time>
      </trkpt>
      <trkpt lat="47.68474" lon="6.00518">
        <ele>284.60000610352</ele>
        <time>2012-05-04T09:10:50.000Z</time>
      </trkpt>
      <trkpt lat="47.68472" lon="6.00521">
        <ele>284.60000610352</ele>
        <time>2012-05-04T09:10:52.000Z</time>
      </trkpt>
      <trkpt lat="47.68471" lon="6.00523">
        <ele>284.60000610352</ele>
        <time>2012-05-04T09:10:54.000Z</time>
      </trkpt>
      <trkpt lat="47.68469" lon="6.00526">
        <ele>285</ele>
        <time>2012-05-04T09:10:56.000Z</time>
      </trkpt>
      <trkpt lat="47.68468" lon="6.00527">
        <ele>286</ele>
        <time>2012-05-04T09:10:57.000Z</time>
      </trkpt>
      <trkpt lat="47.68468" lon="6.00527">
        <ele>286.39999389648</ele>
        <time>2012-05-04T09:10:58.000Z</time>
      </trkpt>
      <trkpt lat="47.68467" lon="6.0053">
        <ele>286.79998779297</ele>
        <time>2012-05-04T09:11:10.000Z</time>
      </trkpt>
      <trkpt lat="47.68467" lon="6.00531">
        <ele>286.79998779297</ele>
        <time>2012-05-04T09:11:12.000Z</time>
      </trkpt>
      <trkpt lat="47.68467" lon="6.00532">
        <ele>286.79998779297</ele>
        <time>2012-05-04T09:11:14.000Z</time>
      </trkpt>
      <trkpt lat="47.68467" lon="6.00532">
        <ele>286.79998779297</ele>
        <time>2012-05-04T09:11:15.000Z</time>
      </trkpt>
      <trkpt lat="47.68465" lon="6.00534">
        <ele>286.79998779297</ele>
        <time>2012-05-04T09:11:24.000Z</time>
      </trkpt>
      <trkpt lat="47.68463" lon="6.00538">
        <ele>286.79998779297</ele>
        <time>2012-05-04T09:11:28.000Z</time>
      </trkpt>
      <trkpt lat="47.68462" lon="6.00538">
        <ele>286.79998779297</ele>
        <time>2012-05-04T09:11:29.000Z</time>
      </trkpt>
      <trkpt lat="47.68456" lon="6.00548">
        <ele>286.79998779297</ele>
        <time>2012-05-04T09:11:36.000Z</time>
      </trkpt>
      <trkpt lat="47.68455" lon="6.0055">
        <ele>286.79998779297</ele>
        <time>2012-05-04T09:11:37.000Z</time>
      </trkpt>
      <trkpt lat="47.68451" lon="6.00555">
        <ele>287.20001220703</ele>
        <time>2012-05-04T09:11:41.000Z</time>
      </trkpt>
      <trkpt lat="47.68451" lon="6.00555">
        <ele>287.60000610352</ele>
        <time>2012-05-04T09:11:42.000Z</time>
      </trkpt>
      <trkpt lat="47.6845" lon="6.00556">
        <ele>288</ele>
        <time>2012-05-04T09:11:43.000Z</time>
      </trkpt>
      <trkpt lat="47.6845" lon="6.00558">
        <ele>288.39999389648</ele>
        <time>2012-05-04T09:11:44.000Z</time>
      </trkpt>
      <trkpt lat="47.68449" lon="6.00559">
        <ele>288.79998779297</ele>
        <time>2012-05-04T09:11:45.000Z</time>
      </trkpt>
      <trkpt lat="47.68447" lon="6.00562">
        <ele>288.79998779297</ele>
        <time>2012-05-04T09:12:07.000Z</time>
      </trkpt>
      <trkpt lat="47.68444" lon="6.00569">
        <ele>288.79998779297</ele>
        <time>2012-05-04T09:12:11.000Z</time>
      </trkpt>
      <trkpt lat="47.68438" lon="6.0058">
        <ele>288.79998779297</ele>
        <time>2012-05-04T09:12:18.000Z</time>
      </trkpt>
      <trkpt lat="47.68431" lon="6.0059">
        <ele>288.79998779297</ele>
        <time>2012-05-04T09:12:24.000Z</time>
      </trkpt>
      <trkpt lat="47.68424" lon="6.00601">
        <ele>288.79998779297</ele>
        <time>2012-05-04T09:12:29.000Z</time>
      </trkpt>
      <trkpt lat="47.68423" lon="6.00602">
        <ele>288.79998779297</ele>
        <time>2012-05-04T09:12:30.000Z</time>
      </trkpt>
      <trkpt lat="47.68417" lon="6.00616">
        <ele>288.79998779297</ele>
        <time>2012-05-04T09:12:36.000Z</time>
      </trkpt>
      <trkpt lat="47.68412" lon="6.00621">
        <ele>288.39999389648</ele>
        <time>2012-05-04T09:12:39.000Z</time>
      </trkpt>
      <trkpt lat="47.6841" lon="6.00622">
        <ele>288</ele>
        <time>2012-05-04T09:12:40.000Z</time>
      </trkpt>
      <trkpt lat="47.68409" lon="6.0062">
        <ele>287.60000610352</ele>
        <time>2012-05-04T09:12:41.000Z</time>
      </trkpt>
      <trkpt lat="47.68407" lon="6.00619">
        <ele>287</ele>
        <time>2012-05-04T09:12:42.000Z</time>
      </trkpt>
      <trkpt lat="47.68405" lon="6.00617">
        <ele>286.60000610352</ele>
        <time>2012-05-04T09:12:43.000Z</time>
      </trkpt>
      <trkpt lat="47.68402" lon="6.00613">
        <ele>286.60000610352</ele>
        <time>2012-05-04T09:12:45.000Z</time>
      </trkpt>
      <trkpt lat="47.684" lon="6.00606">
        <ele>286.60000610352</ele>
        <time>2012-05-04T09:12:47.000Z</time>
      </trkpt>
      <trkpt lat="47.68393" lon="6.0059">
        <ele>286.60000610352</ele>
        <time>2012-05-04T09:12:52.000Z</time>
      </trkpt>
      <trkpt lat="47.68388" lon="6.00567">
        <ele>286.60000610352</ele>
        <time>2012-05-04T09:12:57.000Z</time>
      </trkpt>
      <trkpt lat="47.68382" lon="6.00542">
        <ele>286.20001220703</ele>
        <time>2012-05-04T09:13:02.000Z</time>
      </trkpt>
      <trkpt lat="47.6838" lon="6.00537">
        <ele>285.79998779297</ele>
        <time>2012-05-04T09:13:03.000Z</time>
      </trkpt>
      <trkpt lat="47.68379" lon="6.0053">
        <ele>285.39999389648</ele>
        <time>2012-05-04T09:13:04.000Z</time>
      </trkpt>
      <trkpt lat="47.68377" lon="6.00523">
        <ele>285</ele>
        <time>2012-05-04T09:13:05.000Z</time>
      </trkpt>
      <trkpt lat="47.68374" lon="6.00516">
        <ele>284.60000610352</ele>
        <time>2012-05-04T09:13:06.000Z</time>
      </trkpt>
      <trkpt lat="47.68371" lon="6.00498">
        <ele>284.60000610352</ele>
        <time>2012-05-04T09:13:07.000Z</time>
      </trkpt>
      <trkpt lat="47.68371" lon="6.00498">
        <ele>284.60000610352</ele>
        <time>2012-05-04T09:13:08.000Z</time>
      </trkpt>
      <trkpt lat="47.68368" lon="6.00488">
        <ele>284</ele>
        <time>2012-05-04T09:13:09.000Z</time>
      </trkpt>
      <trkpt lat="47.68367" lon="6.00479">
        <ele>283.60000610352</ele>
        <time>2012-05-04T09:13:10.000Z</time>
      </trkpt>
      <trkpt lat="47.68366" lon="6.00469">
        <ele>283.20001220703</ele>
        <time>2012-05-04T09:13:11.000Z</time>
      </trkpt>
      <trkpt lat="47.68365" lon="6.00458">
        <ele>282.79998779297</ele>
        <time>2012-05-04T09:13:12.000Z</time>
      </trkpt>
      <trkpt lat="47.68363" lon="6.00448">
        <ele>282.20001220703</ele>
        <time>2012-05-04T09:13:13.000Z</time>
      </trkpt>
      <trkpt lat="47.68362" lon="6.00438">
        <ele>281.79998779297</ele>
        <time>2012-05-04T09:13:14.000Z</time>
      </trkpt>
      <trkpt lat="47.6836" lon="6.00427">
        <ele>281.39999389648</ele>
        <time>2012-05-04T09:13:15.000Z</time>
      </trkpt>
      <trkpt lat="47.68357" lon="6.00417">
        <ele>280.79998779297</ele>
        <time>2012-05-04T09:13:16.000Z</time>
      </trkpt>
      <trkpt lat="47.68353" lon="6.00407">
        <ele>280.39999389648</ele>
        <time>2012-05-04T09:13:17.000Z</time>
      </trkpt>
      <trkpt lat="47.68349" lon="6.00398">
        <ele>279.79998779297</ele>
        <time>2012-05-04T09:13:18.000Z</time>
      </trkpt>
      <trkpt lat="47.68343" lon="6.00389">
        <ele>279.20001220703</ele>
        <time>2012-05-04T09:13:19.000Z</time>
      </trkpt>
      <trkpt lat="47.68337" lon="6.00381">
        <ele>278.60000610352</ele>
        <time>2012-05-04T09:13:20.000Z</time>
      </trkpt>
      <trkpt lat="47.68331" lon="6.00374">
        <ele>278</ele>
        <time>2012-05-04T09:13:21.000Z</time>
      </trkpt>
      <trkpt lat="47.68324" lon="6.00368">
        <ele>277.20001220703</ele>
        <time>2012-05-04T09:13:22.000Z</time>
      </trkpt>
      <trkpt lat="47.6831" lon="6.00357">
        <ele>277.20001220703</ele>
        <time>2012-05-04T09:13:24.000Z</time>
      </trkpt>
      <trkpt lat="47.68303" lon="6.00353">
        <ele>276.79998779297</ele>
        <time>2012-05-04T09:13:25.000Z</time>
      </trkpt>
      <trkpt lat="47.68296" lon="6.00349">
        <ele>276.39999389648</ele>
        <time>2012-05-04T09:13:26.000Z</time>
      </trkpt>
      <trkpt lat="47.68289" lon="6.00347">
        <ele>276</ele>
        <time>2012-05-04T09:13:27.000Z</time>
      </trkpt>
      <trkpt lat="47.68282" lon="6.00344">
        <ele>275.60000610352</ele>
        <time>2012-05-04T09:13:28.000Z</time>
      </trkpt>
      <trkpt lat="47.68275" lon="6.00342">
        <ele>275.20001220703</ele>
        <time>2012-05-04T09:13:29.000Z</time>
      </trkpt>
      <trkpt lat="47.68269" lon="6.0034">
        <ele>275.20001220703</ele>
        <time>2012-05-04T09:13:30.000Z</time>
      </trkpt>
      <trkpt lat="47.68251" lon="6.00338">
        <ele>275.20001220703</ele>
        <time>2012-05-04T09:13:34.000Z</time>
      </trkpt>
      <trkpt lat="47.68237" lon="6.00338">
        <ele>275.20001220703</ele>
        <time>2012-05-04T09:13:39.000Z</time>
      </trkpt>
      <trkpt lat="47.68227" lon="6.00338">
        <ele>275.20001220703</ele>
        <time>2012-05-04T09:13:45.000Z</time>
      </trkpt>
      <trkpt lat="47.68221" lon="6.00339">
        <ele>275.20001220703</ele>
        <time>2012-05-04T09:13:50.000Z</time>
      </trkpt>
      <trkpt lat="47.68211" lon="6.00339">
        <ele>275.20001220703</ele>
        <time>2012-05-04T09:13:56.000Z</time>
      </trkpt>
      <trkpt lat="47.68205" lon="6.00339">
        <ele>275.79998779297</ele>
        <time>2012-05-04T09:13:59.000Z</time>
      </trkpt>
      <trkpt lat="47.68202" lon="6.00339">
        <ele>276.39999389648</ele>
        <time>2012-05-04T09:14:00.000Z</time>
      </trkpt>
      <trkpt lat="47.68199" lon="6.00339">
        <ele>276.79998779297</ele>
        <time>2012-05-04T09:14:01.000Z</time>
      </trkpt>
      <trkpt lat="47.68196" lon="6.0034">
        <ele>277.39999389648</ele>
        <time>2012-05-04T09:14:02.000Z</time>
      </trkpt>
      <trkpt lat="47.68192" lon="6.0034">
        <ele>278</ele>
        <time>2012-05-04T09:14:03.000Z</time>
      </trkpt>
      <trkpt lat="47.6819" lon="6.0034">
        <ele>278</ele>
        <time>2012-05-04T09:14:04.000Z</time>
      </trkpt>
      <trkpt lat="47.68167" lon="6.00339">
        <ele>278</ele>
        <time>2012-05-04T09:14:10.000Z</time>
      </trkpt>
      <trkpt lat="47.68149" lon="6.00339">
        <ele>277</ele>
        <time>2012-05-04T09:14:14.000Z</time>
      </trkpt>
      <trkpt lat="47.68144" lon="6.00339">
        <ele>276.60000610352</ele>
        <time>2012-05-04T09:14:15.000Z</time>
      </trkpt>
      <trkpt lat="47.6814" lon="6.00339">
        <ele>276.20001220703</ele>
        <time>2012-05-04T09:14:16.000Z</time>
      </trkpt>
      <trkpt lat="47.68136" lon="6.0034">
        <ele>275.79998779297</ele>
        <time>2012-05-04T09:14:17.000Z</time>
      </trkpt>
      <trkpt lat="47.6812" lon="6.00343">
        <ele>275.79998779297</ele>
        <time>2012-05-04T09:14:22.000Z</time>
      </trkpt>
      <trkpt lat="47.68095" lon="6.00345">
        <ele>275.79998779297</ele>
        <time>2012-05-04T09:14:30.000Z</time>
      </trkpt>
      <trkpt lat="47.68076" lon="6.00343">
        <ele>275.79998779297</ele>
        <time>2012-05-04T09:14:35.000Z</time>
      </trkpt>
      <trkpt lat="47.68063" lon="6.00335">
        <ele>275.79998779297</ele>
        <time>2012-05-04T09:14:39.000Z</time>
      </trkpt>
      <trkpt lat="47.68046" lon="6.00318">
        <ele>275.79998779297</ele>
        <time>2012-05-04T09:14:45.000Z</time>
      </trkpt>
      <trkpt lat="47.68024" lon="6.00296">
        <ele>275.79998779297</ele>
        <time>2012-05-04T09:14:52.000Z</time>
      </trkpt>
      <trkpt lat="47.67998" lon="6.00268">
        <ele>275.79998779297</ele>
        <time>2012-05-04T09:14:59.000Z</time>
      </trkpt>
      <trkpt lat="47.6797" lon="6.0024">
        <ele>275.79998779297</ele>
        <time>2012-05-04T09:15:05.000Z</time>
      </trkpt>
      <trkpt lat="47.67965" lon="6.00234">
        <ele>275.20001220703</ele>
        <time>2012-05-04T09:15:06.000Z</time>
      </trkpt>
      <trkpt lat="47.6796" lon="6.00228">
        <ele>274.79998779297</ele>
        <time>2012-05-04T09:15:07.000Z</time>
      </trkpt>
      <trkpt lat="47.67955" lon="6.00222">
        <ele>274.39999389648</ele>
        <time>2012-05-04T09:15:08.000Z</time>
      </trkpt>
      <trkpt lat="47.6795" lon="6.00216">
        <ele>274</ele>
        <time>2012-05-04T09:15:09.000Z</time>
      </trkpt>
      <trkpt lat="47.67945" lon="6.00209">
        <ele>273.60000610352</ele>
        <time>2012-05-04T09:15:10.000Z</time>
      </trkpt>
      <trkpt lat="47.6794" lon="6.00203">
        <ele>273</ele>
        <time>2012-05-04T09:15:11.000Z</time>
      </trkpt>
      <trkpt lat="47.67935" lon="6.00196">
        <ele>272.60000610352</ele>
        <time>2012-05-04T09:15:12.000Z</time>
      </trkpt>
      <trkpt lat="47.6793" lon="6.0019">
        <ele>272</ele>
        <time>2012-05-04T09:15:13.000Z</time>
      </trkpt>
      <trkpt lat="47.67926" lon="6.00183">
        <ele>271.60000610352</ele>
        <time>2012-05-04T09:15:14.000Z</time>
      </trkpt>
      <trkpt lat="47.67921" lon="6.00176">
        <ele>271</ele>
        <time>2012-05-04T09:15:15.000Z</time>
      </trkpt>
      <trkpt lat="47.67916" lon="6.00169">
        <ele>270.39999389648</ele>
        <time>2012-05-04T09:15:16.000Z</time>
      </trkpt>
      <trkpt lat="47.67911" lon="6.00162">
        <ele>269.79998779297</ele>
        <time>2012-05-04T09:15:17.000Z</time>
      </trkpt>
      <trkpt lat="47.67906" lon="6.00155">
        <ele>269.20001220703</ele>
        <time>2012-05-04T09:15:18.000Z</time>
      </trkpt>
      <trkpt lat="47.679" lon="6.00148">
        <ele>268.60000610352</ele>
        <time>2012-05-04T09:15:19.000Z</time>
      </trkpt>
      <trkpt lat="47.67895" lon="6.0014">
        <ele>267.79998779297</ele>
        <time>2012-05-04T09:15:20.000Z</time>
      </trkpt>
      <trkpt lat="47.67889" lon="6.00132">
        <ele>267.20001220703</ele>
        <time>2012-05-04T09:15:21.000Z</time>
      </trkpt>
      <trkpt lat="47.67884" lon="6.00124">
        <ele>266.60000610352</ele>
        <time>2012-05-04T09:15:22.000Z</time>
      </trkpt>
      <trkpt lat="47.67879" lon="6.00115">
        <ele>265.79998779297</ele>
        <time>2012-05-04T09:15:23.000Z</time>
      </trkpt>
      <trkpt lat="47.67874" lon="6.00106">
        <ele>265.20001220703</ele>
        <time>2012-05-04T09:15:24.000Z</time>
      </trkpt>
      <trkpt lat="47.67869" lon="6.00097">
        <ele>264.39999389648</ele>
        <time>2012-05-04T09:15:25.000Z</time>
      </trkpt>
      <trkpt lat="47.67864" lon="6.00088">
        <ele>263.60000610352</ele>
        <time>2012-05-04T09:15:26.000Z</time>
      </trkpt>
      <trkpt lat="47.67857" lon="6.0008">
        <ele>262</ele>
        <time>2012-05-04T09:15:27.000Z</time>
      </trkpt>
      <trkpt lat="47.67849" lon="6.00071">
        <ele>261</ele>
        <time>2012-05-04T09:15:28.000Z</time>
      </trkpt>
      <trkpt lat="47.67841" lon="6.00063">
        <ele>260.20001220703</ele>
        <time>2012-05-04T09:15:29.000Z</time>
      </trkpt>
      <trkpt lat="47.67834" lon="6.00054">
        <ele>259.39999389648</ele>
        <time>2012-05-04T09:15:30.000Z</time>
      </trkpt>
      <trkpt lat="47.67826" lon="6.00048">
        <ele>258.39999389648</ele>
        <time>2012-05-04T09:15:31.000Z</time>
      </trkpt>
      <trkpt lat="47.67818" lon="6.00043">
        <ele>257.60000610352</ele>
        <time>2012-05-04T09:15:32.000Z</time>
      </trkpt>
      <trkpt lat="47.67811" lon="6.0004">
        <ele>256.60000610352</ele>
        <time>2012-05-04T09:15:33.000Z</time>
      </trkpt>
      <trkpt lat="47.67805" lon="6.00037">
        <ele>255.80000305176</ele>
        <time>2012-05-04T09:15:34.000Z</time>
      </trkpt>
      <trkpt lat="47.67793" lon="6.00031">
        <ele>255.39999389648</ele>
        <time>2012-05-04T09:15:36.000Z</time>
      </trkpt>
      <trkpt lat="47.67786" lon="6.00028">
        <ele>255</ele>
        <time>2012-05-04T09:15:37.000Z</time>
      </trkpt>
      <trkpt lat="47.67779" lon="6.00024">
        <ele>254.60000610352</ele>
        <time>2012-05-04T09:15:38.000Z</time>
      </trkpt>
      <trkpt lat="47.67772" lon="6.0002">
        <ele>254.19999694824</ele>
        <time>2012-05-04T09:15:39.000Z</time>
      </trkpt>
      <trkpt lat="47.67765" lon="6.00015">
        <ele>253.60000610352</ele>
        <time>2012-05-04T09:15:40.000Z</time>
      </trkpt>
      <trkpt lat="47.67758" lon="6.00008">
        <ele>253.19999694824</ele>
        <time>2012-05-04T09:15:41.000Z</time>
      </trkpt>
      <trkpt lat="47.67751" lon="6.00001">
        <ele>252.80000305176</ele>
        <time>2012-05-04T09:15:42.000Z</time>
      </trkpt>
      <trkpt lat="47.67745" lon="5.99993">
        <ele>252.19999694824</ele>
        <time>2012-05-04T09:15:43.000Z</time>
      </trkpt>
      <trkpt lat="47.6774" lon="5.99983">
        <ele>251.80000305176</ele>
        <time>2012-05-04T09:15:44.000Z</time>
      </trkpt>
      <trkpt lat="47.67734" lon="5.99974">
        <ele>251.39999389648</ele>
        <time>2012-05-04T09:15:45.000Z</time>
      </trkpt>
      <trkpt lat="47.6773" lon="5.99965">
        <ele>251</ele>
        <time>2012-05-04T09:15:46.000Z</time>
      </trkpt>
      <trkpt lat="47.67727" lon="5.99955">
        <ele>250.60000610352</ele>
        <time>2012-05-04T09:15:47.000Z</time>
      </trkpt>
      <trkpt lat="47.67724" lon="5.99946">
        <ele>250.19999694824</ele>
        <time>2012-05-04T09:15:48.000Z</time>
      </trkpt>
      <trkpt lat="47.67721" lon="5.99938">
        <ele>249.80000305176</ele>
        <time>2012-05-04T09:15:49.000Z</time>
      </trkpt>
      <trkpt lat="47.67719" lon="5.9993">
        <ele>249.19999694824</ele>
        <time>2012-05-04T09:15:50.000Z</time>
      </trkpt>
      <trkpt lat="47.67717" lon="5.99923">
        <ele>249.19999694824</ele>
        <time>2012-05-04T09:15:51.000Z</time>
      </trkpt>
      <trkpt lat="47.67712" lon="5.99906">
        <ele>249.19999694824</ele>
        <time>2012-05-04T09:15:54.000Z</time>
      </trkpt>
      <trkpt lat="47.67708" lon="5.99882">
        <ele>249.19999694824</ele>
        <time>2012-05-04T09:15:59.000Z</time>
      </trkpt>
      <trkpt lat="47.67706" lon="5.99872">
        <ele>249.19999694824</ele>
        <time>2012-05-04T09:16:02.000Z</time>
      </trkpt>
      <trkpt lat="47.67707" lon="5.9987">
        <ele>249.19999694824</ele>
        <time>2012-05-04T09:16:03.000Z</time>
      </trkpt>
      <trkpt lat="47.67706" lon="5.99859">
        <ele>249.19999694824</ele>
        <time>2012-05-04T09:16:07.000Z</time>
      </trkpt>
      <trkpt lat="47.67706" lon="5.99842">
        <ele>249.80000305176</ele>
        <time>2012-05-04T09:16:12.000Z</time>
      </trkpt>
      <trkpt lat="47.67707" lon="5.99839">
        <ele>250.19999694824</ele>
        <time>2012-05-04T09:16:13.000Z</time>
      </trkpt>
      <trkpt lat="47.67707" lon="5.99835">
        <ele>250.60000610352</ele>
        <time>2012-05-04T09:16:14.000Z</time>
      </trkpt>
      <trkpt lat="47.67707" lon="5.99832">
        <ele>251</ele>
        <time>2012-05-04T09:16:15.000Z</time>
      </trkpt>
      <trkpt lat="47.67707" lon="5.99828">
        <ele>251.39999389648</ele>
        <time>2012-05-04T09:16:16.000Z</time>
      </trkpt>
      <trkpt lat="47.67707" lon="5.99825">
        <ele>251.39999389648</ele>
        <time>2012-05-04T09:16:17.000Z</time>
      </trkpt>
      <trkpt lat="47.67706" lon="5.99823">
        <ele>251.39999389648</ele>
        <time>2012-05-04T09:16:18.000Z</time>
      </trkpt>
      <trkpt lat="47.67699" lon="5.998">
        <ele>251.39999389648</ele>
        <time>2012-05-04T09:16:25.000Z</time>
      </trkpt>
      <trkpt lat="47.67691" lon="5.99785">
        <ele>251.39999389648</ele>
        <time>2012-05-04T09:16:30.000Z</time>
      </trkpt>
      <trkpt lat="47.67679" lon="5.99782">
        <ele>251.39999389648</ele>
        <time>2012-05-04T09:16:35.000Z</time>
      </trkpt>
      <trkpt lat="47.67678" lon="5.99783">
        <ele>251.39999389648</ele>
        <time>2012-05-04T09:16:36.000Z</time>
      </trkpt>
      <trkpt lat="47.67673" lon="5.99788">
        <ele>251.39999389648</ele>
        <time>2012-05-04T09:16:39.000Z</time>
      </trkpt>
      <trkpt lat="47.67666" lon="5.99794">
        <ele>251.39999389648</ele>
        <time>2012-05-04T09:16:44.000Z</time>
      </trkpt>
      <trkpt lat="47.67664" lon="5.99795">
        <ele>251.39999389648</ele>
        <time>2012-05-04T09:16:45.000Z</time>
      </trkpt>
      <trkpt lat="47.67654" lon="5.99806">
        <ele>251.39999389648</ele>
        <time>2012-05-04T09:16:51.000Z</time>
      </trkpt>
      <trkpt lat="47.67643" lon="5.99822">
        <ele>251.39999389648</ele>
        <time>2012-05-04T09:16:57.000Z</time>
      </trkpt>
      <trkpt lat="47.67628" lon="5.9983">
        <ele>251.39999389648</ele>
        <time>2012-05-04T09:17:03.000Z</time>
      </trkpt>
      <trkpt lat="47.67608" lon="5.99834">
        <ele>251.39999389648</ele>
        <time>2012-05-04T09:17:10.000Z</time>
      </trkpt>
      <trkpt lat="47.67589" lon="5.99827">
        <ele>251.39999389648</ele>
        <time>2012-05-04T09:17:18.000Z</time>
      </trkpt>
      <trkpt lat="47.67578" lon="5.99818">
        <ele>251.39999389648</ele>
        <time>2012-05-04T09:17:23.000Z</time>
      </trkpt>
      <trkpt lat="47.67566" lon="5.9981">
        <ele>251.39999389648</ele>
        <time>2012-05-04T09:17:28.000Z</time>
      </trkpt>
      <trkpt lat="47.6755" lon="5.99798">
        <ele>251.39999389648</ele>
        <time>2012-05-04T09:17:34.000Z</time>
      </trkpt>
      <trkpt lat="47.6753" lon="5.99781">
        <ele>251.39999389648</ele>
        <time>2012-05-04T09:17:41.000Z</time>
      </trkpt>
      <trkpt lat="47.67514" lon="5.99766">
        <ele>251.39999389648</ele>
        <time>2012-05-04T09:17:46.000Z</time>
      </trkpt>
      <trkpt lat="47.67496" lon="5.99744">
        <ele>251.39999389648</ele>
        <time>2012-05-04T09:17:52.000Z</time>
      </trkpt>
      <trkpt lat="47.6748" lon="5.99716">
        <ele>251.39999389648</ele>
        <time>2012-05-04T09:17:59.000Z</time>
      </trkpt>
      <trkpt lat="47.6747" lon="5.99693">
        <ele>251.39999389648</ele>
        <time>2012-05-04T09:18:04.000Z</time>
      </trkpt>
      <trkpt lat="47.67461" lon="5.99664">
        <ele>251.39999389648</ele>
        <time>2012-05-04T09:18:10.000Z</time>
      </trkpt>
      <trkpt lat="47.67459" lon="5.99643">
        <ele>251.39999389648</ele>
        <time>2012-05-04T09:18:14.000Z</time>
      </trkpt>
      <trkpt lat="47.67456" lon="5.99624">
        <ele>251.39999389648</ele>
        <time>2012-05-04T09:18:18.000Z</time>
      </trkpt>
      <trkpt lat="47.67457" lon="5.99606">
        <ele>251</ele>
        <time>2012-05-04T09:18:23.000Z</time>
      </trkpt>
      <trkpt lat="47.67457" lon="5.99601">
        <ele>250.60000610352</ele>
        <time>2012-05-04T09:18:24.000Z</time>
      </trkpt>
      <trkpt lat="47.67459" lon="5.99597">
        <ele>250.19999694824</ele>
        <time>2012-05-04T09:18:25.000Z</time>
      </trkpt>
      <trkpt lat="47.67461" lon="5.99592">
        <ele>249.80000305176</ele>
        <time>2012-05-04T09:18:26.000Z</time>
      </trkpt>
      <trkpt lat="47.67463" lon="5.99588">
        <ele>249.39999389648</ele>
        <time>2012-05-04T09:18:27.000Z</time>
      </trkpt>
      <trkpt lat="47.67466" lon="5.99578">
        <ele>249.39999389648</ele>
        <time>2012-05-04T09:18:29.000Z</time>
      </trkpt>
      <trkpt lat="47.67476" lon="5.99549">
        <ele>249.39999389648</ele>
        <time>2012-05-04T09:18:34.000Z</time>
      </trkpt>
      <trkpt lat="47.6748" lon="5.99537">
        <ele>249.39999389648</ele>
        <time>2012-05-04T09:18:36.000Z</time>
      </trkpt>
      <trkpt lat="47.67479" lon="5.99521">
        <ele>249.39999389648</ele>
        <time>2012-05-04T09:18:39.000Z</time>
      </trkpt>
      <trkpt lat="47.67468" lon="5.99511">
        <ele>249.39999389648</ele>
        <time>2012-05-04T09:18:42.000Z</time>
      </trkpt>
      <trkpt lat="47.67451" lon="5.99517">
        <ele>249.39999389648</ele>
        <time>2012-05-04T09:18:46.000Z</time>
      </trkpt>
      <trkpt lat="47.67432" lon="5.99532">
        <ele>249.39999389648</ele>
        <time>2012-05-04T09:18:51.000Z</time>
      </trkpt>
      <trkpt lat="47.67421" lon="5.99542">
        <ele>249.39999389648</ele>
        <time>2012-05-04T09:18:54.000Z</time>
      </trkpt>
      <trkpt lat="47.67417" lon="5.99543">
        <ele>249.39999389648</ele>
        <time>2012-05-04T09:18:55.000Z</time>
      </trkpt>
      <trkpt lat="47.67406" lon="5.99547">
        <ele>249.39999389648</ele>
        <time>2012-05-04T09:18:58.000Z</time>
      </trkpt>
      <trkpt lat="47.674" lon="5.99549">
        <ele>249.39999389648</ele>
        <time>2012-05-04T09:19:00.000Z</time>
      </trkpt>
      <trkpt lat="47.67379" lon="5.99556">
        <ele>249.39999389648</ele>
        <time>2012-05-04T09:19:06.000Z</time>
      </trkpt>
      <trkpt lat="47.6736" lon="5.99562">
        <ele>249.39999389648</ele>
        <time>2012-05-04T09:19:12.000Z</time>
      </trkpt>
      <trkpt lat="47.67337" lon="5.99574">
        <ele>249.39999389648</ele>
        <time>2012-05-04T09:19:19.000Z</time>
      </trkpt>
      <trkpt lat="47.6732" lon="5.99589">
        <ele>249.39999389648</ele>
        <time>2012-05-04T09:19:25.000Z</time>
      </trkpt>
      <trkpt lat="47.67305" lon="5.99605">
        <ele>249.39999389648</ele>
        <time>2012-05-04T09:19:31.000Z</time>
      </trkpt>
      <trkpt lat="47.6729" lon="5.99611">
        <ele>249.39999389648</ele>
        <time>2012-05-04T09:19:36.000Z</time>
      </trkpt>
      <trkpt lat="47.67275" lon="5.99613">
        <ele>249.80000305176</ele>
        <time>2012-05-04T09:19:41.000Z</time>
      </trkpt>
      <trkpt lat="47.67272" lon="5.99613">
        <ele>250.19999694824</ele>
        <time>2012-05-04T09:19:42.000Z</time>
      </trkpt>
      <trkpt lat="47.67269" lon="5.99613">
        <ele>250.60000610352</ele>
        <time>2012-05-04T09:19:43.000Z</time>
      </trkpt>
      <trkpt lat="47.67266" lon="5.99613">
        <ele>251</ele>
        <time>2012-05-04T09:19:44.000Z</time>
      </trkpt>
      <trkpt lat="47.67264" lon="5.99612">
        <ele>251.39999389648</ele>
        <time>2012-05-04T09:19:45.000Z</time>
      </trkpt>
      <trkpt lat="47.67253" lon="5.99608">
        <ele>251.39999389648</ele>
        <time>2012-05-04T09:19:49.000Z</time>
      </trkpt>
      <trkpt lat="47.67238" lon="5.99597">
        <ele>251.39999389648</ele>
        <time>2012-05-04T09:19:55.000Z</time>
      </trkpt>
      <trkpt lat="47.6723" lon="5.99587">
        <ele>251.39999389648</ele>
        <time>2012-05-04T09:20:00.000Z</time>
      </trkpt>
      <trkpt lat="47.67219" lon="5.99576">
        <ele>251.39999389648</ele>
        <time>2012-05-04T09:20:06.000Z</time>
      </trkpt>
      <trkpt lat="47.67216" lon="5.99571">
        <ele>251.80000305176</ele>
        <time>2012-05-04T09:20:08.000Z</time>
      </trkpt>
      <trkpt lat="47.67214" lon="5.99569">
        <ele>252.39999389648</ele>
        <time>2012-05-04T09:20:09.000Z</time>
      </trkpt>
      <trkpt lat="47.67212" lon="5.99567">
        <ele>252.80000305176</ele>
        <time>2012-05-04T09:20:10.000Z</time>
      </trkpt>
      <trkpt lat="47.6721" lon="5.99565">
        <ele>253.19999694824</ele>
        <time>2012-05-04T09:20:11.000Z</time>
      </trkpt>
      <trkpt lat="47.67209" lon="5.99563">
        <ele>253.60000610352</ele>
        <time>2012-05-04T09:20:12.000Z</time>
      </trkpt>
      <trkpt lat="47.67208" lon="5.99561">
        <ele>253.60000610352</ele>
        <time>2012-05-04T09:20:13.000Z</time>
      </trkpt>
      <trkpt lat="47.67199" lon="5.99548">
        <ele>253.60000610352</ele>
        <time>2012-05-04T09:20:19.000Z</time>
      </trkpt>
      <trkpt lat="47.67197" lon="5.99546">
        <ele>253.60000610352</ele>
        <time>2012-05-04T09:20:20.000Z</time>
      </trkpt>
      <trkpt lat="47.67193" lon="5.99534">
        <ele>253.60000610352</ele>
        <time>2012-05-04T09:20:24.000Z</time>
      </trkpt>
      <trkpt lat="47.67192" lon="5.99527">
        <ele>253.60000610352</ele>
        <time>2012-05-04T09:20:26.000Z</time>
      </trkpt>
      <trkpt lat="47.67189" lon="5.99517">
        <ele>254</ele>
        <time>2012-05-04T09:20:29.000Z</time>
      </trkpt>
      <trkpt lat="47.67188" lon="5.99514">
        <ele>254.39999389648</ele>
        <time>2012-05-04T09:20:30.000Z</time>
      </trkpt>
      <trkpt lat="47.67187" lon="5.99512">
        <ele>254.80000305176</ele>
        <time>2012-05-04T09:20:31.000Z</time>
      </trkpt>
      <trkpt lat="47.67187" lon="5.99511">
        <ele>255.19999694824</ele>
        <time>2012-05-04T09:20:32.000Z</time>
      </trkpt>
      <trkpt lat="47.67186" lon="5.99509">
        <ele>255.60000610352</ele>
        <time>2012-05-04T09:20:33.000Z</time>
      </trkpt>
      <trkpt lat="47.67182" lon="5.99497">
        <ele>255.60000610352</ele>
        <time>2012-05-04T09:20:39.000Z</time>
      </trkpt>
      <trkpt lat="47.67182" lon="5.99497">
        <ele>255.60000610352</ele>
        <time>2012-05-04T09:20:40.000Z</time>
      </trkpt>
      <trkpt lat="47.67182" lon="5.99498">
        <ele>255.60000610352</ele>
        <time>2012-05-04T09:20:41.000Z</time>
      </trkpt>
      <trkpt lat="47.67182" lon="5.99501">
        <ele>255.60000610352</ele>
        <time>2012-05-04T09:20:43.000Z</time>
      </trkpt>
      <trkpt lat="47.67186" lon="5.99505">
        <ele>255.60000610352</ele>
        <time>2012-05-04T09:20:47.000Z</time>
      </trkpt>
      <trkpt lat="47.67187" lon="5.99506">
        <ele>255.60000610352</ele>
        <time>2012-05-04T09:20:48.000Z</time>
      </trkpt>
      <trkpt lat="47.67187" lon="5.99508">
        <ele>255.60000610352</ele>
        <time>2012-05-04T09:20:50.000Z</time>
      </trkpt>
      <trkpt lat="47.67185" lon="5.9951">
        <ele>255.60000610352</ele>
        <time>2012-05-04T09:20:51.000Z</time>
      </trkpt>
      <trkpt lat="47.67178" lon="5.99519">
        <ele>255.60000610352</ele>
        <time>2012-05-04T09:20:56.000Z</time>
      </trkpt>
      <trkpt lat="47.67177" lon="5.99526">
        <ele>255.19999694824</ele>
        <time>2012-05-04T09:20:58.000Z</time>
      </trkpt>
      <trkpt lat="47.67176" lon="5.99531">
        <ele>254.80000305176</ele>
        <time>2012-05-04T09:20:59.000Z</time>
      </trkpt>
      <trkpt lat="47.67176" lon="5.99534">
        <ele>254.19999694824</ele>
        <time>2012-05-04T09:21:00.000Z</time>
      </trkpt>
      <trkpt lat="47.67176" lon="5.99538">
        <ele>253.80000305176</ele>
        <time>2012-05-04T09:21:01.000Z</time>
      </trkpt>
      <trkpt lat="47.67176" lon="5.99542">
        <ele>253.39999389648</ele>
        <time>2012-05-04T09:21:02.000Z</time>
      </trkpt>
      <trkpt lat="47.67175" lon="5.99547">
        <ele>253</ele>
        <time>2012-05-04T09:21:04.000Z</time>
      </trkpt>
      <trkpt lat="47.67176" lon="5.99551">
        <ele>252.39999389648</ele>
        <time>2012-05-04T09:21:05.000Z</time>
      </trkpt>
      <trkpt lat="47.67176" lon="5.99555">
        <ele>252</ele>
        <time>2012-05-04T09:21:06.000Z</time>
      </trkpt>
      <trkpt lat="47.67177" lon="5.99559">
        <ele>251.60000610352</ele>
        <time>2012-05-04T09:21:07.000Z</time>
      </trkpt>
      <trkpt lat="47.67177" lon="5.99562">
        <ele>251</ele>
        <time>2012-05-04T09:21:08.000Z</time>
      </trkpt>
      <trkpt lat="47.67177" lon="5.99569">
        <ele>250.60000610352</ele>
        <time>2012-05-04T09:21:10.000Z</time>
      </trkpt>
      <trkpt lat="47.67177" lon="5.99572">
        <ele>250.19999694824</ele>
        <time>2012-05-04T09:21:11.000Z</time>
      </trkpt>
      <trkpt lat="47.67176" lon="5.99575">
        <ele>249.19999694824</ele>
        <time>2012-05-04T09:21:12.000Z</time>
      </trkpt>
      <trkpt lat="47.67176" lon="5.99578">
        <ele>248.80000305176</ele>
        <time>2012-05-04T09:21:13.000Z</time>
      </trkpt>
      <trkpt lat="47.67177" lon="5.99582">
        <ele>248.39999389648</ele>
        <time>2012-05-04T09:21:14.000Z</time>
      </trkpt>
      <trkpt lat="47.67178" lon="5.99586">
        <ele>247.80000305176</ele>
        <time>2012-05-04T09:21:15.000Z</time>
      </trkpt>
      <trkpt lat="47.6718" lon="5.99591">
        <ele>247.39999389648</ele>
        <time>2012-05-04T09:21:16.000Z</time>
      </trkpt>
      <trkpt lat="47.67181" lon="5.99595">
        <ele>247</ele>
        <time>2012-05-04T09:21:17.000Z</time>
      </trkpt>
      <trkpt lat="47.67183" lon="5.996">
        <ele>246.60000610352</ele>
        <time>2012-05-04T09:21:18.000Z</time>
      </trkpt>
      <trkpt lat="47.67187" lon="5.99614">
        <ele>246</ele>
        <time>2012-05-04T09:21:22.000Z</time>
      </trkpt>
      <trkpt lat="47.67188" lon="5.99617">
        <ele>245.60000610352</ele>
        <time>2012-05-04T09:21:23.000Z</time>
      </trkpt>
      <trkpt lat="47.67188" lon="5.99622">
        <ele>245.19999694824</ele>
        <time>2012-05-04T09:21:24.000Z</time>
      </trkpt>
      <trkpt lat="47.67187" lon="5.99626">
        <ele>244.80000305176</ele>
        <time>2012-05-04T09:21:25.000Z</time>
      </trkpt>
      <trkpt lat="47.67188" lon="5.9963">
        <ele>244.39999389648</ele>
        <time>2012-05-04T09:21:26.000Z</time>
      </trkpt>
      <trkpt lat="47.67189" lon="5.99634">
        <ele>244</ele>
        <time>2012-05-04T09:21:27.000Z</time>
      </trkpt>
      <trkpt lat="47.6719" lon="5.99638">
        <ele>243.60000610352</ele>
        <time>2012-05-04T09:21:28.000Z</time>
      </trkpt>
      <trkpt lat="47.67192" lon="5.99642">
        <ele>243.19999694824</ele>
        <time>2012-05-04T09:21:29.000Z</time>
      </trkpt>
      <trkpt lat="47.67194" lon="5.99645">
        <ele>242.80000305176</ele>
        <time>2012-05-04T09:21:30.000Z</time>
      </trkpt>
      <trkpt lat="47.67195" lon="5.99649">
        <ele>242.39999389648</ele>
        <time>2012-05-04T09:21:31.000Z</time>
      </trkpt>
      <trkpt lat="47.67196" lon="5.99652">
        <ele>242.39999389648</ele>
        <time>2012-05-04T09:21:32.000Z</time>
      </trkpt>
      <trkpt lat="47.67199" lon="5.99659">
        <ele>241.80000305176</ele>
        <time>2012-05-04T09:21:34.000Z</time>
      </trkpt>
      <trkpt lat="47.672" lon="5.99662">
        <ele>241.39999389648</ele>
        <time>2012-05-04T09:21:35.000Z</time>
      </trkpt>
      <trkpt lat="47.67202" lon="5.99665">
        <ele>241</ele>
        <time>2012-05-04T09:21:36.000Z</time>
      </trkpt>
      <trkpt lat="47.67203" lon="5.99668">
        <ele>240.60000610352</ele>
        <time>2012-05-04T09:21:37.000Z</time>
      </trkpt>
      <trkpt lat="47.67205" lon="5.99672">
        <ele>240</ele>
        <time>2012-05-04T09:21:38.000Z</time>
      </trkpt>
      <trkpt lat="47.67206" lon="5.99676">
        <ele>239.60000610352</ele>
        <time>2012-05-04T09:21:39.000Z</time>
      </trkpt>
      <trkpt lat="47.67208" lon="5.99678">
        <ele>239.19999694824</ele>
        <time>2012-05-04T09:21:40.000Z</time>
      </trkpt>
      <trkpt lat="47.6721" lon="5.99681">
        <ele>238.80000305176</ele>
        <time>2012-05-04T09:21:41.000Z</time>
      </trkpt>
      <trkpt lat="47.67212" lon="5.99682">
        <ele>238.39999389648</ele>
        <time>2012-05-04T09:21:42.000Z</time>
      </trkpt>
      <trkpt lat="47.67214" lon="5.99683">
        <ele>238</ele>
        <time>2012-05-04T09:21:43.000Z</time>
      </trkpt>
      <trkpt lat="47.67218" lon="5.99687">
        <ele>237.60000610352</ele>
        <time>2012-05-04T09:21:45.000Z</time>
      </trkpt>
      <trkpt lat="47.6722" lon="5.99689">
        <ele>237.19999694824</ele>
        <time>2012-05-04T09:21:46.000Z</time>
      </trkpt>
      <trkpt lat="47.67221" lon="5.9969">
        <ele>236.80000305176</ele>
        <time>2012-05-04T09:21:47.000Z</time>
      </trkpt>
      <trkpt lat="47.67222" lon="5.99691">
        <ele>236.39999389648</ele>
        <time>2012-05-04T09:21:48.000Z</time>
      </trkpt>
      <trkpt lat="47.67224" lon="5.99692">
        <ele>236</ele>
        <time>2012-05-04T09:21:49.000Z</time>
      </trkpt>
      <trkpt lat="47.67233" lon="5.99703">
        <ele>236</ele>
        <time>2012-05-04T09:21:55.000Z</time>
      </trkpt>
      <trkpt lat="47.67234" lon="5.99706">
        <ele>235.60000610352</ele>
        <time>2012-05-04T09:21:56.000Z</time>
      </trkpt>
      <trkpt lat="47.67235" lon="5.99709">
        <ele>235.19999694824</ele>
        <time>2012-05-04T09:21:57.000Z</time>
      </trkpt>
      <trkpt lat="47.67237" lon="5.99712">
        <ele>234.60000610352</ele>
        <time>2012-05-04T09:21:58.000Z</time>
      </trkpt>
      <trkpt lat="47.67238" lon="5.99715">
        <ele>234.19999694824</ele>
        <time>2012-05-04T09:21:59.000Z</time>
      </trkpt>
      <trkpt lat="47.6724" lon="5.99718">
        <ele>233.80000305176</ele>
        <time>2012-05-04T09:22:00.000Z</time>
      </trkpt>
      <trkpt lat="47.67241" lon="5.99722">
        <ele>233.80000305176</ele>
        <time>2012-05-04T09:22:01.000Z</time>
      </trkpt>
      <trkpt lat="47.67245" lon="5.99735">
        <ele>233.39999389648</ele>
        <time>2012-05-04T09:22:05.000Z</time>
      </trkpt>
      <trkpt lat="47.67246" lon="5.99738">
        <ele>233</ele>
        <time>2012-05-04T09:22:06.000Z</time>
      </trkpt>
      <trkpt lat="47.67248" lon="5.99742">
        <ele>232.60000610352</ele>
        <time>2012-05-04T09:22:07.000Z</time>
      </trkpt>
      <trkpt lat="47.67249" lon="5.99747">
        <ele>232</ele>
        <time>2012-05-04T09:22:08.000Z</time>
      </trkpt>
      <trkpt lat="47.6725" lon="5.9975">
        <ele>231.60000610352</ele>
        <time>2012-05-04T09:22:09.000Z</time>
      </trkpt>
      <trkpt lat="47.67254" lon="5.99763">
        <ele>231.60000610352</ele>
        <time>2012-05-04T09:22:12.000Z</time>
      </trkpt>
      <trkpt lat="47.67256" lon="5.99767">
        <ele>231.19999694824</ele>
        <time>2012-05-04T09:22:13.000Z</time>
      </trkpt>
      <trkpt lat="47.67258" lon="5.99771">
        <ele>230.80000305176</ele>
        <time>2012-05-04T09:22:14.000Z</time>
      </trkpt>
      <trkpt lat="47.6726" lon="5.99774">
        <ele>230.39999389648</ele>
        <time>2012-05-04T09:22:15.000Z</time>
      </trkpt>
      <trkpt lat="47.67261" lon="5.99777">
        <ele>230</ele>
        <time>2012-05-04T09:22:16.000Z</time>
      </trkpt>
      <trkpt lat="47.67263" lon="5.99779">
        <ele>229.60000610352</ele>
        <time>2012-05-04T09:22:17.000Z</time>
      </trkpt>
      <trkpt lat="47.6727" lon="5.9979">
        <ele>229.60000610352</ele>
        <time>2012-05-04T09:22:22.000Z</time>
      </trkpt>
      <trkpt lat="47.6727" lon="5.99795">
        <ele>229</ele>
        <time>2012-05-04T09:22:25.000Z</time>
      </trkpt>
      <trkpt lat="47.6727" lon="5.99797">
        <ele>228.60000610352</ele>
        <time>2012-05-04T09:22:26.000Z</time>
      </trkpt>
      <trkpt lat="47.67269" lon="5.99798">
        <ele>227.80000305176</ele>
        <time>2012-05-04T09:22:27.000Z</time>
      </trkpt>
      <trkpt lat="47.67269" lon="5.99799">
        <ele>227.39999389648</ele>
        <time>2012-05-04T09:22:28.000Z</time>
      </trkpt>
      <trkpt lat="47.67261" lon="5.99799">
        <ele>227.39999389648</ele>
        <time>2012-05-04T09:22:32.000Z</time>
      </trkpt>
      <trkpt lat="47.6725" lon="5.99796">
        <ele>227.39999389648</ele>
        <time>2012-05-04T09:22:37.000Z</time>
      </trkpt>
      <trkpt lat="47.67248" lon="5.99795">
        <ele>227.39999389648</ele>
        <time>2012-05-04T09:22:38.000Z</time>
      </trkpt>
      <trkpt lat="47.67231" lon="5.99784">
        <ele>227.39999389648</ele>
        <time>2012-05-04T09:22:46.000Z</time>
      </trkpt>
      <trkpt lat="47.67215" lon="5.99776">
        <ele>227.39999389648</ele>
        <time>2012-05-04T09:22:53.000Z</time>
      </trkpt>
      <trkpt lat="47.67205" lon="5.99769">
        <ele>227.39999389648</ele>
        <time>2012-05-04T09:22:59.000Z</time>
      </trkpt>
      <trkpt lat="47.67192" lon="5.99765">
        <ele>227.39999389648</ele>
        <time>2012-05-04T09:23:06.000Z</time>
      </trkpt>
      <trkpt lat="47.67188" lon="5.99765">
        <ele>227.39999389648</ele>
        <time>2012-05-04T09:23:10.000Z</time>
      </trkpt>
      <trkpt lat="47.67188" lon="5.99765">
        <ele>227.39999389648</ele>
        <time>2012-05-04T09:23:15.000Z</time>
      </trkpt>
      <trkpt lat="47.67186" lon="5.99763">
        <ele>227.39999389648</ele>
        <time>2012-05-04T09:23:17.000Z</time>
      </trkpt>
      <trkpt lat="47.67184" lon="5.99764">
        <ele>227.39999389648</ele>
        <time>2012-05-04T09:23:18.000Z</time>
      </trkpt>
      <trkpt lat="47.67177" lon="5.99764">
        <ele>227.39999389648</ele>
        <time>2012-05-04T09:23:21.000Z</time>
      </trkpt>
      <trkpt lat="47.67163" lon="5.99763">
        <ele>227.39999389648</ele>
        <time>2012-05-04T09:23:26.000Z</time>
      </trkpt>
      <trkpt lat="47.67148" lon="5.99765">
        <ele>227.39999389648</ele>
        <time>2012-05-04T09:23:30.000Z</time>
      </trkpt>
      <trkpt lat="47.67119" lon="5.99769">
        <ele>227.39999389648</ele>
        <time>2012-05-04T09:23:36.000Z</time>
      </trkpt>
      <trkpt lat="47.67091" lon="5.99776">
        <ele>227</ele>
        <time>2012-05-04T09:23:41.000Z</time>
      </trkpt>
      <trkpt lat="47.67086" lon="5.99778">
        <ele>226.60000610352</ele>
        <time>2012-05-04T09:23:42.000Z</time>
      </trkpt>
      <trkpt lat="47.67082" lon="5.99779">
        <ele>226.19999694824</ele>
        <time>2012-05-04T09:23:43.000Z</time>
      </trkpt>
      <trkpt lat="47.67079" lon="5.99781">
        <ele>225.60000610352</ele>
        <time>2012-05-04T09:23:44.000Z</time>
      </trkpt>
      <trkpt lat="47.67075" lon="5.99783">
        <ele>225.19999694824</ele>
        <time>2012-05-04T09:23:45.000Z</time>
      </trkpt>
      <trkpt lat="47.67071" lon="5.99785">
        <ele>225.19999694824</ele>
        <time>2012-05-04T09:23:46.000Z</time>
      </trkpt>
      <trkpt lat="47.67056" lon="5.99793">
        <ele>225.19999694824</ele>
        <time>2012-05-04T09:23:51.000Z</time>
      </trkpt>
      <trkpt lat="47.6704" lon="5.998">
        <ele>225.19999694824</ele>
        <time>2012-05-04T09:23:57.000Z</time>
      </trkpt>
      <trkpt lat="47.67018" lon="5.99809">
        <ele>225.19999694824</ele>
        <time>2012-05-04T09:24:04.000Z</time>
      </trkpt>
      <trkpt lat="47.67001" lon="5.99817">
        <ele>225.19999694824</ele>
        <time>2012-05-04T09:24:08.000Z</time>
      </trkpt>
      <trkpt lat="47.66996" lon="5.99819">
        <ele>224.80000305176</ele>
        <time>2012-05-04T09:24:09.000Z</time>
      </trkpt>
      <trkpt lat="47.66991" lon="5.9982">
        <ele>224.39999389648</ele>
        <time>2012-05-04T09:24:10.000Z</time>
      </trkpt>
      <trkpt lat="47.66986" lon="5.99821">
        <ele>224</ele>
        <time>2012-05-04T09:24:11.000Z</time>
      </trkpt>
      <trkpt lat="47.6698" lon="5.99821">
        <ele>223.60000610352</ele>
        <time>2012-05-04T09:24:12.000Z</time>
      </trkpt>
      <trkpt lat="47.66976" lon="5.99821">
        <ele>223.19999694824</ele>
        <time>2012-05-04T09:24:13.000Z</time>
      </trkpt>
      <trkpt lat="47.66953" lon="5.99822">
        <ele>223.19999694824</ele>
        <time>2012-05-04T09:24:19.000Z</time>
      </trkpt>
      <trkpt lat="47.66929" lon="5.99828">
        <ele>223.19999694824</ele>
        <time>2012-05-04T09:24:26.000Z</time>
      </trkpt>
      <trkpt lat="47.66916" lon="5.99833">
        <ele>223.19999694824</ele>
        <time>2012-05-04T09:24:32.000Z</time>
      </trkpt>
      <trkpt lat="47.66902" lon="5.9984">
        <ele>223.19999694824</ele>
        <time>2012-05-04T09:24:39.000Z</time>
      </trkpt>
      <trkpt lat="47.6689" lon="5.99845">
        <ele>223.19999694824</ele>
        <time>2012-05-04T09:24:45.000Z</time>
      </trkpt>
      <trkpt lat="47.66884" lon="5.99857">
        <ele>223.19999694824</ele>
        <time>2012-05-04T09:24:50.000Z</time>
      </trkpt>
      <trkpt lat="47.66881" lon="5.99876">
        <ele>223.19999694824</ele>
        <time>2012-05-04T09:24:54.000Z</time>
      </trkpt>
      <trkpt lat="47.66873" lon="5.99894">
        <ele>223.19999694824</ele>
        <time>2012-05-04T09:24:58.000Z</time>
      </trkpt>
      <trkpt lat="47.66861" lon="5.99908">
        <ele>223.19999694824</ele>
        <time>2012-05-04T09:25:04.000Z</time>
      </trkpt>
      <trkpt lat="47.66851" lon="5.9992">
        <ele>223.19999694824</ele>
        <time>2012-05-04T09:25:10.000Z</time>
      </trkpt>
      <trkpt lat="47.66849" lon="5.99924">
        <ele>223.19999694824</ele>
        <time>2012-05-04T09:25:12.000Z</time>
      </trkpt>
      <trkpt lat="47.66845" lon="5.99933">
        <ele>223.19999694824</ele>
        <time>2012-05-04T09:25:15.000Z</time>
      </trkpt>
      <trkpt lat="47.6684" lon="5.99945">
        <ele>222.80000305176</ele>
        <time>2012-05-04T09:25:18.000Z</time>
      </trkpt>
      <trkpt lat="47.66838" lon="5.99949">
        <ele>222.39999389648</ele>
        <time>2012-05-04T09:25:19.000Z</time>
      </trkpt>
      <trkpt lat="47.66837" lon="5.99952">
        <ele>221.60000610352</ele>
        <time>2012-05-04T09:25:20.000Z</time>
      </trkpt>
      <trkpt lat="47.66836" lon="5.99955">
        <ele>221.19999694824</ele>
        <time>2012-05-04T09:25:21.000Z</time>
      </trkpt>
      <trkpt lat="47.66829" lon="5.99974">
        <ele>221.19999694824</ele>
        <time>2012-05-04T09:25:25.000Z</time>
      </trkpt>
      <trkpt lat="47.66825" lon="5.99987">
        <ele>220.80000305176</ele>
        <time>2012-05-04T09:25:27.000Z</time>
      </trkpt>
      <trkpt lat="47.66823" lon="5.99994">
        <ele>220.39999389648</ele>
        <time>2012-05-04T09:25:28.000Z</time>
      </trkpt>
      <trkpt lat="47.66821" lon="6.00001">
        <ele>220</ele>
        <time>2012-05-04T09:25:29.000Z</time>
      </trkpt>
      <trkpt lat="47.66818" lon="6.00007">
        <ele>219.60000610352</ele>
        <time>2012-05-04T09:25:30.000Z</time>
      </trkpt>
      <trkpt lat="47.66816" lon="6.00013">
        <ele>219.19999694824</ele>
        <time>2012-05-04T09:25:31.000Z</time>
      </trkpt>
      <trkpt lat="47.66804" lon="6.00039">
        <ele>219.19999694824</ele>
        <time>2012-05-04T09:25:36.000Z</time>
      </trkpt>
      <trkpt lat="47.66795" lon="6.00056">
        <ele>218.80000305176</ele>
        <time>2012-05-04T09:25:40.000Z</time>
      </trkpt>
      <trkpt lat="47.66793" lon="6.0006">
        <ele>218.39999389648</ele>
        <time>2012-05-04T09:25:41.000Z</time>
      </trkpt>
      <trkpt lat="47.66791" lon="6.00063">
        <ele>217.80000305176</ele>
        <time>2012-05-04T09:25:42.000Z</time>
      </trkpt>
      <trkpt lat="47.66789" lon="6.00066">
        <ele>217.39999389648</ele>
        <time>2012-05-04T09:25:43.000Z</time>
      </trkpt>
      <trkpt lat="47.66786" lon="6.00069">
        <ele>217</ele>
        <time>2012-05-04T09:25:44.000Z</time>
      </trkpt>
      <trkpt lat="47.66781" lon="6.00079">
        <ele>217</ele>
        <time>2012-05-04T09:25:47.000Z</time>
      </trkpt>
      <trkpt lat="47.66774" lon="6.00094">
        <ele>217</ele>
        <time>2012-05-04T09:25:52.000Z</time>
      </trkpt>
      <trkpt lat="47.66767" lon="6.00114">
        <ele>217</ele>
        <time>2012-05-04T09:25:58.000Z</time>
      </trkpt>
      <trkpt lat="47.66763" lon="6.00139">
        <ele>217</ele>
        <time>2012-05-04T09:26:05.000Z</time>
      </trkpt>
      <trkpt lat="47.66758" lon="6.00172">
        <ele>217</ele>
        <time>2012-05-04T09:26:13.000Z</time>
      </trkpt>
      <trkpt lat="47.66756" lon="6.00183">
        <ele>216.60000610352</ele>
        <time>2012-05-04T09:26:15.000Z</time>
      </trkpt>
      <trkpt lat="47.66755" lon="6.00188">
        <ele>216.19999694824</ele>
        <time>2012-05-04T09:26:16.000Z</time>
      </trkpt>
      <trkpt lat="47.66754" lon="6.00194">
        <ele>215.80000305176</ele>
        <time>2012-05-04T09:26:17.000Z</time>
      </trkpt>
      <trkpt lat="47.66753" lon="6.00199">
        <ele>215.39999389648</ele>
        <time>2012-05-04T09:26:18.000Z</time>
      </trkpt>
      <trkpt lat="47.66752" lon="6.00205">
        <ele>215</ele>
        <time>2012-05-04T09:26:19.000Z</time>
      </trkpt>
      <trkpt lat="47.66746" lon="6.00232">
        <ele>215</ele>
        <time>2012-05-04T09:26:24.000Z</time>
      </trkpt>
      <trkpt lat="47.66743" lon="6.00248">
        <ele>215</ele>
        <time>2012-05-04T09:26:27.000Z</time>
      </trkpt>
      <trkpt lat="47.6674" lon="6.0026">
        <ele>215</ele>
        <time>2012-05-04T09:26:29.000Z</time>
      </trkpt>
      <trkpt lat="47.66732" lon="6.00301">
        <ele>215</ele>
        <time>2012-05-04T09:26:36.000Z</time>
      </trkpt>
      <trkpt lat="47.66731" lon="6.00307">
        <ele>214.60000610352</ele>
        <time>2012-05-04T09:26:37.000Z</time>
      </trkpt>
      <trkpt lat="47.6673" lon="6.00313">
        <ele>214.19999694824</ele>
        <time>2012-05-04T09:26:38.000Z</time>
      </trkpt>
      <trkpt lat="47.66728" lon="6.00319">
        <ele>213.80000305176</ele>
        <time>2012-05-04T09:26:39.000Z</time>
      </trkpt>
      <trkpt lat="47.66727" lon="6.00326">
        <ele>213.39999389648</ele>
        <time>2012-05-04T09:26:40.000Z</time>
      </trkpt>
      <trkpt lat="47.66725" lon="6.00332">
        <ele>212.80000305176</ele>
        <time>2012-05-04T09:26:41.000Z</time>
      </trkpt>
      <trkpt lat="47.66721" lon="6.00346">
        <ele>212.80000305176</ele>
        <time>2012-05-04T09:26:43.000Z</time>
      </trkpt>
      <trkpt lat="47.66705" lon="6.00385">
        <ele>212.80000305176</ele>
        <time>2012-05-04T09:26:49.000Z</time>
      </trkpt>
      <trkpt lat="47.66697" lon="6.00398">
        <ele>212.39999389648</ele>
        <time>2012-05-04T09:26:51.000Z</time>
      </trkpt>
      <trkpt lat="47.66693" lon="6.00406">
        <ele>212</ele>
        <time>2012-05-04T09:26:52.000Z</time>
      </trkpt>
      <trkpt lat="47.66689" lon="6.00412">
        <ele>211.60000610352</ele>
        <time>2012-05-04T09:26:53.000Z</time>
      </trkpt>
      <trkpt lat="47.66685" lon="6.00418">
        <ele>211.19999694824</ele>
        <time>2012-05-04T09:26:54.000Z</time>
      </trkpt>
      <trkpt lat="47.6668" lon="6.00425">
        <ele>210.80000305176</ele>
        <time>2012-05-04T09:26:55.000Z</time>
      </trkpt>
      <trkpt lat="47.66665" lon="6.00445">
        <ele>210.39999389648</ele>
        <time>2012-05-04T09:26:58.000Z</time>
      </trkpt>
      <trkpt lat="47.66661" lon="6.00452">
        <ele>210</ele>
        <time>2012-05-04T09:26:59.000Z</time>
      </trkpt>
      <trkpt lat="47.66656" lon="6.00459">
        <ele>209.60000610352</ele>
        <time>2012-05-04T09:27:00.000Z</time>
      </trkpt>
      <trkpt lat="47.66652" lon="6.00466">
        <ele>209.19999694824</ele>
        <time>2012-05-04T09:27:01.000Z</time>
      </trkpt>
      <trkpt lat="47.66648" lon="6.00473">
        <ele>208.80000305176</ele>
        <time>2012-05-04T09:27:02.000Z</time>
      </trkpt>
      <trkpt lat="47.66644" lon="6.0048">
        <ele>208.80000305176</ele>
        <time>2012-05-04T09:27:03.000Z</time>
      </trkpt>
      <trkpt lat="47.66628" lon="6.00512">
        <ele>208.80000305176</ele>
        <time>2012-05-04T09:27:08.000Z</time>
      </trkpt>
      <trkpt lat="47.66609" lon="6.00546">
        <ele>208.80000305176</ele>
        <time>2012-05-04T09:27:14.000Z</time>
      </trkpt>
      <trkpt lat="47.66599" lon="6.00565">
        <ele>208.39999389648</ele>
        <time>2012-05-04T09:27:17.000Z</time>
      </trkpt>
      <trkpt lat="47.66596" lon="6.00573">
        <ele>208</ele>
        <time>2012-05-04T09:27:18.000Z</time>
      </trkpt>
      <trkpt lat="47.66593" lon="6.00579">
        <ele>207.60000610352</ele>
        <time>2012-05-04T09:27:19.000Z</time>
      </trkpt>
      <trkpt lat="47.6659" lon="6.00586">
        <ele>207.19999694824</ele>
        <time>2012-05-04T09:27:20.000Z</time>
      </trkpt>
      <trkpt lat="47.66587" lon="6.00592">
        <ele>206.60000610352</ele>
        <time>2012-05-04T09:27:21.000Z</time>
      </trkpt>
      <trkpt lat="47.66582" lon="6.00607">
        <ele>206.60000610352</ele>
        <time>2012-05-04T09:27:23.000Z</time>
      </trkpt>
      <trkpt lat="47.66577" lon="6.00621">
        <ele>206.60000610352</ele>
        <time>2012-05-04T09:27:25.000Z</time>
      </trkpt>
      <trkpt lat="47.66567" lon="6.00649">
        <ele>206.60000610352</ele>
        <time>2012-05-04T09:27:29.000Z</time>
      </trkpt>
      <trkpt lat="47.66558" lon="6.00668">
        <ele>206.19999694824</ele>
        <time>2012-05-04T09:27:32.000Z</time>
      </trkpt>
      <trkpt lat="47.66555" lon="6.00674">
        <ele>205.80000305176</ele>
        <time>2012-05-04T09:27:33.000Z</time>
      </trkpt>
      <trkpt lat="47.66552" lon="6.00679">
        <ele>205.39999389648</ele>
        <time>2012-05-04T09:27:34.000Z</time>
      </trkpt>
      <trkpt lat="47.66549" lon="6.00685">
        <ele>205</ele>
        <time>2012-05-04T09:27:35.000Z</time>
      </trkpt>
      <trkpt lat="47.66545" lon="6.0069">
        <ele>204.60000610352</ele>
        <time>2012-05-04T09:27:36.000Z</time>
      </trkpt>
      <trkpt lat="47.66538" lon="6.00701">
        <ele>204.60000610352</ele>
        <time>2012-05-04T09:27:38.000Z</time>
      </trkpt>
      <trkpt lat="47.66517" lon="6.00737">
        <ele>204.60000610352</ele>
        <time>2012-05-04T09:27:44.000Z</time>
      </trkpt>
      <trkpt lat="47.665" lon="6.00766">
        <ele>204.60000610352</ele>
        <time>2012-05-04T09:27:50.000Z</time>
      </trkpt>
      <trkpt lat="47.66497" lon="6.00771">
        <ele>204.19999694824</ele>
        <time>2012-05-04T09:27:51.000Z</time>
      </trkpt>
      <trkpt lat="47.66493" lon="6.00777">
        <ele>203.80000305176</ele>
        <time>2012-05-04T09:27:52.000Z</time>
      </trkpt>
      <trkpt lat="47.66489" lon="6.00781">
        <ele>203.39999389648</ele>
        <time>2012-05-04T09:27:53.000Z</time>
      </trkpt>
      <trkpt lat="47.66485" lon="6.00786">
        <ele>202.80000305176</ele>
        <time>2012-05-04T09:27:54.000Z</time>
      </trkpt>
      <trkpt lat="47.66481" lon="6.00791">
        <ele>202.39999389648</ele>
        <time>2012-05-04T09:27:55.000Z</time>
      </trkpt>
      <trkpt lat="47.66453" lon="6.00834">
        <ele>202.39999389648</ele>
        <time>2012-05-04T09:28:03.000Z</time>
      </trkpt>
      <trkpt lat="47.66437" lon="6.00855">
        <ele>202.39999389648</ele>
        <time>2012-05-04T09:28:08.000Z</time>
      </trkpt>
      <trkpt lat="47.66416" lon="6.00885">
        <ele>202.39999389648</ele>
        <time>2012-05-04T09:28:15.000Z</time>
      </trkpt>
      <trkpt lat="47.66413" lon="6.00891">
        <ele>202.39999389648</ele>
        <time>2012-05-04T09:28:16.000Z</time>
      </trkpt>
      <trkpt lat="47.6641" lon="6.00896">
        <ele>202</ele>
        <time>2012-05-04T09:28:17.000Z</time>
      </trkpt>
      <trkpt lat="47.66407" lon="6.009">
        <ele>201.60000610352</ele>
        <time>2012-05-04T09:28:18.000Z</time>
      </trkpt>
      <trkpt lat="47.66403" lon="6.00905">
        <ele>201.19999694824</ele>
        <time>2012-05-04T09:28:19.000Z</time>
      </trkpt>
      <trkpt lat="47.664" lon="6.0091">
        <ele>200.80000305176</ele>
        <time>2012-05-04T09:28:20.000Z</time>
      </trkpt>
      <trkpt lat="47.66396" lon="6.00914">
        <ele>200.39999389648</ele>
        <time>2012-05-04T09:28:21.000Z</time>
      </trkpt>
      <trkpt lat="47.66393" lon="6.00918">
        <ele>200.39999389648</ele>
        <time>2012-05-04T09:28:22.000Z</time>
      </trkpt>
      <trkpt lat="47.66383" lon="6.00931">
        <ele>200.39999389648</ele>
        <time>2012-05-04T09:28:25.000Z</time>
      </trkpt>
      <trkpt lat="47.66363" lon="6.00959">
        <ele>200.39999389648</ele>
        <time>2012-05-04T09:28:31.000Z</time>
      </trkpt>
      <trkpt lat="47.66332" lon="6.00988">
        <ele>200.39999389648</ele>
        <time>2012-05-04T09:28:38.000Z</time>
      </trkpt>
      <trkpt lat="47.66306" lon="6.01007">
        <ele>200.39999389648</ele>
        <time>2012-05-04T09:28:44.000Z</time>
      </trkpt>
      <trkpt lat="47.66287" lon="6.01021">
        <ele>200.39999389648</ele>
        <time>2012-05-04T09:28:49.000Z</time>
      </trkpt>
      <trkpt lat="47.66261" lon="6.01041">
        <ele>200.39999389648</ele>
        <time>2012-05-04T09:28:56.000Z</time>
      </trkpt>
      <trkpt lat="47.66234" lon="6.0105">
        <ele>200.39999389648</ele>
        <time>2012-05-04T09:29:03.000Z</time>
      </trkpt>
      <trkpt lat="47.66209" lon="6.0105">
        <ele>200.39999389648</ele>
        <time>2012-05-04T09:29:09.000Z</time>
      </trkpt>
      <trkpt lat="47.66188" lon="6.01052">
        <ele>200</ele>
        <time>2012-05-04T09:29:14.000Z</time>
      </trkpt>
      <trkpt lat="47.66183" lon="6.01052">
        <ele>199.60000610352</ele>
        <time>2012-05-04T09:29:15.000Z</time>
      </trkpt>
      <trkpt lat="47.66179" lon="6.01052">
        <ele>199.19999694824</ele>
        <time>2012-05-04T09:29:16.000Z</time>
      </trkpt>
      <trkpt lat="47.66174" lon="6.01053">
        <ele>198.80000305176</ele>
        <time>2012-05-04T09:29:17.000Z</time>
      </trkpt>
      <trkpt lat="47.6617" lon="6.01053">
        <ele>198.39999389648</ele>
        <time>2012-05-04T09:29:18.000Z</time>
      </trkpt>
      <trkpt lat="47.6615" lon="6.01056">
        <ele>198.39999389648</ele>
        <time>2012-05-04T09:29:23.000Z</time>
      </trkpt>
      <trkpt lat="47.66129" lon="6.01044">
        <ele>198.39999389648</ele>
        <time>2012-05-04T09:29:29.000Z</time>
      </trkpt>
      <trkpt lat="47.66118" lon="6.01034">
        <ele>198.39999389648</ele>
        <time>2012-05-04T09:29:32.000Z</time>
      </trkpt>
      <trkpt lat="47.66107" lon="6.01026">
        <ele>198.39999389648</ele>
        <time>2012-05-04T09:29:35.000Z</time>
      </trkpt>
      <trkpt lat="47.66088" lon="6.01008">
        <ele>198.39999389648</ele>
        <time>2012-05-04T09:29:41.000Z</time>
      </trkpt>
      <trkpt lat="47.66065" lon="6.00985">
        <ele>198.39999389648</ele>
        <time>2012-05-04T09:29:48.000Z</time>
      </trkpt>
      <trkpt lat="47.66045" lon="6.00966">
        <ele>198.39999389648</ele>
        <time>2012-05-04T09:29:54.000Z</time>
      </trkpt>
      <trkpt lat="47.66023" lon="6.00949">
        <ele>198.39999389648</ele>
        <time>2012-05-04T09:30:01.000Z</time>
      </trkpt>
      <trkpt lat="47.66008" lon="6.00944">
        <ele>198.39999389648</ele>
        <time>2012-05-04T09:30:06.000Z</time>
      </trkpt>
      <trkpt lat="47.65994" lon="6.00949">
        <ele>198.39999389648</ele>
        <time>2012-05-04T09:30:10.000Z</time>
      </trkpt>
      <trkpt lat="47.65984" lon="6.00956">
        <ele>198</ele>
        <time>2012-05-04T09:30:13.000Z</time>
      </trkpt>
      <trkpt lat="47.6598" lon="6.00957">
        <ele>197.39999389648</ele>
        <time>2012-05-04T09:30:14.000Z</time>
      </trkpt>
      <trkpt lat="47.65977" lon="6.00955">
        <ele>197</ele>
        <time>2012-05-04T09:30:15.000Z</time>
      </trkpt>
      <trkpt lat="47.65975" lon="6.00952">
        <ele>196.60000610352</ele>
        <time>2012-05-04T09:30:16.000Z</time>
      </trkpt>
      <trkpt lat="47.65972" lon="6.00948">
        <ele>196.19999694824</ele>
        <time>2012-05-04T09:30:17.000Z</time>
      </trkpt>
      <trkpt lat="47.65966" lon="6.00942">
        <ele>196.19999694824</ele>
        <time>2012-05-04T09:30:19.000Z</time>
      </trkpt>
      <trkpt lat="47.6596" lon="6.00934">
        <ele>196.19999694824</ele>
        <time>2012-05-04T09:30:21.000Z</time>
      </trkpt>
      <trkpt lat="47.65954" lon="6.00926">
        <ele>196.19999694824</ele>
        <time>2012-05-04T09:30:23.000Z</time>
      </trkpt>
      <trkpt lat="47.65951" lon="6.00921">
        <ele>196.19999694824</ele>
        <time>2012-05-04T09:30:24.000Z</time>
      </trkpt>
      <trkpt lat="47.65941" lon="6.00908">
        <ele>196.19999694824</ele>
        <time>2012-05-04T09:30:27.000Z</time>
      </trkpt>
      <trkpt lat="47.65931" lon="6.00894">
        <ele>196.19999694824</ele>
        <time>2012-05-04T09:30:30.000Z</time>
      </trkpt>
      <trkpt lat="47.65916" lon="6.00876">
        <ele>196.19999694824</ele>
        <time>2012-05-04T09:30:34.000Z</time>
      </trkpt>
      <trkpt lat="47.65898" lon="6.00855">
        <ele>196.19999694824</ele>
        <time>2012-05-04T09:30:39.000Z</time>
      </trkpt>
      <trkpt lat="47.65877" lon="6.00828">
        <ele>195.80000305176</ele>
        <time>2012-05-04T09:30:45.000Z</time>
      </trkpt>
      <trkpt lat="47.65873" lon="6.00823">
        <ele>195.19999694824</ele>
        <time>2012-05-04T09:30:46.000Z</time>
      </trkpt>
      <trkpt lat="47.65869" lon="6.00818">
        <ele>194.80000305176</ele>
        <time>2012-05-04T09:30:47.000Z</time>
      </trkpt>
      <trkpt lat="47.65865" lon="6.00813">
        <ele>194.39999389648</ele>
        <time>2012-05-04T09:30:48.000Z</time>
      </trkpt>
      <trkpt lat="47.65861" lon="6.00808">
        <ele>194</ele>
        <time>2012-05-04T09:30:49.000Z</time>
      </trkpt>
      <trkpt lat="47.65841" lon="6.00783">
        <ele>194</ele>
        <time>2012-05-04T09:30:54.000Z</time>
      </trkpt>
      <trkpt lat="47.65806" lon="6.0074">
        <ele>194</ele>
        <time>2012-05-04T09:31:02.000Z</time>
      </trkpt>
      <trkpt lat="47.65785" lon="6.00713">
        <ele>193.60000610352</ele>
        <time>2012-05-04T09:31:07.000Z</time>
      </trkpt>
      <trkpt lat="47.65781" lon="6.00708">
        <ele>193.19999694824</ele>
        <time>2012-05-04T09:31:08.000Z</time>
      </trkpt>
      <trkpt lat="47.65776" lon="6.00703">
        <ele>192.80000305176</ele>
        <time>2012-05-04T09:31:09.000Z</time>
      </trkpt>
      <trkpt lat="47.65773" lon="6.00697">
        <ele>192.39999389648</ele>
        <time>2012-05-04T09:31:10.000Z</time>
      </trkpt>
      <trkpt lat="47.65769" lon="6.00692">
        <ele>192</ele>
        <time>2012-05-04T09:31:11.000Z</time>
      </trkpt>
      <trkpt lat="47.65746" lon="6.00661">
        <ele>192</ele>
        <time>2012-05-04T09:31:17.000Z</time>
      </trkpt>
      <trkpt lat="47.65713" lon="6.00621">
        <ele>192</ele>
        <time>2012-05-04T09:31:25.000Z</time>
      </trkpt>
      <trkpt lat="47.65706" lon="6.00611">
        <ele>192</ele>
        <time>2012-05-04T09:31:27.000Z</time>
      </trkpt>
      <trkpt lat="47.65691" lon="6.00592">
        <ele>192</ele>
        <time>2012-05-04T09:31:31.000Z</time>
      </trkpt>
      <trkpt lat="47.65661" lon="6.00555">
        <ele>192</ele>
        <time>2012-05-04T09:31:39.000Z</time>
      </trkpt>
      <trkpt lat="47.65628" lon="6.0052">
        <ele>192</ele>
        <time>2012-05-04T09:31:47.000Z</time>
      </trkpt>
      <trkpt lat="47.65624" lon="6.00516">
        <ele>192</ele>
        <time>2012-05-04T09:31:48.000Z</time>
      </trkpt>
      <trkpt lat="47.65603" lon="6.00494">
        <ele>191.60000610352</ele>
        <time>2012-05-04T09:31:53.000Z</time>
      </trkpt>
      <trkpt lat="47.65599" lon="6.00489">
        <ele>191.19999694824</ele>
        <time>2012-05-04T09:31:54.000Z</time>
      </trkpt>
      <trkpt lat="47.65595" lon="6.00485">
        <ele>190.80000305176</ele>
        <time>2012-05-04T09:31:55.000Z</time>
      </trkpt>
      <trkpt lat="47.65591" lon="6.0048">
        <ele>190.39999389648</ele>
        <time>2012-05-04T09:31:56.000Z</time>
      </trkpt>
      <trkpt lat="47.65586" lon="6.00476">
        <ele>190</ele>
        <time>2012-05-04T09:31:57.000Z</time>
      </trkpt>
      <trkpt lat="47.6557" lon="6.00461">
        <ele>190</ele>
        <time>2012-05-04T09:32:01.000Z</time>
      </trkpt>
      <trkpt lat="47.65563" lon="6.00453">
        <ele>190</ele>
        <time>2012-05-04T09:32:03.000Z</time>
      </trkpt>
      <trkpt lat="47.65555" lon="6.00448">
        <ele>190</ele>
        <time>2012-05-04T09:32:05.000Z</time>
      </trkpt>
      <trkpt lat="47.65551" lon="6.00446">
        <ele>190</ele>
        <time>2012-05-04T09:32:06.000Z</time>
      </trkpt>
      <trkpt lat="47.65534" lon="6.00456">
        <ele>190</ele>
        <time>2012-05-04T09:32:10.000Z</time>
      </trkpt>
      <trkpt lat="47.6552" lon="6.00485">
        <ele>190</ele>
        <time>2012-05-04T09:32:14.000Z</time>
      </trkpt>
      <trkpt lat="47.65512" lon="6.005">
        <ele>190</ele>
        <time>2012-05-04T09:32:16.000Z</time>
      </trkpt>
      <trkpt lat="47.65501" lon="6.00506">
        <ele>189.60000610352</ele>
        <time>2012-05-04T09:32:18.000Z</time>
      </trkpt>
      <trkpt lat="47.65495" lon="6.00506">
        <ele>189.19999694824</ele>
        <time>2012-05-04T09:32:19.000Z</time>
      </trkpt>
      <trkpt lat="47.65489" lon="6.00505">
        <ele>188.80000305176</ele>
        <time>2012-05-04T09:32:20.000Z</time>
      </trkpt>
      <trkpt lat="47.65483" lon="6.00504">
        <ele>188.19999694824</ele>
        <time>2012-05-04T09:32:21.000Z</time>
      </trkpt>
      <trkpt lat="47.65477" lon="6.00504">
        <ele>187.80000305176</ele>
        <time>2012-05-04T09:32:22.000Z</time>
      </trkpt>
      <trkpt lat="47.65471" lon="6.00504">
        <ele>187.80000305176</ele>
        <time>2012-05-04T09:32:23.000Z</time>
      </trkpt>
      <trkpt lat="47.65453" lon="6.00504">
        <ele>187.80000305176</ele>
        <time>2012-05-04T09:32:26.000Z</time>
      </trkpt>
      <trkpt lat="47.65417" lon="6.00503">
        <ele>187.80000305176</ele>
        <time>2012-05-04T09:32:32.000Z</time>
      </trkpt>
      <trkpt lat="47.6539" lon="6.00501">
        <ele>187</ele>
        <time>2012-05-04T09:32:37.000Z</time>
      </trkpt>
      <trkpt lat="47.65385" lon="6.00502">
        <ele>186.60000610352</ele>
        <time>2012-05-04T09:32:38.000Z</time>
      </trkpt>
      <trkpt lat="47.65379" lon="6.00501">
        <ele>186.19999694824</ele>
        <time>2012-05-04T09:32:39.000Z</time>
      </trkpt>
      <trkpt lat="47.65374" lon="6.00501">
        <ele>185.80000305176</ele>
        <time>2012-05-04T09:32:40.000Z</time>
      </trkpt>
      <trkpt lat="47.65364" lon="6.00503">
        <ele>185.80000305176</ele>
        <time>2012-05-04T09:32:42.000Z</time>
      </trkpt>
      <trkpt lat="47.65359" lon="6.00506">
        <ele>185.80000305176</ele>
        <time>2012-05-04T09:32:43.000Z</time>
      </trkpt>
      <trkpt lat="47.65344" lon="6.00525">
        <ele>185.80000305176</ele>
        <time>2012-05-04T09:32:47.000Z</time>
      </trkpt>
      <trkpt lat="47.6534" lon="6.0053">
        <ele>185.80000305176</ele>
        <time>2012-05-04T09:32:48.000Z</time>
      </trkpt>
      <trkpt lat="47.65337" lon="6.00534">
        <ele>185.80000305176</ele>
        <time>2012-05-04T09:32:49.000Z</time>
      </trkpt>
      <trkpt lat="47.65332" lon="6.00539">
        <ele>185.80000305176</ele>
        <time>2012-05-04T09:32:51.000Z</time>
      </trkpt>
      <trkpt lat="47.65335" lon="6.00552">
        <ele>185.80000305176</ele>
        <time>2012-05-04T09:32:54.000Z</time>
      </trkpt>
      <trkpt lat="47.65334" lon="6.00573">
        <ele>185.80000305176</ele>
        <time>2012-05-04T09:32:58.000Z</time>
      </trkpt>
      <trkpt lat="47.65334" lon="6.00579">
        <ele>185.80000305176</ele>
        <time>2012-05-04T09:32:59.000Z</time>
      </trkpt>
      <trkpt lat="47.65331" lon="6.00614">
        <ele>185.80000305176</ele>
        <time>2012-05-04T09:33:05.000Z</time>
      </trkpt>
      <trkpt lat="47.65329" lon="6.00651">
        <ele>185.80000305176</ele>
        <time>2012-05-04T09:33:11.000Z</time>
      </trkpt>
      <trkpt lat="47.65328" lon="6.00695">
        <ele>185.80000305176</ele>
        <time>2012-05-04T09:33:18.000Z</time>
      </trkpt>
      <trkpt lat="47.65328" lon="6.00727">
        <ele>185.80000305176</ele>
        <time>2012-05-04T09:33:23.000Z</time>
      </trkpt>
      <trkpt lat="47.65327" lon="6.00747">
        <ele>185.80000305176</ele>
        <time>2012-05-04T09:33:26.000Z</time>
      </trkpt>
      <trkpt lat="47.65328" lon="6.00796">
        <ele>185.80000305176</ele>
        <time>2012-05-04T09:33:33.000Z</time>
      </trkpt>
      <trkpt lat="47.65332" lon="6.00865">
        <ele>185.80000305176</ele>
        <time>2012-05-04T09:33:42.000Z</time>
      </trkpt>
      <trkpt lat="47.65335" lon="6.00894">
        <ele>185.80000305176</ele>
        <time>2012-05-04T09:33:46.000Z</time>
      </trkpt>
      <trkpt lat="47.65339" lon="6.00915">
        <ele>185.80000305176</ele>
        <time>2012-05-04T09:33:49.000Z</time>
      </trkpt>
      <trkpt lat="47.65344" lon="6.00935">
        <ele>185</ele>
        <time>2012-05-04T09:33:52.000Z</time>
      </trkpt>
      <trkpt lat="47.65346" lon="6.00942">
        <ele>184.60000610352</ele>
        <time>2012-05-04T09:33:53.000Z</time>
      </trkpt>
      <trkpt lat="47.65348" lon="6.00948">
        <ele>184.19999694824</ele>
        <time>2012-05-04T09:33:54.000Z</time>
      </trkpt>
      <trkpt lat="47.65349" lon="6.00955">
        <ele>183.80000305176</ele>
        <time>2012-05-04T09:33:55.000Z</time>
      </trkpt>
      <trkpt lat="47.65355" lon="6.00974">
        <ele>183.80000305176</ele>
        <time>2012-05-04T09:33:58.000Z</time>
      </trkpt>
      <trkpt lat="47.65373" lon="6.01029">
        <ele>183.80000305176</ele>
        <time>2012-05-04T09:34:07.000Z</time>
      </trkpt>
      <trkpt lat="47.65389" lon="6.01078">
        <ele>183.80000305176</ele>
        <time>2012-05-04T09:34:15.000Z</time>
      </trkpt>
      <trkpt lat="47.65405" lon="6.01126">
        <ele>183.80000305176</ele>
        <time>2012-05-04T09:34:23.000Z</time>
      </trkpt>
      <trkpt lat="47.65424" lon="6.01183">
        <ele>183.80000305176</ele>
        <time>2012-05-04T09:34:33.000Z</time>
      </trkpt>
      <trkpt lat="47.6544" lon="6.01219">
        <ele>183.80000305176</ele>
        <time>2012-05-04T09:34:39.000Z</time>
      </trkpt>
      <trkpt lat="47.65465" lon="6.01268">
        <ele>183.80000305176</ele>
        <time>2012-05-04T09:34:47.000Z</time>
      </trkpt>
      <trkpt lat="47.65492" lon="6.01319">
        <ele>183.80000305176</ele>
        <time>2012-05-04T09:34:56.000Z</time>
      </trkpt>
      <trkpt lat="47.65511" lon="6.01367">
        <ele>183.80000305176</ele>
        <time>2012-05-04T09:35:04.000Z</time>
      </trkpt>
      <trkpt lat="47.6553" lon="6.01413">
        <ele>183.80000305176</ele>
        <time>2012-05-04T09:35:12.000Z</time>
      </trkpt>
      <trkpt lat="47.65554" lon="6.0146">
        <ele>183.80000305176</ele>
        <time>2012-05-04T09:35:20.000Z</time>
      </trkpt>
      <trkpt lat="47.65581" lon="6.01509">
        <ele>183.80000305176</ele>
        <time>2012-05-04T09:35:28.000Z</time>
      </trkpt>
      <trkpt lat="47.65601" lon="6.01544">
        <ele>183.80000305176</ele>
        <time>2012-05-04T09:35:34.000Z</time>
      </trkpt>
      <trkpt lat="47.65618" lon="6.01572">
        <ele>183.80000305176</ele>
        <time>2012-05-04T09:35:40.000Z</time>
      </trkpt>
      <trkpt lat="47.65627" lon="6.01585">
        <ele>183.80000305176</ele>
        <time>2012-05-04T09:35:43.000Z</time>
      </trkpt>
      <trkpt lat="47.65633" lon="6.01595">
        <ele>183.80000305176</ele>
        <time>2012-05-04T09:35:45.000Z</time>
      </trkpt>
      <trkpt lat="47.65655" lon="6.01638">
        <ele>183.80000305176</ele>
        <time>2012-05-04T09:35:53.000Z</time>
      </trkpt>
      <trkpt lat="47.65665" lon="6.01677">
        <ele>183.80000305176</ele>
        <time>2012-05-04T09:35:59.000Z</time>
      </trkpt>
      <trkpt lat="47.65673" lon="6.01695">
        <ele>183.80000305176</ele>
        <time>2012-05-04T09:36:02.000Z</time>
      </trkpt>
      <trkpt lat="47.65681" lon="6.017">
        <ele>183.80000305176</ele>
        <time>2012-05-04T09:36:04.000Z</time>
      </trkpt>
      <trkpt lat="47.65693" lon="6.01693">
        <ele>183.80000305176</ele>
        <time>2012-05-04T09:36:07.000Z</time>
      </trkpt>
      <trkpt lat="47.657" lon="6.01689">
        <ele>183.80000305176</ele>
        <time>2012-05-04T09:36:09.000Z</time>
      </trkpt>
      <trkpt lat="47.65717" lon="6.0168">
        <ele>183.80000305176</ele>
        <time>2012-05-04T09:36:14.000Z</time>
      </trkpt>
      <trkpt lat="47.65738" lon="6.01668">
        <ele>183.80000305176</ele>
        <time>2012-05-04T09:36:21.000Z</time>
      </trkpt>
      <trkpt lat="47.6576" lon="6.01653">
        <ele>183.80000305176</ele>
        <time>2012-05-04T09:36:28.000Z</time>
      </trkpt>
      <trkpt lat="47.65778" lon="6.01637">
        <ele>183.80000305176</ele>
        <time>2012-05-04T09:36:33.000Z</time>
      </trkpt>
      <trkpt lat="47.65806" lon="6.01615">
        <ele>183.80000305176</ele>
        <time>2012-05-04T09:36:41.000Z</time>
      </trkpt>
      <trkpt lat="47.65825" lon="6.016">
        <ele>183.80000305176</ele>
        <time>2012-05-04T09:36:47.000Z</time>
      </trkpt>
      <trkpt lat="47.65848" lon="6.0158">
        <ele>183.80000305176</ele>
        <time>2012-05-04T09:36:53.000Z</time>
      </trkpt>
      <trkpt lat="47.65852" lon="6.01577">
        <ele>183.80000305176</ele>
        <time>2012-05-04T09:36:54.000Z</time>
      </trkpt>
      <trkpt lat="47.65871" lon="6.01564">
        <ele>183.80000305176</ele>
        <time>2012-05-04T09:36:59.000Z</time>
      </trkpt>
      <trkpt lat="47.65896" lon="6.01549">
        <ele>183.80000305176</ele>
        <time>2012-05-04T09:37:05.000Z</time>
      </trkpt>
      <trkpt lat="47.65917" lon="6.01538">
        <ele>183.80000305176</ele>
        <time>2012-05-04T09:37:10.000Z</time>
      </trkpt>
      <trkpt lat="47.6593" lon="6.01532">
        <ele>183.80000305176</ele>
        <time>2012-05-04T09:37:13.000Z</time>
      </trkpt>
      <trkpt lat="47.65942" lon="6.01526">
        <ele>183.80000305176</ele>
        <time>2012-05-04T09:37:16.000Z</time>
      </trkpt>
      <trkpt lat="47.65964" lon="6.01517">
        <ele>183.80000305176</ele>
        <time>2012-05-04T09:37:22.000Z</time>
      </trkpt>
      <trkpt lat="47.65996" lon="6.01506">
        <ele>183.80000305176</ele>
        <time>2012-05-04T09:37:30.000Z</time>
      </trkpt>
      <trkpt lat="47.6602" lon="6.01498">
        <ele>183.80000305176</ele>
        <time>2012-05-04T09:37:36.000Z</time>
      </trkpt>
      <trkpt lat="47.66029" lon="6.01496">
        <ele>183.80000305176</ele>
        <time>2012-05-04T09:37:38.000Z</time>
      </trkpt>
      <trkpt lat="47.6604" lon="6.01493">
        <ele>183.80000305176</ele>
        <time>2012-05-04T09:37:41.000Z</time>
      </trkpt>
      <trkpt lat="47.66044" lon="6.01492">
        <ele>183.80000305176</ele>
        <time>2012-05-04T09:37:42.000Z</time>
      </trkpt>
      <trkpt lat="47.66069" lon="6.01486">
        <ele>183.80000305176</ele>
        <time>2012-05-04T09:37:48.000Z</time>
      </trkpt>
      <trkpt lat="47.66081" lon="6.01483">
        <ele>183.80000305176</ele>
        <time>2012-05-04T09:37:51.000Z</time>
      </trkpt>
      <trkpt lat="47.6609" lon="6.01482">
        <ele>183.80000305176</ele>
        <time>2012-05-04T09:37:53.000Z</time>
      </trkpt>
      <trkpt lat="47.66094" lon="6.01481">
        <ele>183.80000305176</ele>
        <time>2012-05-04T09:37:54.000Z</time>
      </trkpt>
      <trkpt lat="47.66113" lon="6.01477">
        <ele>183.80000305176</ele>
        <time>2012-05-04T09:37:59.000Z</time>
      </trkpt>
      <trkpt lat="47.66137" lon="6.01474">
        <ele>183.80000305176</ele>
        <time>2012-05-04T09:38:05.000Z</time>
      </trkpt>
      <trkpt lat="47.66156" lon="6.01473">
        <ele>183.80000305176</ele>
        <time>2012-05-04T09:38:10.000Z</time>
      </trkpt>
      <trkpt lat="47.66188" lon="6.0147">
        <ele>183.80000305176</ele>
        <time>2012-05-04T09:38:17.000Z</time>
      </trkpt>
      <trkpt lat="47.66222" lon="6.01474">
        <ele>183.80000305176</ele>
        <time>2012-05-04T09:38:25.000Z</time>
      </trkpt>
      <trkpt lat="47.66226" lon="6.01474">
        <ele>183.39999389648</ele>
        <time>2012-05-04T09:38:26.000Z</time>
      </trkpt>
      <trkpt lat="47.6623" lon="6.01476">
        <ele>183</ele>
        <time>2012-05-04T09:38:27.000Z</time>
      </trkpt>
      <trkpt lat="47.66233" lon="6.01476">
        <ele>182.60000610352</ele>
        <time>2012-05-04T09:38:28.000Z</time>
      </trkpt>
      <trkpt lat="47.66236" lon="6.01478">
        <ele>182.19999694824</ele>
        <time>2012-05-04T09:38:29.000Z</time>
      </trkpt>
      <trkpt lat="47.6624" lon="6.01479">
        <ele>181.80000305176</ele>
        <time>2012-05-04T09:38:30.000Z</time>
      </trkpt>
      <trkpt lat="47.66244" lon="6.0148">
        <ele>181.80000305176</ele>
        <time>2012-05-04T09:38:31.000Z</time>
      </trkpt>
      <trkpt lat="47.66268" lon="6.01488">
        <ele>181.80000305176</ele>
        <time>2012-05-04T09:38:37.000Z</time>
      </trkpt>
      <trkpt lat="47.66272" lon="6.01489">
        <ele>181.80000305176</ele>
        <time>2012-05-04T09:38:38.000Z</time>
      </trkpt>
      <trkpt lat="47.66297" lon="6.01497">
        <ele>181.80000305176</ele>
        <time>2012-05-04T09:38:44.000Z</time>
      </trkpt>
      <trkpt lat="47.66326" lon="6.01511">
        <ele>181.80000305176</ele>
        <time>2012-05-04T09:38:51.000Z</time>
      </trkpt>
      <trkpt lat="47.6634" lon="6.01518">
        <ele>181.80000305176</ele>
        <time>2012-05-04T09:38:54.000Z</time>
      </trkpt>
      <trkpt lat="47.66352" lon="6.01525">
        <ele>181.80000305176</ele>
        <time>2012-05-04T09:38:57.000Z</time>
      </trkpt>
      <trkpt lat="47.66375" lon="6.01535">
        <ele>181.80000305176</ele>
        <time>2012-05-04T09:39:02.000Z</time>
      </trkpt>
      <trkpt lat="47.66379" lon="6.01537">
        <ele>181.80000305176</ele>
        <time>2012-05-04T09:39:03.000Z</time>
      </trkpt>
      <trkpt lat="47.66418" lon="6.01563">
        <ele>181.80000305176</ele>
        <time>2012-05-04T09:39:13.000Z</time>
      </trkpt>
      <trkpt lat="47.66446" lon="6.01585">
        <ele>181.80000305176</ele>
        <time>2012-05-04T09:39:21.000Z</time>
      </trkpt>
      <trkpt lat="47.66457" lon="6.01589">
        <ele>181.80000305176</ele>
        <time>2012-05-04T09:39:26.000Z</time>
      </trkpt>
      <trkpt lat="47.66457" lon="6.01588">
        <ele>181.80000305176</ele>
        <time>2012-05-04T09:39:27.000Z</time>
      </trkpt>
      <trkpt lat="47.66457" lon="6.01589">
        <ele>181.80000305176</ele>
        <time>2012-05-04T09:39:47.000Z</time>
      </trkpt>
      <trkpt lat="47.6646" lon="6.01591">
        <ele>181.80000305176</ele>
        <time>2012-05-04T09:39:49.000Z</time>
      </trkpt>
      <trkpt lat="47.6647" lon="6.01601">
        <ele>181.80000305176</ele>
        <time>2012-05-04T09:39:55.000Z</time>
      </trkpt>
      <trkpt lat="47.66483" lon="6.01614">
        <ele>181.80000305176</ele>
        <time>2012-05-04T09:40:00.000Z</time>
      </trkpt>
      <trkpt lat="47.66505" lon="6.01635">
        <ele>181.80000305176</ele>
        <time>2012-05-04T09:40:07.000Z</time>
      </trkpt>
      <trkpt lat="47.66535" lon="6.01664">
        <ele>181.80000305176</ele>
        <time>2012-05-04T09:40:16.000Z</time>
      </trkpt>
      <trkpt lat="47.66556" lon="6.01689">
        <ele>181.80000305176</ele>
        <time>2012-05-04T09:40:23.000Z</time>
      </trkpt>
      <trkpt lat="47.66579" lon="6.01711">
        <ele>181.80000305176</ele>
        <time>2012-05-04T09:40:29.000Z</time>
      </trkpt>
      <trkpt lat="47.66601" lon="6.01733">
        <ele>181.80000305176</ele>
        <time>2012-05-04T09:40:35.000Z</time>
      </trkpt>
      <trkpt lat="47.66626" lon="6.01767">
        <ele>181.80000305176</ele>
        <time>2012-05-04T09:40:43.000Z</time>
      </trkpt>
      <trkpt lat="47.66645" lon="6.01798">
        <ele>181.80000305176</ele>
        <time>2012-05-04T09:40:50.000Z</time>
      </trkpt>
      <trkpt lat="47.6665" lon="6.01808">
        <ele>181.80000305176</ele>
        <time>2012-05-04T09:40:52.000Z</time>
      </trkpt>
      <trkpt lat="47.66657" lon="6.01823">
        <ele>181.80000305176</ele>
        <time>2012-05-04T09:40:55.000Z</time>
      </trkpt>
      <trkpt lat="47.6666" lon="6.01828">
        <ele>181.80000305176</ele>
        <time>2012-05-04T09:40:56.000Z</time>
      </trkpt>
      <trkpt lat="47.66677" lon="6.01856">
        <ele>181.80000305176</ele>
        <time>2012-05-04T09:41:02.000Z</time>
      </trkpt>
      <trkpt lat="47.66689" lon="6.01879">
        <ele>181.80000305176</ele>
        <time>2012-05-04T09:41:07.000Z</time>
      </trkpt>
      <trkpt lat="47.66708" lon="6.01918">
        <ele>181.80000305176</ele>
        <time>2012-05-04T09:41:14.000Z</time>
      </trkpt>
      <trkpt lat="47.66726" lon="6.0196">
        <ele>181.80000305176</ele>
        <time>2012-05-04T09:41:21.000Z</time>
      </trkpt>
      <trkpt lat="47.66742" lon="6.02011">
        <ele>181.80000305176</ele>
        <time>2012-05-04T09:41:29.000Z</time>
      </trkpt>
      <trkpt lat="47.66754" lon="6.0206">
        <ele>181.80000305176</ele>
        <time>2012-05-04T09:41:37.000Z</time>
      </trkpt>
      <trkpt lat="47.66763" lon="6.021">
        <ele>181.80000305176</ele>
        <time>2012-05-04T09:41:44.000Z</time>
      </trkpt>
      <trkpt lat="47.66771" lon="6.02126">
        <ele>181.80000305176</ele>
        <time>2012-05-04T09:41:49.000Z</time>
      </trkpt>
      <trkpt lat="47.66778" lon="6.02157">
        <ele>181.80000305176</ele>
        <time>2012-05-04T09:41:55.000Z</time>
      </trkpt>
      <trkpt lat="47.66787" lon="6.0219">
        <ele>181.80000305176</ele>
        <time>2012-05-04T09:42:01.000Z</time>
      </trkpt>
      <trkpt lat="47.66795" lon="6.02225">
        <ele>181.80000305176</ele>
        <time>2012-05-04T09:42:07.000Z</time>
      </trkpt>
      <trkpt lat="47.66807" lon="6.02267">
        <ele>181.80000305176</ele>
        <time>2012-05-04T09:42:14.000Z</time>
      </trkpt>
      <trkpt lat="47.66827" lon="6.02321">
        <ele>181.80000305176</ele>
        <time>2012-05-04T09:42:23.000Z</time>
      </trkpt>
      <trkpt lat="47.66842" lon="6.02358">
        <ele>181.80000305176</ele>
        <time>2012-05-04T09:42:30.000Z</time>
      </trkpt>
      <trkpt lat="47.66856" lon="6.02388">
        <ele>181.80000305176</ele>
        <time>2012-05-04T09:42:36.000Z</time>
      </trkpt>
      <trkpt lat="47.66879" lon="6.02435">
        <ele>181.80000305176</ele>
        <time>2012-05-04T09:42:45.000Z</time>
      </trkpt>
      <trkpt lat="47.66901" lon="6.02474">
        <ele>181.80000305176</ele>
        <time>2012-05-04T09:42:53.000Z</time>
      </trkpt>
      <trkpt lat="47.66916" lon="6.02499">
        <ele>181.80000305176</ele>
        <time>2012-05-04T09:42:58.000Z</time>
      </trkpt>
      <trkpt lat="47.66919" lon="6.02504">
        <ele>181.80000305176</ele>
        <time>2012-05-04T09:42:59.000Z</time>
      </trkpt>
      <trkpt lat="47.66928" lon="6.0252">
        <ele>181.80000305176</ele>
        <time>2012-05-04T09:43:02.000Z</time>
      </trkpt>
      <trkpt lat="47.6694" lon="6.02542">
        <ele>181.80000305176</ele>
        <time>2012-05-04T09:43:06.000Z</time>
      </trkpt>
      <trkpt lat="47.66953" lon="6.02565">
        <ele>181.80000305176</ele>
        <time>2012-05-04T09:43:10.000Z</time>
      </trkpt>
      <trkpt lat="47.66964" lon="6.02582">
        <ele>181.80000305176</ele>
        <time>2012-05-04T09:43:13.000Z</time>
      </trkpt>
      <trkpt lat="47.66985" lon="6.02619">
        <ele>181.80000305176</ele>
        <time>2012-05-04T09:43:20.000Z</time>
      </trkpt>
      <trkpt lat="47.67007" lon="6.02658">
        <ele>181.80000305176</ele>
        <time>2012-05-04T09:43:27.000Z</time>
      </trkpt>
      <trkpt lat="47.6701" lon="6.02663">
        <ele>181.80000305176</ele>
        <time>2012-05-04T09:43:28.000Z</time>
      </trkpt>
      <trkpt lat="47.67035" lon="6.02697">
        <ele>181.80000305176</ele>
        <time>2012-05-04T09:43:35.000Z</time>
      </trkpt>
      <trkpt lat="47.67058" lon="6.02724">
        <ele>181.80000305176</ele>
        <time>2012-05-04T09:43:41.000Z</time>
      </trkpt>
      <trkpt lat="47.67092" lon="6.02763">
        <ele>181.80000305176</ele>
        <time>2012-05-04T09:43:50.000Z</time>
      </trkpt>
      <trkpt lat="47.6711" lon="6.02786">
        <ele>181.80000305176</ele>
        <time>2012-05-04T09:43:55.000Z</time>
      </trkpt>
      <trkpt lat="47.67116" lon="6.02795">
        <ele>181.80000305176</ele>
        <time>2012-05-04T09:43:57.000Z</time>
      </trkpt>
      <trkpt lat="47.67122" lon="6.02804">
        <ele>181.80000305176</ele>
        <time>2012-05-04T09:43:59.000Z</time>
      </trkpt>
      <trkpt lat="47.67132" lon="6.02817">
        <ele>181.80000305176</ele>
        <time>2012-05-04T09:44:02.000Z</time>
      </trkpt>
      <trkpt lat="47.67147" lon="6.02841">
        <ele>181.80000305176</ele>
        <time>2012-05-04T09:44:07.000Z</time>
      </trkpt>
      <trkpt lat="47.67167" lon="6.02882">
        <ele>181.80000305176</ele>
        <time>2012-05-04T09:44:14.000Z</time>
      </trkpt>
      <trkpt lat="47.67174" lon="6.02899">
        <ele>181.80000305176</ele>
        <time>2012-05-04T09:44:17.000Z</time>
      </trkpt>
      <trkpt lat="47.67179" lon="6.0291">
        <ele>181.80000305176</ele>
        <time>2012-05-04T09:44:19.000Z</time>
      </trkpt>
      <trkpt lat="47.6718" lon="6.02916">
        <ele>181.80000305176</ele>
        <time>2012-05-04T09:44:20.000Z</time>
      </trkpt>
      <trkpt lat="47.67199" lon="6.02969">
        <ele>181.80000305176</ele>
        <time>2012-05-04T09:44:29.000Z</time>
      </trkpt>
      <trkpt lat="47.67207" lon="6.03005">
        <ele>181.80000305176</ele>
        <time>2012-05-04T09:44:35.000Z</time>
      </trkpt>
      <trkpt lat="47.67211" lon="6.0303">
        <ele>181.80000305176</ele>
        <time>2012-05-04T09:44:39.000Z</time>
      </trkpt>
      <trkpt lat="47.67213" lon="6.03044">
        <ele>181.80000305176</ele>
        <time>2012-05-04T09:44:41.000Z</time>
      </trkpt>
      <trkpt lat="47.67216" lon="6.03077">
        <ele>181.80000305176</ele>
        <time>2012-05-04T09:44:46.000Z</time>
      </trkpt>
      <trkpt lat="47.67217" lon="6.0309">
        <ele>181.80000305176</ele>
        <time>2012-05-04T09:44:48.000Z</time>
      </trkpt>
      <trkpt lat="47.67222" lon="6.03126">
        <ele>181.80000305176</ele>
        <time>2012-05-04T09:44:54.000Z</time>
      </trkpt>
      <trkpt lat="47.67227" lon="6.03165">
        <ele>181.80000305176</ele>
        <time>2012-05-04T09:45:00.000Z</time>
      </trkpt>
      <trkpt lat="47.67228" lon="6.03171">
        <ele>181.80000305176</ele>
        <time>2012-05-04T09:45:01.000Z</time>
      </trkpt>
      <trkpt lat="47.67231" lon="6.03204">
        <ele>181.80000305176</ele>
        <time>2012-05-04T09:45:06.000Z</time>
      </trkpt>
      <trkpt lat="47.67239" lon="6.0325">
        <ele>181.80000305176</ele>
        <time>2012-05-04T09:45:13.000Z</time>
      </trkpt>
      <trkpt lat="47.67252" lon="6.03301">
        <ele>181.80000305176</ele>
        <time>2012-05-04T09:45:21.000Z</time>
      </trkpt>
      <trkpt lat="47.67259" lon="6.03324">
        <ele>181.80000305176</ele>
        <time>2012-05-04T09:45:25.000Z</time>
      </trkpt>
      <trkpt lat="47.67264" lon="6.03341">
        <ele>181.80000305176</ele>
        <time>2012-05-04T09:45:28.000Z</time>
      </trkpt>
      <trkpt lat="47.67274" lon="6.03375">
        <ele>181.80000305176</ele>
        <time>2012-05-04T09:45:34.000Z</time>
      </trkpt>
      <trkpt lat="47.67289" lon="6.0343">
        <ele>181.80000305176</ele>
        <time>2012-05-04T09:45:43.000Z</time>
      </trkpt>
      <trkpt lat="47.673" lon="6.03485">
        <ele>181.80000305176</ele>
        <time>2012-05-04T09:45:51.000Z</time>
      </trkpt>
      <trkpt lat="47.67312" lon="6.03543">
        <ele>181.80000305176</ele>
        <time>2012-05-04T09:46:01.000Z</time>
      </trkpt>
      <trkpt lat="47.67319" lon="6.03578">
        <ele>181.80000305176</ele>
        <time>2012-05-04T09:46:07.000Z</time>
      </trkpt>
      <trkpt lat="47.67321" lon="6.03584">
        <ele>181.80000305176</ele>
        <time>2012-05-04T09:46:08.000Z</time>
      </trkpt>
      <trkpt lat="47.67327" lon="6.03613">
        <ele>181.80000305176</ele>
        <time>2012-05-04T09:46:13.000Z</time>
      </trkpt>
      <trkpt lat="47.67339" lon="6.03655">
        <ele>181.80000305176</ele>
        <time>2012-05-04T09:46:20.000Z</time>
      </trkpt>
      <trkpt lat="47.67354" lon="6.03701">
        <ele>181.80000305176</ele>
        <time>2012-05-04T09:46:28.000Z</time>
      </trkpt>
      <trkpt lat="47.6736" lon="6.03718">
        <ele>181.80000305176</ele>
        <time>2012-05-04T09:46:31.000Z</time>
      </trkpt>
      <trkpt lat="47.6737" lon="6.03738">
        <ele>181.80000305176</ele>
        <time>2012-05-04T09:46:35.000Z</time>
      </trkpt>
      <trkpt lat="47.67378" lon="6.03751">
        <ele>181.80000305176</ele>
        <time>2012-05-04T09:46:38.000Z</time>
      </trkpt>
      <trkpt lat="47.67384" lon="6.0376">
        <ele>181.80000305176</ele>
        <time>2012-05-04T09:46:40.000Z</time>
      </trkpt>
      <trkpt lat="47.67397" lon="6.03781">
        <ele>181.80000305176</ele>
        <time>2012-05-04T09:46:44.000Z</time>
      </trkpt>
      <trkpt lat="47.67403" lon="6.03791">
        <ele>181.80000305176</ele>
        <time>2012-05-04T09:46:46.000Z</time>
      </trkpt>
      <trkpt lat="47.67409" lon="6.03802">
        <ele>181.80000305176</ele>
        <time>2012-05-04T09:46:48.000Z</time>
      </trkpt>
      <trkpt lat="47.67417" lon="6.03819">
        <ele>181.80000305176</ele>
        <time>2012-05-04T09:46:51.000Z</time>
      </trkpt>
      <trkpt lat="47.67421" lon="6.03824">
        <ele>181.80000305176</ele>
        <time>2012-05-04T09:46:52.000Z</time>
      </trkpt>
      <trkpt lat="47.67448" lon="6.03873">
        <ele>181.80000305176</ele>
        <time>2012-05-04T09:47:01.000Z</time>
      </trkpt>
      <trkpt lat="47.67474" lon="6.03915">
        <ele>181.80000305176</ele>
        <time>2012-05-04T09:47:09.000Z</time>
      </trkpt>
      <trkpt lat="47.67497" lon="6.03955">
        <ele>181.80000305176</ele>
        <time>2012-05-04T09:47:17.000Z</time>
      </trkpt>
      <trkpt lat="47.67506" lon="6.0397">
        <ele>181.80000305176</ele>
        <time>2012-05-04T09:47:20.000Z</time>
      </trkpt>
      <trkpt lat="47.67515" lon="6.03983">
        <ele>181.80000305176</ele>
        <time>2012-05-04T09:47:23.000Z</time>
      </trkpt>
      <trkpt lat="47.67519" lon="6.03986">
        <ele>181.80000305176</ele>
        <time>2012-05-04T09:47:24.000Z</time>
      </trkpt>
      <trkpt lat="47.67537" lon="6.03992">
        <ele>181.80000305176</ele>
        <time>2012-05-04T09:47:28.000Z</time>
      </trkpt>
      <trkpt lat="47.67541" lon="6.03992">
        <ele>181.80000305176</ele>
        <time>2012-05-04T09:47:29.000Z</time>
      </trkpt>
      <trkpt lat="47.67545" lon="6.03992">
        <ele>181.80000305176</ele>
        <time>2012-05-04T09:47:30.000Z</time>
      </trkpt>
      <trkpt lat="47.67558" lon="6.03986">
        <ele>181.80000305176</ele>
        <time>2012-05-04T09:47:33.000Z</time>
      </trkpt>
      <trkpt lat="47.67566" lon="6.03981">
        <ele>181.80000305176</ele>
        <time>2012-05-04T09:47:35.000Z</time>
      </trkpt>
      <trkpt lat="47.67573" lon="6.03975">
        <ele>181.80000305176</ele>
        <time>2012-05-04T09:47:37.000Z</time>
      </trkpt>
      <trkpt lat="47.6758" lon="6.03967">
        <ele>181.80000305176</ele>
        <time>2012-05-04T09:47:39.000Z</time>
      </trkpt>
      <trkpt lat="47.67607" lon="6.03936">
        <ele>181.80000305176</ele>
        <time>2012-05-04T09:47:47.000Z</time>
      </trkpt>
      <trkpt lat="47.67633" lon="6.03904">
        <ele>181.80000305176</ele>
        <time>2012-05-04T09:47:55.000Z</time>
      </trkpt>
      <trkpt lat="47.67655" lon="6.03878">
        <ele>181.80000305176</ele>
        <time>2012-05-04T09:48:02.000Z</time>
      </trkpt>
      <trkpt lat="47.67676" lon="6.03857">
        <ele>181.80000305176</ele>
        <time>2012-05-04T09:48:08.000Z</time>
      </trkpt>
      <trkpt lat="47.67705" lon="6.03826">
        <ele>181.80000305176</ele>
        <time>2012-05-04T09:48:16.000Z</time>
      </trkpt>
      <trkpt lat="47.67736" lon="6.03796">
        <ele>181.80000305176</ele>
        <time>2012-05-04T09:48:24.000Z</time>
      </trkpt>
      <trkpt lat="47.67754" lon="6.03778">
        <ele>181.80000305176</ele>
        <time>2012-05-04T09:48:29.000Z</time>
      </trkpt>
      <trkpt lat="47.67762" lon="6.03772">
        <ele>181.80000305176</ele>
        <time>2012-05-04T09:48:31.000Z</time>
      </trkpt>
      <trkpt lat="47.67789" lon="6.03746">
        <ele>181.80000305176</ele>
        <time>2012-05-04T09:48:38.000Z</time>
      </trkpt>
      <trkpt lat="47.67816" lon="6.03722">
        <ele>181.80000305176</ele>
        <time>2012-05-04T09:48:45.000Z</time>
      </trkpt>
      <trkpt lat="47.67848" lon="6.03699">
        <ele>181.80000305176</ele>
        <time>2012-05-04T09:48:53.000Z</time>
      </trkpt>
      <trkpt lat="47.67886" lon="6.03676">
        <ele>181.80000305176</ele>
        <time>2012-05-04T09:49:02.000Z</time>
      </trkpt>
      <trkpt lat="47.67899" lon="6.03668">
        <ele>181.80000305176</ele>
        <time>2012-05-04T09:49:05.000Z</time>
      </trkpt>
      <trkpt lat="47.67911" lon="6.03661">
        <ele>181.80000305176</ele>
        <time>2012-05-04T09:49:08.000Z</time>
      </trkpt>
      <trkpt lat="47.6794" lon="6.03642">
        <ele>181.80000305176</ele>
        <time>2012-05-04T09:49:15.000Z</time>
      </trkpt>
      <trkpt lat="47.67944" lon="6.03639">
        <ele>181.80000305176</ele>
        <time>2012-05-04T09:49:16.000Z</time>
      </trkpt>
      <trkpt lat="47.67975" lon="6.0362">
        <ele>181.80000305176</ele>
        <time>2012-05-04T09:49:23.000Z</time>
      </trkpt>
      <trkpt lat="47.68014" lon="6.03589">
        <ele>181.80000305176</ele>
        <time>2012-05-04T09:49:32.000Z</time>
      </trkpt>
      <trkpt lat="47.68041" lon="6.03571">
        <ele>181.80000305176</ele>
        <time>2012-05-04T09:49:38.000Z</time>
      </trkpt>
      <trkpt lat="47.68046" lon="6.0357">
        <ele>181.80000305176</ele>
        <time>2012-05-04T09:49:39.000Z</time>
      </trkpt>
      <trkpt lat="47.68087" lon="6.03574">
        <ele>181.80000305176</ele>
        <time>2012-05-04T09:49:47.000Z</time>
      </trkpt>
      <trkpt lat="47.68105" lon="6.03579">
        <ele>181.80000305176</ele>
        <time>2012-05-04T09:49:51.000Z</time>
      </trkpt>
      <trkpt lat="47.68114" lon="6.03581">
        <ele>181.80000305176</ele>
        <time>2012-05-04T09:49:53.000Z</time>
      </trkpt>
      <trkpt lat="47.6814" lon="6.03581">
        <ele>181.80000305176</ele>
        <time>2012-05-04T09:49:59.000Z</time>
      </trkpt>
      <trkpt lat="47.68144" lon="6.0358">
        <ele>181.80000305176</ele>
        <time>2012-05-04T09:50:00.000Z</time>
      </trkpt>
      <trkpt lat="47.68167" lon="6.03576">
        <ele>181.80000305176</ele>
        <time>2012-05-04T09:50:05.000Z</time>
      </trkpt>
      <trkpt lat="47.68177" lon="6.03573">
        <ele>181.80000305176</ele>
        <time>2012-05-04T09:50:07.000Z</time>
      </trkpt>
      <trkpt lat="47.68219" lon="6.03568">
        <ele>181.80000305176</ele>
        <time>2012-05-04T09:50:16.000Z</time>
      </trkpt>
      <trkpt lat="47.6825" lon="6.03569">
        <ele>181.80000305176</ele>
        <time>2012-05-04T09:50:23.000Z</time>
      </trkpt>
      <trkpt lat="47.68286" lon="6.03574">
        <ele>181.80000305176</ele>
        <time>2012-05-04T09:50:31.000Z</time>
      </trkpt>
      <trkpt lat="47.68318" lon="6.03582">
        <ele>181.80000305176</ele>
        <time>2012-05-04T09:50:38.000Z</time>
      </trkpt>
      <trkpt lat="47.68356" lon="6.03592">
        <ele>181.80000305176</ele>
        <time>2012-05-04T09:50:46.000Z</time>
      </trkpt>
      <trkpt lat="47.68397" lon="6.0361">
        <ele>181.80000305176</ele>
        <time>2012-05-04T09:50:55.000Z</time>
      </trkpt>
      <trkpt lat="47.68414" lon="6.0362">
        <ele>181.80000305176</ele>
        <time>2012-05-04T09:50:59.000Z</time>
      </trkpt>
      <trkpt lat="47.68423" lon="6.03622">
        <ele>181.80000305176</ele>
        <time>2012-05-04T09:51:01.000Z</time>
      </trkpt>
      <trkpt lat="47.68446" lon="6.03622">
        <ele>181.80000305176</ele>
        <time>2012-05-04T09:51:06.000Z</time>
      </trkpt>
      <trkpt lat="47.6845" lon="6.03621">
        <ele>181.80000305176</ele>
        <time>2012-05-04T09:51:07.000Z</time>
      </trkpt>
      <trkpt lat="47.68466" lon="6.03615">
        <ele>181.80000305176</ele>
        <time>2012-05-04T09:51:11.000Z</time>
      </trkpt>
      <trkpt lat="47.68473" lon="6.03616">
        <ele>181.80000305176</ele>
        <time>2012-05-04T09:51:13.000Z</time>
      </trkpt>
      <trkpt lat="47.68497" lon="6.03626">
        <ele>181.80000305176</ele>
        <time>2012-05-04T09:51:19.000Z</time>
      </trkpt>
      <trkpt lat="47.68504" lon="6.03631">
        <ele>181.80000305176</ele>
        <time>2012-05-04T09:51:21.000Z</time>
      </trkpt>
      <trkpt lat="47.68513" lon="6.03634">
        <ele>181.80000305176</ele>
        <time>2012-05-04T09:51:23.000Z</time>
      </trkpt>
      <trkpt lat="47.6854" lon="6.03645">
        <ele>181.80000305176</ele>
        <time>2012-05-04T09:51:30.000Z</time>
      </trkpt>
      <trkpt lat="47.68568" lon="6.0365">
        <ele>181.80000305176</ele>
        <time>2012-05-04T09:51:37.000Z</time>
      </trkpt>
      <trkpt lat="47.68591" lon="6.03646">
        <ele>181.80000305176</ele>
        <time>2012-05-04T09:51:43.000Z</time>
      </trkpt>
      <trkpt lat="47.68609" lon="6.03635">
        <ele>181.80000305176</ele>
        <time>2012-05-04T09:51:48.000Z</time>
      </trkpt>
      <trkpt lat="47.68613" lon="6.03632">
        <ele>181.80000305176</ele>
        <time>2012-05-04T09:51:49.000Z</time>
      </trkpt>
      <trkpt lat="47.6863" lon="6.03629">
        <ele>181.80000305176</ele>
        <time>2012-05-04T09:51:53.000Z</time>
      </trkpt>
      <trkpt lat="47.68635" lon="6.0363">
        <ele>181.80000305176</ele>
        <time>2012-05-04T09:51:54.000Z</time>
      </trkpt>
      <trkpt lat="47.68666" lon="6.03633">
        <ele>181.80000305176</ele>
        <time>2012-05-04T09:52:00.000Z</time>
      </trkpt>
      <trkpt lat="47.68676" lon="6.03634">
        <ele>181.80000305176</ele>
        <time>2012-05-04T09:52:02.000Z</time>
      </trkpt>
      <trkpt lat="47.6869" lon="6.03636">
        <ele>181.80000305176</ele>
        <time>2012-05-04T09:52:05.000Z</time>
      </trkpt>
      <trkpt lat="47.68726" lon="6.03644">
        <ele>181.80000305176</ele>
        <time>2012-05-04T09:52:12.000Z</time>
      </trkpt>
      <trkpt lat="47.68737" lon="6.03646">
        <ele>181.80000305176</ele>
        <time>2012-05-04T09:52:14.000Z</time>
      </trkpt>
      <trkpt lat="47.68754" lon="6.03649">
        <ele>181.80000305176</ele>
        <time>2012-05-04T09:52:17.000Z</time>
      </trkpt>
      <trkpt lat="47.68759" lon="6.0365">
        <ele>181.80000305176</ele>
        <time>2012-05-04T09:52:18.000Z</time>
      </trkpt>
      <trkpt lat="47.6879" lon="6.03653">
        <ele>181.80000305176</ele>
        <time>2012-05-04T09:52:24.000Z</time>
      </trkpt>
      <trkpt lat="47.68826" lon="6.03656">
        <ele>181.80000305176</ele>
        <time>2012-05-04T09:52:31.000Z</time>
      </trkpt>
      <trkpt lat="47.68857" lon="6.03655">
        <ele>181.80000305176</ele>
        <time>2012-05-04T09:52:37.000Z</time>
      </trkpt>
      <trkpt lat="47.68872" lon="6.03654">
        <ele>181.80000305176</ele>
        <time>2012-05-04T09:52:40.000Z</time>
      </trkpt>
      <trkpt lat="47.68881" lon="6.03655">
        <ele>181.80000305176</ele>
        <time>2012-05-04T09:52:42.000Z</time>
      </trkpt>
      <trkpt lat="47.6891" lon="6.03663">
        <ele>181.80000305176</ele>
        <time>2012-05-04T09:52:48.000Z</time>
      </trkpt>
      <trkpt lat="47.68946" lon="6.03681">
        <ele>181.80000305176</ele>
        <time>2012-05-04T09:52:55.000Z</time>
      </trkpt>
      <trkpt lat="47.68985" lon="6.03709">
        <ele>181.80000305176</ele>
        <time>2012-05-04T09:53:03.000Z</time>
      </trkpt>
      <trkpt lat="47.69012" lon="6.03731">
        <ele>181.80000305176</ele>
        <time>2012-05-04T09:53:09.000Z</time>
      </trkpt>
      <trkpt lat="47.69024" lon="6.0374">
        <ele>181.80000305176</ele>
        <time>2012-05-04T09:53:12.000Z</time>
      </trkpt>
      <trkpt lat="47.6904" lon="6.03753">
        <ele>181.80000305176</ele>
        <time>2012-05-04T09:53:16.000Z</time>
      </trkpt>
      <trkpt lat="47.69066" lon="6.03772">
        <ele>181.80000305176</ele>
        <time>2012-05-04T09:53:23.000Z</time>
      </trkpt>
      <trkpt lat="47.69088" lon="6.03788">
        <ele>181.80000305176</ele>
        <time>2012-05-04T09:53:29.000Z</time>
      </trkpt>
      <trkpt lat="47.69093" lon="6.03797">
        <ele>181.80000305176</ele>
        <time>2012-05-04T09:53:31.000Z</time>
      </trkpt>
      <trkpt lat="47.69095" lon="6.03806">
        <ele>182.19999694824</ele>
        <time>2012-05-04T09:53:33.000Z</time>
      </trkpt>
      <trkpt lat="47.69094" lon="6.03811">
        <ele>182.60000610352</ele>
        <time>2012-05-04T09:53:34.000Z</time>
      </trkpt>
      <trkpt lat="47.69093" lon="6.03815">
        <ele>183.19999694824</ele>
        <time>2012-05-04T09:53:35.000Z</time>
      </trkpt>
      <trkpt lat="47.69091" lon="6.0382">
        <ele>183.60000610352</ele>
        <time>2012-05-04T09:53:36.000Z</time>
      </trkpt>
      <trkpt lat="47.69089" lon="6.03825">
        <ele>184.39999389648</ele>
        <time>2012-05-04T09:53:37.000Z</time>
      </trkpt>
      <trkpt lat="47.69087" lon="6.0383">
        <ele>184.80000305176</ele>
        <time>2012-05-04T09:53:38.000Z</time>
      </trkpt>
      <trkpt lat="47.69085" lon="6.03837">
        <ele>185.19999694824</ele>
        <time>2012-05-04T09:53:39.000Z</time>
      </trkpt>
      <trkpt lat="47.69082" lon="6.03844">
        <ele>185.60000610352</ele>
        <time>2012-05-04T09:53:40.000Z</time>
      </trkpt>
      <trkpt lat="47.69079" lon="6.0385">
        <ele>186</ele>
        <time>2012-05-04T09:53:41.000Z</time>
      </trkpt>
      <trkpt lat="47.69064" lon="6.03885">
        <ele>186</ele>
        <time>2012-05-04T09:53:47.000Z</time>
      </trkpt>
      <trkpt lat="47.69047" lon="6.03929">
        <ele>186</ele>
        <time>2012-05-04T09:53:55.000Z</time>
      </trkpt>
      <trkpt lat="47.69024" lon="6.03985">
        <ele>186</ele>
        <time>2012-05-04T09:54:04.000Z</time>
      </trkpt>
      <trkpt lat="47.69005" lon="6.04031">
        <ele>186</ele>
        <time>2012-05-04T09:54:11.000Z</time>
      </trkpt>
      <trkpt lat="47.68978" lon="6.041">
        <ele>186</ele>
        <time>2012-05-04T09:54:21.000Z</time>
      </trkpt>
      <trkpt lat="47.68963" lon="6.04136">
        <ele>186</ele>
        <time>2012-05-04T09:54:27.000Z</time>
      </trkpt>
      <trkpt lat="47.68947" lon="6.04175">
        <ele>186</ele>
        <time>2012-05-04T09:54:33.000Z</time>
      </trkpt>
      <trkpt lat="47.6893" lon="6.04219">
        <ele>186</ele>
        <time>2012-05-04T09:54:40.000Z</time>
      </trkpt>
      <trkpt lat="47.68912" lon="6.0426">
        <ele>186</ele>
        <time>2012-05-04T09:54:48.000Z</time>
      </trkpt>
      <trkpt lat="47.68897" lon="6.04299">
        <ele>186</ele>
        <time>2012-05-04T09:54:55.000Z</time>
      </trkpt>
      <trkpt lat="47.68882" lon="6.04336">
        <ele>186</ele>
        <time>2012-05-04T09:55:02.000Z</time>
      </trkpt>
      <trkpt lat="47.68873" lon="6.04359">
        <ele>186</ele>
        <time>2012-05-04T09:55:08.000Z</time>
      </trkpt>
      <trkpt lat="47.68859" lon="6.0439">
        <ele>186</ele>
        <time>2012-05-04T09:55:15.000Z</time>
      </trkpt>
      <trkpt lat="47.68857" lon="6.04402">
        <ele>186</ele>
        <time>2012-05-04T09:55:17.000Z</time>
      </trkpt>
      <trkpt lat="47.68853" lon="6.04414">
        <ele>186.60000610352</ele>
        <time>2012-05-04T09:55:19.000Z</time>
      </trkpt>
      <trkpt lat="47.68851" lon="6.04421">
        <ele>187</ele>
        <time>2012-05-04T09:55:20.000Z</time>
      </trkpt>
      <trkpt lat="47.6885" lon="6.04426">
        <ele>187.39999389648</ele>
        <time>2012-05-04T09:55:21.000Z</time>
      </trkpt>
      <trkpt lat="47.68849" lon="6.04432">
        <ele>187.80000305176</ele>
        <time>2012-05-04T09:55:22.000Z</time>
      </trkpt>
      <trkpt lat="47.68848" lon="6.04437">
        <ele>188.19999694824</ele>
        <time>2012-05-04T09:55:23.000Z</time>
      </trkpt>
      <trkpt lat="47.68847" lon="6.04448">
        <ele>188.19999694824</ele>
        <time>2012-05-04T09:55:25.000Z</time>
      </trkpt>
      <trkpt lat="47.68846" lon="6.04453">
        <ele>188.60000610352</ele>
        <time>2012-05-04T09:55:26.000Z</time>
      </trkpt>
      <trkpt lat="47.68845" lon="6.04458">
        <ele>189</ele>
        <time>2012-05-04T09:55:27.000Z</time>
      </trkpt>
      <trkpt lat="47.68845" lon="6.04462">
        <ele>189.39999389648</ele>
        <time>2012-05-04T09:55:28.000Z</time>
      </trkpt>
      <trkpt lat="47.68844" lon="6.04467">
        <ele>189.80000305176</ele>
        <time>2012-05-04T09:55:29.000Z</time>
      </trkpt>
      <trkpt lat="47.68843" lon="6.04471">
        <ele>190.19999694824</ele>
        <time>2012-05-04T09:55:30.000Z</time>
      </trkpt>
      <trkpt lat="47.68842" lon="6.04476">
        <ele>190.19999694824</ele>
        <time>2012-05-04T09:55:31.000Z</time>
      </trkpt>
      <trkpt lat="47.68837" lon="6.04502">
        <ele>190.19999694824</ele>
        <time>2012-05-04T09:55:37.000Z</time>
      </trkpt>
      <trkpt lat="47.68836" lon="6.04519">
        <ele>190.19999694824</ele>
        <time>2012-05-04T09:55:41.000Z</time>
      </trkpt>
      <trkpt lat="47.68832" lon="6.04549">
        <ele>190.60000610352</ele>
        <time>2012-05-04T09:55:47.000Z</time>
      </trkpt>
      <trkpt lat="47.68832" lon="6.04553">
        <ele>191</ele>
        <time>2012-05-04T09:55:48.000Z</time>
      </trkpt>
      <trkpt lat="47.68831" lon="6.04557">
        <ele>191.39999389648</ele>
        <time>2012-05-04T09:55:49.000Z</time>
      </trkpt>
      <trkpt lat="47.68831" lon="6.04561">
        <ele>191.80000305176</ele>
        <time>2012-05-04T09:55:50.000Z</time>
      </trkpt>
      <trkpt lat="47.68831" lon="6.04565">
        <ele>192.19999694824</ele>
        <time>2012-05-04T09:55:51.000Z</time>
      </trkpt>
      <trkpt lat="47.68831" lon="6.04579">
        <ele>192.19999694824</ele>
        <time>2012-05-04T09:55:54.000Z</time>
      </trkpt>
      <trkpt lat="47.6883" lon="6.04611">
        <ele>192.19999694824</ele>
        <time>2012-05-04T09:56:01.000Z</time>
      </trkpt>
      <trkpt lat="47.68826" lon="6.04647">
        <ele>192.19999694824</ele>
        <time>2012-05-04T09:56:09.000Z</time>
      </trkpt>
      <trkpt lat="47.68826" lon="6.04679">
        <ele>192.19999694824</ele>
        <time>2012-05-04T09:56:16.000Z</time>
      </trkpt>
      <trkpt lat="47.68826" lon="6.04684">
        <ele>192.60000610352</ele>
        <time>2012-05-04T09:56:17.000Z</time>
      </trkpt>
      <trkpt lat="47.68826" lon="6.04688">
        <ele>193</ele>
        <time>2012-05-04T09:56:18.000Z</time>
      </trkpt>
      <trkpt lat="47.68826" lon="6.04693">
        <ele>193.39999389648</ele>
        <time>2012-05-04T09:56:19.000Z</time>
      </trkpt>
      <trkpt lat="47.68826" lon="6.04698">
        <ele>193.80000305176</ele>
        <time>2012-05-04T09:56:20.000Z</time>
      </trkpt>
      <trkpt lat="47.68826" lon="6.04703">
        <ele>194.19999694824</ele>
        <time>2012-05-04T09:56:21.000Z</time>
      </trkpt>
      <trkpt lat="47.68826" lon="6.04727">
        <ele>194.19999694824</ele>
        <time>2012-05-04T09:56:26.000Z</time>
      </trkpt>
      <trkpt lat="47.68825" lon="6.04769">
        <ele>194.19999694824</ele>
        <time>2012-05-04T09:56:34.000Z</time>
      </trkpt>
      <trkpt lat="47.68823" lon="6.04803">
        <ele>194.19999694824</ele>
        <time>2012-05-04T09:56:41.000Z</time>
      </trkpt>
      <trkpt lat="47.68822" lon="6.04808">
        <ele>194.60000610352</ele>
        <time>2012-05-04T09:56:42.000Z</time>
      </trkpt>
      <trkpt lat="47.68821" lon="6.04812">
        <ele>195</ele>
        <time>2012-05-04T09:56:43.000Z</time>
      </trkpt>
      <trkpt lat="47.68821" lon="6.04816">
        <ele>195.39999389648</ele>
        <time>2012-05-04T09:56:44.000Z</time>
      </trkpt>
      <trkpt lat="47.68821" lon="6.04821">
        <ele>195.80000305176</ele>
        <time>2012-05-04T09:56:45.000Z</time>
      </trkpt>
      <trkpt lat="47.6882" lon="6.04826">
        <ele>196.19999694824</ele>
        <time>2012-05-04T09:56:46.000Z</time>
      </trkpt>
      <trkpt lat="47.68819" lon="6.04831">
        <ele>196.19999694824</ele>
        <time>2012-05-04T09:56:47.000Z</time>
      </trkpt>
      <trkpt lat="47.68816" lon="6.04861">
        <ele>196.19999694824</ele>
        <time>2012-05-04T09:56:54.000Z</time>
      </trkpt>
      <trkpt lat="47.68811" lon="6.04873">
        <ele>196.19999694824</ele>
        <time>2012-05-04T09:56:58.000Z</time>
      </trkpt>
      <trkpt lat="47.68809" lon="6.04874">
        <ele>196.80000305176</ele>
        <time>2012-05-04T09:56:59.000Z</time>
      </trkpt>
      <trkpt lat="47.68807" lon="6.04874">
        <ele>197.19999694824</ele>
        <time>2012-05-04T09:57:00.000Z</time>
      </trkpt>
      <trkpt lat="47.68804" lon="6.04875">
        <ele>197.60000610352</ele>
        <time>2012-05-04T09:57:01.000Z</time>
      </trkpt>
      <trkpt lat="47.68802" lon="6.04875">
        <ele>198</ele>
        <time>2012-05-04T09:57:02.000Z</time>
      </trkpt>
      <trkpt lat="47.688" lon="6.04875">
        <ele>198.39999389648</ele>
        <time>2012-05-04T09:57:03.000Z</time>
      </trkpt>
      <trkpt lat="47.68796" lon="6.04876">
        <ele>198.39999389648</ele>
        <time>2012-05-04T09:57:05.000Z</time>
      </trkpt>
      <trkpt lat="47.68786" lon="6.04875">
        <ele>198.39999389648</ele>
        <time>2012-05-04T09:57:10.000Z</time>
      </trkpt>
      <trkpt lat="47.68782" lon="6.04871">
        <ele>198.80000305176</ele>
        <time>2012-05-04T09:57:12.000Z</time>
      </trkpt>
      <trkpt lat="47.68781" lon="6.04868">
        <ele>199.19999694824</ele>
        <time>2012-05-04T09:57:13.000Z</time>
      </trkpt>
      <trkpt lat="47.6878" lon="6.04865">
        <ele>199.80000305176</ele>
        <time>2012-05-04T09:57:14.000Z</time>
      </trkpt>
      <trkpt lat="47.68779" lon="6.04862">
        <ele>200.19999694824</ele>
        <time>2012-05-04T09:57:15.000Z</time>
      </trkpt>
      <trkpt lat="47.68778" lon="6.04859">
        <ele>200.60000610352</ele>
        <time>2012-05-04T09:57:16.000Z</time>
      </trkpt>
      <trkpt lat="47.68775" lon="6.04848">
        <ele>200.60000610352</ele>
        <time>2012-05-04T09:57:19.000Z</time>
      </trkpt>
      <trkpt lat="47.68772" lon="6.04837">
        <ele>200.60000610352</ele>
        <time>2012-05-04T09:57:22.000Z</time>
      </trkpt>
      <trkpt lat="47.68764" lon="6.04811">
        <ele>200.60000610352</ele>
        <time>2012-05-04T09:57:28.000Z</time>
      </trkpt>
      <trkpt lat="47.6876" lon="6.04793">
        <ele>201</ele>
        <time>2012-05-04T09:57:33.000Z</time>
      </trkpt>
      <trkpt lat="47.68758" lon="6.04789">
        <ele>201.39999389648</ele>
        <time>2012-05-04T09:57:34.000Z</time>
      </trkpt>
      <trkpt lat="47.68757" lon="6.04786">
        <ele>202</ele>
        <time>2012-05-04T09:57:35.000Z</time>
      </trkpt>
      <trkpt lat="47.68756" lon="6.04782">
        <ele>202.39999389648</ele>
        <time>2012-05-04T09:57:36.000Z</time>
      </trkpt>
      <trkpt lat="47.68756" lon="6.04779">
        <ele>202.80000305176</ele>
        <time>2012-05-04T09:57:37.000Z</time>
      </trkpt>
      <trkpt lat="47.68753" lon="6.04769">
        <ele>202.80000305176</ele>
        <time>2012-05-04T09:57:40.000Z</time>
      </trkpt>
      <trkpt lat="47.68748" lon="6.0475">
        <ele>202.80000305176</ele>
        <time>2012-05-04T09:57:46.000Z</time>
      </trkpt>
      <trkpt lat="47.68741" lon="6.04725">
        <ele>202.80000305176</ele>
        <time>2012-05-04T09:57:53.000Z</time>
      </trkpt>
      <trkpt lat="47.6873" lon="6.04697">
        <ele>202.80000305176</ele>
        <time>2012-05-04T09:58:01.000Z</time>
      </trkpt>
      <trkpt lat="47.68725" lon="6.04688">
        <ele>203.19999694824</ele>
        <time>2012-05-04T09:58:04.000Z</time>
      </trkpt>
      <trkpt lat="47.68724" lon="6.04684">
        <ele>203.60000610352</ele>
        <time>2012-05-04T09:58:05.000Z</time>
      </trkpt>
      <trkpt lat="47.68722" lon="6.04681">
        <ele>204</ele>
        <time>2012-05-04T09:58:06.000Z</time>
      </trkpt>
      <trkpt lat="47.6872" lon="6.04677">
        <ele>204.39999389648</ele>
        <time>2012-05-04T09:58:07.000Z</time>
      </trkpt>
      <trkpt lat="47.68719" lon="6.04673">
        <ele>204.80000305176</ele>
        <time>2012-05-04T09:58:08.000Z</time>
      </trkpt>
      <trkpt lat="47.68717" lon="6.04669">
        <ele>204.80000305176</ele>
        <time>2012-05-04T09:58:09.000Z</time>
      </trkpt>
      <trkpt lat="47.68705" lon="6.04645">
        <ele>204.80000305176</ele>
        <time>2012-05-04T09:58:16.000Z</time>
      </trkpt>
      <trkpt lat="47.68697" lon="6.04627">
        <ele>204.80000305176</ele>
        <time>2012-05-04T09:58:21.000Z</time>
      </trkpt>
      <trkpt lat="47.68686" lon="6.04598">
        <ele>204.80000305176</ele>
        <time>2012-05-04T09:58:27.000Z</time>
      </trkpt>
      <trkpt lat="47.68683" lon="6.04587">
        <ele>204.80000305176</ele>
        <time>2012-05-04T09:58:29.000Z</time>
      </trkpt>
      <trkpt lat="47.68675" lon="6.0457">
        <ele>204.80000305176</ele>
        <time>2012-05-04T09:58:32.000Z</time>
      </trkpt>
      <trkpt lat="47.68672" lon="6.04565">
        <ele>204.80000305176</ele>
        <time>2012-05-04T09:58:33.000Z</time>
      </trkpt>
      <trkpt lat="47.68657" lon="6.04547">
        <ele>204.80000305176</ele>
        <time>2012-05-04T09:58:37.000Z</time>
      </trkpt>
      <trkpt lat="47.68646" lon="6.04535">
        <ele>204.39999389648</ele>
        <time>2012-05-04T09:58:40.000Z</time>
      </trkpt>
      <trkpt lat="47.68642" lon="6.04532">
        <ele>204</ele>
        <time>2012-05-04T09:58:41.000Z</time>
      </trkpt>
      <trkpt lat="47.68638" lon="6.04531">
        <ele>203.60000610352</ele>
        <time>2012-05-04T09:58:42.000Z</time>
      </trkpt>
      <trkpt lat="47.68634" lon="6.04532">
        <ele>203</ele>
        <time>2012-05-04T09:58:43.000Z</time>
      </trkpt>
      <trkpt lat="47.68631" lon="6.04536">
        <ele>202.60000610352</ele>
        <time>2012-05-04T09:58:44.000Z</time>
      </trkpt>
      <trkpt lat="47.68629" lon="6.04539">
        <ele>202.60000610352</ele>
        <time>2012-05-04T09:58:45.000Z</time>
      </trkpt>
      <trkpt lat="47.68627" lon="6.04548">
        <ele>202.60000610352</ele>
        <time>2012-05-04T09:58:49.000Z</time>
      </trkpt>
      <trkpt lat="47.68627" lon="6.04548">
        <ele>202.60000610352</ele>
        <time>2012-05-04T09:58:50.000Z</time>
      </trkpt>
      <trkpt lat="47.68627" lon="6.04548">
        <ele>202.60000610352</ele>
        <time>2012-05-04T09:58:53.000Z</time>
      </trkpt>
      <trkpt lat="47.68627" lon="6.04549">
        <ele>202.60000610352</ele>
        <time>2012-05-04T09:58:54.000Z</time>
      </trkpt>
      <trkpt lat="47.68627" lon="6.04551">
        <ele>202.60000610352</ele>
        <time>2012-05-04T09:59:15.000Z</time>
      </trkpt>
      <trkpt lat="47.68625" lon="6.04551">
        <ele>202.60000610352</ele>
        <time>2012-05-04T09:59:20.000Z</time>
      </trkpt>
      <trkpt lat="47.68625" lon="6.04553">
        <ele>202.60000610352</ele>
        <time>2012-05-04T09:59:22.000Z</time>
      </trkpt>
    </trkseg>
  </trk>
</gpx>